[[{"header":{"parameterUnit":"m.s-1","parameterCategory":1,"la1":31.0,"la2":29.5877,"lo1":-88.7671,"lo2":-86.6584,"dy":0.0162,"dx":0.0185,"nx":115,"ny":88,"refTime":"2023-08-30T12:00:00:Z","depth":0,"parameterNumber":2,"parameterNumberName":"U-component_of_WINDS"},"data":[0.0,0.0,0.0,0.0,0.0,0.0,0.0,0.0,0.0,0.0,0.0,0.0,0.0,0.0,0.0,0.0,0.0,0.0,0.0,0.0,0.0,0.0,0.0,0.0,0.0,0.0,0.0,0.0,0.0,0.0,0.0,0.0,0.0,0.0,0.0,0.0,0.0,0.0,0.0,0.0,0.0,0.0,0.0,0.0,0.0,0.0,0.0,0.0,0.0,0.0,0.0,0.0,0.0,0.0,0.0,0.0,0.0,0.0,0.0,0.0,0.0,0.0,0.0,0.0,0.0,0.0,0.0,0.0,0.0,0.0,0.0,0.0,0.0,0.0,0.0,0.0,0.0,0.0,0.0,0.0,0.0,0.0,0.0,0.0,0.0,0.0,0.0,0.0,0.0,0.0,0.0,0.0,0.0,0.0,0.0,0.0,0.0,0.0,0.0,0.0,0.0,0.0,0.0,0.0,0.0,0.0,0.0,0.0,0.0,0.0,0.0,0.0,0.0,0.0,0.0,0.0,0.0,0.0,0.0,0.0,0.0,0.0,0.0,0.0,0.0,0.0,0.0,0.0,0.0,0.0,0.0,0.0,0.0,0.0,0.0,0.0,0.0,0.0,0.0,0.0,0.0,0.0,0.0,0.0,0.0,0.0,0.0,0.0,0.0,0.0,0.0,0.0,0.0,0.0,0.0,0.0,0.0,0.0,0.0,0.0,0.0,0.0,0.0,0.0,0.0,0.0,0.0,0.0,0.0,0.0,0.0,0.0,0.0,0.0,0.0,0.0,0.0,0.0,0.0,0.0,0.0,0.0,0.0,0.0,0.0,0.0,0.0,0.0,0.0,0.0,0.0,0.0,0.0,0.0,0.0,0.0,0.0,0.0,0.0,0.0,0.0,0.0,0.0,0.0,0.0,0.0,0.0,0.0,0.0,0.0,0.0,0.0,0.0,0.0,0.0,0.0,0.0,0.0,0.0,0.0,0.0,0.0,0.0,0.0,0.0,0.0,0.0,0.0,0.0,0.0,0.0,0.0,0.0,0.0,0.0,0.0,0.0,0.0,0.0,0.0,0.0,0.0,0.0,0.0,0.0,0.0,0.0,0.0,0.0,0.0,0.0,0.0,0.0,0.0,0.0,0.0,0.0,0.0,0.0,0.0,0.0,0.0,0.0,0.0,0.0,0.0,0.0,0.0,0.0,0.0,0.0,0.0,0.0,0.0,0.0,0.0,0.0,0.0,0.0,0.0,0.0,0.0,0.0,0.0,0.0,0.0,0.0,0.0,0.0,0.0,0.0,0.0,0.0,0.0,0.0,0.0,0.0,0.0,0.0,0.0,0.0,0.0,0.0,0.0,0.0,0.0,0.0,0.0,0.0,0.0,0.0,0.0,0.0,0.0,0.0,0.0,0.0,0.0,0.0,0.0,0.0,0.0,0.0,0.0,0.0,0.0,0.0,0.0,0.0,0.0,0.0,0.0,0.0,0.0,0.0,0.0,0.0,0.0,0.0,0.0,0.0,0.0,0.0,0.0,0.0,0.0,0.0,0.0,0.0,0.0,0.0,0.0,0.0,0.0,0.0,0.0,0.0,0.0,0.0,0.0,0.0,0.0,0.0,0.0,0.0,0.0,0.0,0.0,0.0,0.0,0.0,0.0,0.0,0.0,0.0,0.0,0.0,0.0,0.0,0.0,0.0,0.0,0.0,0.0,0.0,0.0,0.0,0.0,0.0,0.0,0.0,0.0,0.0,0.0,0.0,0.0,0.0,0.0,0.0,0.0,0.0,0.0,0.0,0.0,0.0,0.0,0.0,0.0,0.0,0.0,0.0,0.0,0.0,0.0,0.0,0.0,0.0,0.0,0.0,0.0,0.0,0.0,0.0,0.0,0.0,0.0,0.0,0.0,0.0,0.0,0.0,0.0,0.0,0.0,0.0,0.0,0.0,0.0,0.0,0.0,0.0,0.0,0.0,0.0,0.0,0.0,0.0,0.0,0.0,0.0,0.0,0.0,0.0,0.0,0.0,0.0,0.0,0.0,0.0,0.0,0.0,0.0,0.0,0.0,0.0,0.0,0.0,0.0,0.0,0.0,0.0,0.0,0.0,0.0,0.0,0.0,0.0,0.0,0.0,0.0,0.0,0.0,0.0,0.0,0.0,0.0,0.0,0.0,0.0,0.0,0.0,0.0,0.0,0.0,0.0,0.0,0.0,0.0,0.0,0.0,0.0,0.0,0.0,0.0,0.0,0.0,0.0,0.0,0.0,0.0,0.0,0.0,0.0,0.0,0.0,0.0,0.0,0.0,0.0,0.0,0.0,0.0,0.0,0.0,0.0,0.0,0.0,0.0,0.0,0.0,0.0,0.0,0.0,0.0,0.0,0.0,0.0,0.0,0.0,0.0,0.0,0.0,0.0,0.0,0.0,0.0,0.0,0.0,0.0,0.0,0.0,0.0,0.0,0.0,0.0,0.0,0.0,0.0,0.0,0.0,0.0,0.0,0.0,0.0,0.0,0.0,0.0,0.0,0.0,0.0,0.0,0.0,0.0,0.0,0.0,0.0,0.0,0.0,0.0,0.0,0.0,0.0,0.0,0.0,0.0,0.0,0.0,0.0,0.0,0.0,0.0,0.0,0.0,0.0,0.0,0.0,0.0,0.0,0.0,0.0,0.0,0.0,0.0,0.0,0.0,0.0,0.0,0.0,0.0,0.0,0.0,0.0,0.0,0.0,0.0,0.0,0.0,0.0,0.0,0.0,0.0,0.0,0.0,0.0,0.0,0.0,0.0,0.0,0.0,0.0,0.0,0.0,0.0,0.0,0.0,0.0,0.0,0.0,0.0,0.0,0.0,0.0,0.0,0.0,0.0,0.0,0.0,0.0,0.0,0.0,0.0,0.0,0.0,0.0,0.0,0.0,0.0,0.0,0.0,0.0,0.0,0.0,0.0,0.0,0.0,0.0,0.0,0.0,0.0,0.0,0.0,0.0,0.0,0.0,0.0,0.0,0.0,0.0,0.0,0.0,0.0,0.0,0.0,0.0,0.0,0.0,0.0,0.0,0.0,0.0,0.0,0.0,0.0,0.0,0.0,0.0,0.0,0.0,0.0,0.0,0.0,0.0,0.0,0.0,0.0,0.0,0.0,0.0,0.0,0.0,0.0,0.0,0.0,0.0,0.0,0.0,0.0,0.0,0.0,0.0,0.0,0.0,0.0,0.0,0.0,0.0,0.0,0.0,0.0,0.0,0.0,0.0,0.0,0.0,0.0,0.0,0.0,0.0,0.0,0.0,0.0,0.0,0.0,0.0,0.0,0.0,0.0,0.0,0.0,0.0,0.0,0.0,0.0,0.0,0.0,0.0,0.0,0.0,0.0,0.0,0.0,0.0,0.0,0.0,0.0,0.0,0.0,0.0,0.0,0.0,0.0,0.0,0.0,0.0,0.0,0.0,0.0,0.0,0.0,0.0,0.0,0.0,0.0,0.0,0.0,0.0,0.0,0.0,0.0,0.0,0.0,0.0,0.0,0.0,0.0,0.0,0.0,0.0,0.0,0.0,0.0,0.0,0.0,0.0,0.0,0.0,0.0,0.0,0.0,0.0,0.0,0.0,0.0,0.0,0.0,0.0,0.0,0.0,0.0,0.0,0.0,0.0,0.0,0.0,0.0,0.0,0.0,0.0,0.0,0.0,0.0,0.0,0.0,0.0,0.0,0.0,0.0,0.0,0.0,0.0,0.0,0.0,0.0,0.0,0.0,0.0,0.0,0.0,0.0,0.0,0.0,0.0,0.0,0.0,0.0,0.0,0.0,0.0,0.0,0.0,0.0,0.0,0.0,0.0,0.0,0.0,0.0,0.0,0.0,0.0,0.0,0.0,0.0,0.0,0.0,0.0,0.0,0.0,0.0,0.0,0.0,0.0,0.0,0.0,0.0,0.0,0.0,0.0,0.0,0.0,0.0,0.0,0.0,0.0,0.0,0.0,0.0,0.0,0.0,0.0,0.0,0.0,0.0,0.0,0.0,0.0,0.0,0.0,0.0,0.0,0.0,0.0,0.0,0.0,0.0,0.0,0.0,0.0,0.0,0.0,0.0,0.0,0.0,0.0,0.0,0.0,0.0,0.0,0.0,0.0,0.0,0.0,0.0,0.0,0.0,0.0,0.0,0.0,0.0,0.0,0.0,0.0,0.0,0.0,0.0,0.0,0.0,0.0,0.0,0.0,0.0,0.0,0.0,0.0,0.0,0.0,0.0,0.0,0.0,0.0,0.0,0.0,0.0,0.0,0.0,0.0,2.5609,0.0,0.0,0.0,0.0,0.0,0.0,0.0,0.0,0.0,0.0,0.0,0.0,0.0,0.0,0.0,0.0,0.0,0.0,0.0,0.0,0.0,0.0,0.0,0.0,0.0,0.0,0.0,0.0,0.0,0.0,0.0,0.0,0.0,0.0,0.0,0.0,0.0,0.0,0.0,0.0,0.0,0.0,0.0,0.0,0.0,0.0,0.0,0.0,0.0,0.0,0.0,0.0,0.0,0.0,0.0,0.0,0.0,0.0,0.0,0.0,0.0,0.0,0.0,0.0,0.0,0.0,0.0,0.0,0.0,0.0,0.0,0.0,0.0,0.0,0.0,0.0,0.0,0.0,0.0,0.0,0.0,0.0,0.0,0.0,0.0,0.0,0.0,0.0,0.0,0.0,0.0,0.0,0.0,0.0,0.0,0.0,0.0,0.0,0.0,0.0,0.0,0.0,0.0,0.0,0.0,0.0,0.0,0.0,0.0,0.0,2.9209,2.8704,2.7409,2.6519,2.6026,0.0,0.0,0.0,0.0,0.0,0.0,0.0,0.0,0.0,0.0,0.0,0.0,0.0,0.0,0.0,0.0,0.0,0.0,0.0,0.0,0.0,0.0,0.0,0.0,0.0,0.0,0.0,0.0,0.0,0.0,0.0,0.0,0.0,0.0,0.0,0.0,0.0,0.0,0.0,0.0,0.0,0.0,0.0,0.0,0.0,0.0,0.0,0.0,0.0,0.0,0.0,0.0,0.0,0.0,0.0,0.0,0.0,0.0,0.0,0.0,0.0,0.0,0.0,0.0,0.0,0.0,0.0,0.0,0.0,0.0,0.0,0.0,0.0,0.0,0.0,0.0,0.0,0.0,0.0,0.0,0.0,0.0,0.0,0.0,0.0,0.0,0.0,0.0,0.0,0.0,0.0,0.0,0.0,0.0,0.0,0.0,0.0,0.0,0.0,0.0,0.0,0.0,0.0,0.0,0.0,0.0,0.0,0.0,0.0,0.0,0.0,0.0,2.8118,2.7003,2.5778,0.0,0.0,0.0,0.0,0.0,0.0,0.0,0.0,0.0,0.0,0.0,0.0,0.0,0.0,0.0,0.0,0.0,0.0,0.0,0.0,0.0,0.0,0.0,0.0,0.0,0.0,0.0,0.0,0.0,0.0,0.0,0.0,0.0,0.0,0.0,0.0,0.0,0.0,0.0,0.0,0.0,0.0,0.0,0.0,0.0,0.0,0.0,0.0,0.0,0.0,0.0,0.0,0.0,0.0,0.0,0.0,0.0,0.0,0.0,0.0,0.0,0.0,0.0,0.0,0.0,0.0,0.0,0.0,0.0,0.0,0.0,0.0,0.0,0.0,0.0,0.0,0.0,0.0,0.0,0.0,0.0,0.0,0.0,0.0,0.0,0.0,0.0,0.0,0.0,0.0,0.0,0.0,0.0,0.0,0.0,0.0,0.0,0.0,0.0,0.0,0.0,0.0,0.0,0.0,0.0,0.0,0.0,0.0,0.0,0.0,3.0049,2.9973,2.9001,0.0,2.4948,0.0,0.0,0.0,0.0,0.0,0.0,0.0,0.0,0.0,0.0,0.0,0.0,0.0,0.0,0.0,0.0,0.0,0.0,0.0,0.0,0.0,0.0,0.0,0.0,0.0,0.0,0.0,0.0,0.0,0.0,0.0,0.0,0.0,0.0,0.0,0.0,0.0,0.0,0.0,0.0,0.0,0.0,0.0,0.0,0.0,0.0,0.0,0.0,0.0,0.0,0.0,0.0,0.0,0.0,0.0,0.0,0.0,0.0,0.0,0.0,0.0,0.0,0.0,0.0,0.0,0.0,0.0,0.0,0.0,0.0,0.0,0.0,0.0,0.0,0.0,0.0,0.0,0.0,0.0,0.0,0.0,0.0,0.0,0.0,0.0,0.0,0.0,0.0,0.0,0.0,0.0,0.0,0.0,0.0,0.0,0.0,0.0,0.0,0.0,0.0,0.0,0.0,0.0,0.0,0.0,0.0,0.0,0.0,0.0,0.0,3.0087,3.0038,2.8588,2.7094,0.0,0.0,0.0,0.0,0.0,0.0,0.0,0.0,0.0,0.0,0.0,0.0,0.0,0.0,0.0,0.0,0.0,0.0,0.0,0.0,0.0,0.0,0.0,0.0,0.0,0.0,0.0,0.0,0.0,0.0,0.0,0.0,0.0,0.0,0.0,0.0,0.0,0.0,0.0,0.0,0.0,0.0,0.0,0.0,0.0,0.0,0.0,0.0,0.0,0.0,0.0,0.0,0.0,0.0,0.0,0.0,0.0,0.0,0.0,0.0,0.0,0.0,0.0,0.0,0.0,0.0,0.0,0.0,0.0,0.0,0.0,0.0,0.0,0.0,0.0,0.0,0.0,0.0,0.0,0.0,0.0,0.0,0.0,0.0,0.0,0.0,0.0,0.0,0.0,0.0,0.0,0.0,0.0,0.0,0.0,0.0,0.0,0.0,0.0,0.0,0.0,0.0,0.0,0.0,0.0,0.0,0.0,0.0,0.0,0.0,2.9131,2.981,2.9864,2.8234,2.7003,2.6352,0.0,0.0,0.0,0.0,0.0,0.0,0.0,0.0,0.0,0.0,0.0,0.0,0.0,0.0,0.0,0.0,0.0,0.0,0.0,0.0,0.0,0.0,0.0,0.0,0.0,0.0,0.0,0.0,0.0,0.0,0.0,0.0,0.0,0.0,0.0,0.0,0.0,0.0,0.0,0.0,0.0,0.0,0.0,0.0,0.0,0.0,0.0,0.0,0.0,0.0,0.0,0.0,0.0,0.0,0.0,0.0,0.0,0.0,0.0,0.0,0.0,0.0,0.0,0.0,0.0,0.0,0.0,0.0,0.0,0.0,0.0,0.0,0.0,0.0,0.0,0.0,0.0,0.0,0.0,0.0,0.0,0.0,0.0,0.0,0.0,0.0,0.0,0.0,0.0,0.0,0.0,0.0,0.0,0.0,0.0,0.0,0.0,0.0,0.0,0.0,0.0,0.0,0.0,0.0,0.0,0.0,0.0,0.0,2.8396,2.8736,2.9159,2.9769,2.8171,2.7253,0.0,0.0,0.0,0.0,0.0,0.0,0.0,0.0,0.0,0.0,0.0,0.0,0.0,0.0,0.0,0.0,0.0,0.0,0.0,0.0,0.0,0.0,0.0,0.0,0.0,0.0,0.0,0.0,0.0,0.0,0.0,0.0,0.0,0.0,0.0,0.0,0.0,0.0,0.0,0.0,0.0,0.0,0.0,0.0,0.0,0.0,0.0,0.0,0.0,0.0,0.0,0.0,0.0,0.0,0.0,0.0,0.0,0.0,0.0,0.0,0.0,0.0,0.0,0.0,0.0,0.0,0.0,0.0,0.0,0.0,0.0,0.0,0.0,0.0,0.0,0.0,0.0,0.0,0.0,0.0,0.0,0.0,0.0,0.0,0.0,0.0,0.0,0.0,0.0,0.0,0.0,0.0,0.0,0.0,0.0,0.0,0.0,0.0,0.0,0.0,0.0,0.0,0.0,0.0,0.0,0.0,0.0,0.0,0.0,2.7969,2.8965,2.962,2.9803,2.8185,2.704,0.0,0.0,0.0,0.0,0.0,0.0,0.0,0.0,0.0,0.0,0.0,0.0,0.0,0.0,0.0,0.0,0.0,0.0,0.0,0.0,0.0,0.0,0.0,0.0,0.0,0.0,0.0,0.0,0.0,0.0,0.0,0.0,0.0,0.0,0.0,0.0,0.0,0.0,0.0,0.0,0.0,0.0,0.0,0.0,0.0,0.0,0.0,0.0,0.0,0.0,0.0,0.0,0.0,0.0,0.0,0.0,0.0,0.0,0.0,0.0,0.0,0.0,0.0,0.0,0.0,0.0,0.0,0.0,0.0,0.0,0.0,0.0,0.0,0.0,0.0,0.0,0.0,0.0,0.0,0.0,0.0,0.0,0.0,0.0,0.0,0.0,0.0,0.0,0.0,0.0,0.0,0.0,0.0,0.0,0.0,0.0,0.0,0.0,0.0,0.0,0.0,0.0,0.0,0.0,0.0,0.0,0.0,0.0,0.0,2.7605,0.0,2.9857,2.9786,2.8169,2.6874,0.0,0.0,0.0,0.0,0.0,0.0,0.0,0.0,0.0,0.0,0.0,0.0,0.0,0.0,0.0,0.0,0.0,0.0,0.0,0.0,0.0,0.0,0.0,0.0,0.0,0.0,0.0,0.0,0.0,0.0,0.0,0.0,0.0,0.0,0.0,0.0,0.0,0.0,0.0,0.0,0.0,0.0,0.0,0.0,0.0,0.0,0.0,0.0,0.0,0.0,0.0,0.0,0.0,0.0,0.0,0.0,0.0,0.0,0.0,0.0,0.0,0.0,0.0,0.0,0.0,0.0,0.0,0.0,0.0,0.0,0.0,0.0,0.0,0.0,0.0,0.0,0.0,0.0,0.0,0.0,0.0,0.0,0.0,0.0,0.0,0.0,0.0,0.0,0.0,0.0,0.0,0.0,0.0,0.0,0.0,0.0,0.0,0.0,0.0,0.0,0.0,0.0,0.0,0.0,0.0,0.0,0.0,0.0,2.5275,2.7485,2.9047,2.9828,2.9698,2.8122,2.6846,0.0,0.0,0.0,0.0,0.0,0.0,0.0,0.0,0.0,0.0,0.0,0.0,0.0,0.0,0.0,0.0,0.0,0.0,0.0,0.0,0.0,0.0,0.0,0.0,0.0,0.0,0.0,0.0,0.0,0.0,0.0,0.0,0.0,0.0,0.0,0.0,0.0,0.0,0.0,0.0,0.0,0.0,0.0,0.0,0.0,0.0,0.0,0.0,0.0,0.0,0.0,0.0,0.0,0.0,0.0,0.0,0.0,0.0,0.0,0.0,0.0,0.0,0.0,0.0,0.0,0.0,0.0,0.0,0.0,0.0,0.0,0.0,0.0,0.0,0.0,0.0,0.0,0.0,0.0,0.0,0.0,0.0,0.0,0.0,0.0,0.0,0.0,0.0,0.0,0.0,0.0,0.0,0.0,0.0,0.0,0.0,0.0,0.0,0.0,0.0,0.0,0.0,0.0,0.0,0.0,0.0,0.0,0.0,0.0,2.9131,3.0179,3.0657,3.0546,2.902,2.7215,0.0,0.0,0.0,0.0,0.0,0.0,0.0,0.0,0.0,0.0,0.0,0.0,0.0,0.0,0.0,0.0,0.0,0.0,0.0,0.0,0.0,0.0,0.0,0.0,0.0,0.0,0.0,0.0,0.0,0.0,0.0,0.0,0.0,0.0,0.0,0.0,0.0,0.0,0.0,0.0,0.0,0.0,0.0,0.0,0.0,0.0,0.0,0.0,0.0,0.0,0.0,0.0,0.0,0.0,0.0,0.0,0.0,0.0,0.0,0.0,0.0,0.0,0.0,0.0,0.0,0.0,0.0,0.0,0.0,0.0,0.0,0.0,0.0,0.0,0.0,0.0,0.0,0.0,0.0,0.0,0.0,0.0,0.0,0.0,0.0,0.0,0.0,0.0,0.0,0.0,0.0,0.0,0.0,0.0,0.0,0.0,0.0,0.0,0.0,0.0,0.0,0.0,0.0,0.0,0.0,0.0,0.0,0.0,0.0,3.1054,3.1318,3.1223,3.0824,2.927,2.7412,2.5239,0.0,0.0,0.0,0.0,0.0,0.0,0.0,0.0,0.0,0.0,0.0,0.0,0.0,0.0,0.0,0.0,0.0,0.0,0.0,0.0,0.0,0.0,0.0,0.0,0.0,0.0,0.0,0.0,0.0,0.0,0.0,0.0,0.0,0.0,0.0,0.0,0.0,0.0,0.0,0.0,0.0,0.0,0.0,0.0,0.0,0.0,0.0,0.0,0.0,0.0,0.0,0.0,0.0,0.0,0.0,0.0,0.0,0.0,0.0,0.0,0.0,0.0,0.0,0.0,0.0,0.0,0.0,0.0,0.0,0.0,0.0,0.0,0.0,0.0,0.0,0.0,0.0,0.0,0.0,0.0,0.0,0.0,0.0,0.0,0.0,0.0,0.0,0.0,0.0,0.0,0.0,0.0,0.0,0.0,0.0,0.0,0.0,0.0,0.0,0.0,0.0,0.0,0.0,0.0,0.0,0.0,0.0,0.0,3.3194,3.2577,3.1781,3.0757,2.9258,2.7605,0.0,0.0,0.0,0.0,0.0,0.0,0.0,0.0,0.0,0.0,0.0,0.0,0.0,0.0,0.0,0.0,0.0,0.0,0.0,0.0,0.0,0.0,0.0,0.0,0.0,0.0,0.0,0.0,0.0,0.0,0.0,0.0,0.0,0.0,0.0,0.0,0.0,0.0,0.0,0.0,0.0,0.0,0.0,0.0,0.0,0.0,0.0,0.0,0.0,0.0,0.0,0.0,0.0,0.0,0.0,0.0,0.0,0.0,0.0,0.0,0.0,0.0,0.0,0.0,0.0,0.0,0.0,0.0,0.0,0.0,0.0,0.0,0.0,0.0,0.0,0.0,0.0,0.0,0.0,0.0,0.0,0.0,0.0,0.0,0.0,0.0,0.0,0.0,0.0,0.0,0.0,0.0,0.0,0.0,0.0,0.0,0.0,0.0,0.0,0.0,0.0,0.0,0.0,0.0,0.0,0.0,0.0,0.0,0.0,3.363,3.4565,3.4392,3.3136,3.1621,2.9474,0.0,0.0,0.0,0.0,0.0,0.0,0.0,0.0,0.0,0.0,0.0,0.0,0.0,0.0,0.0,0.0,0.0,0.0,0.0,0.0,0.0,0.0,0.0,0.0,0.0,0.0,0.0,0.0,0.0,0.0,0.0,0.0,0.0,0.0,0.0,0.0,0.0,0.0,0.0,0.0,0.0,0.0,0.0,0.0,0.0,0.0,0.0,0.0,0.0,0.0,0.0,0.0,0.0,0.0,0.0,0.0,0.0,0.0,0.0,0.0,0.0,0.0,0.0,0.0,0.0,0.0,0.0,0.0,0.0,0.0,0.0,0.0,0.0,0.0,0.0,0.0,0.0,0.0,0.0,0.0,0.0,0.0,0.0,0.0,0.0,0.0,0.0,0.0,0.0,0.0,0.0,0.0,0.0,0.0,0.0,0.0,0.0,0.0,0.0,0.0,0.0,0.0,0.0,0.0,0.0,0.0,0.0,0.0,3.1974,3.4211,3.5617,3.5908,3.5166,3.2761,3.0115,0.0,0.0,0.0,0.0,0.0,0.0,0.0,0.0,0.0,0.0,0.0,0.0,0.0,0.0,0.0,0.0,0.0,0.0,0.0,0.0,0.0,0.0,0.0,0.0,0.0,0.0,0.0,0.0,0.0,0.0,0.0,0.0,0.0,0.0,0.0,0.0,0.0,0.0,0.0,0.0,0.0,0.0,0.0,0.0,0.0,0.0,0.0,0.0,0.0,0.0,0.0,0.0,0.0,0.0,0.0,0.0,0.0,0.0,0.0,0.0,0.0,0.0,0.0,0.0,0.0,0.0,0.0,0.0,0.0,0.0,0.0,0.0,0.0,0.0,0.0,0.0,0.0,0.0,0.0,0.0,0.0,0.0,0.0,0.0,0.0,0.0,0.0,0.0,0.0,0.0,0.0,0.0,0.0,0.0,0.0,0.0,0.0,0.0,0.0,0.0,0.0,0.0,0.0,0.0,0.0,0.0,0.0,0.0,3.2438,3.4779,3.602,3.6627,3.6518,3.3225,3.0337,0.0,0.0,0.0,0.0,0.0,0.0,0.0,0.0,0.0,0.0,0.0,0.0,0.0,0.0,0.0,0.0,0.0,0.0,0.0,0.0,0.0,0.0,0.0,0.0,0.0,0.0,0.0,0.0,0.0,0.0,0.0,0.0,0.0,0.0,0.0,0.0,0.0,0.0,0.0,0.0,0.0,0.0,0.0,0.0,0.0,0.0,0.0,0.0,0.0,0.0,0.0,0.0,0.0,0.0,0.0,0.0,0.0,0.0,0.0,0.0,0.0,0.0,0.0,0.0,0.0,0.0,0.0,0.0,0.0,0.0,0.0,0.0,0.0,0.0,0.0,0.0,0.0,0.0,0.0,0.0,0.0,0.0,0.0,0.0,0.0,0.0,0.0,0.0,0.0,0.0,0.0,0.0,0.0,0.0,0.0,0.0,0.0,0.0,0.0,0.0,0.0,0.0,0.0,0.0,0.0,0.0,0.0,0.0,3.2745,3.4996,3.631,3.6675,3.6,3.4431,3.2463,0.0,0.0,0.0,0.0,0.0,0.0,0.0,0.0,0.0,0.0,0.0,0.0,0.0,0.0,0.0,0.0,0.0,0.0,0.0,0.0,0.0,0.0,0.0,0.0,0.0,0.0,0.0,0.0,0.0,0.0,0.0,0.0,0.0,0.0,0.0,0.0,0.0,0.0,0.0,0.0,0.0,0.0,0.0,0.0,0.0,0.0,0.0,0.0,2.0285,0.0,0.0,0.0,0.0,0.0,0.0,0.0,0.0,0.0,0.0,0.0,0.0,0.0,0.0,0.0,0.0,0.0,0.0,0.0,0.0,0.0,0.0,0.0,0.0,0.0,0.0,0.0,0.0,0.0,0.0,0.0,0.0,0.0,0.0,0.0,0.0,0.0,0.0,0.0,0.0,0.0,0.0,0.0,0.0,0.0,0.0,0.0,0.0,0.0,0.0,0.0,0.0,0.0,0.0,0.0,0.0,0.0,0.0,0.0,3.2922,3.4783,3.605,3.6387,3.5619,3.432,3.2449,0.0,0.0,0.0,0.0,0.0,0.0,0.0,0.0,0.0,0.0,0.0,0.0,0.0,0.0,0.0,0.0,0.0,0.0,0.0,0.0,0.0,0.0,0.0,0.0,0.0,0.0,0.0,0.0,0.0,0.0,0.0,0.0,0.0,0.0,0.0,0.0,0.0,0.0,0.0,0.0,0.0,0.0,0.0,0.0,0.0,0.0,0.0,0.0,0.0,0.0,0.0,0.0,0.0,0.0,0.0,0.0,0.0,0.0,0.0,0.0,0.0,0.0,0.0,0.0,0.0,0.0,0.0,0.0,0.0,0.0,0.0,0.0,0.0,0.0,0.0,0.0,0.0,0.0,0.0,0.0,0.0,0.0,0.0,0.0,0.0,0.0,0.0,0.0,0.0,0.0,0.0,0.0,0.0,0.0,0.0,0.0,0.0,0.0,0.0,0.0,0.0,0.0,0.0,0.0,0.0,0.0,0.0,3.075,3.2896,3.4318,3.5549,3.5897,3.5261,3.3658,3.1545,2.8819,0.0,0.0,0.0,0.0,0.0,0.0,0.0,0.0,0.0,0.0,0.0,0.0,0.0,0.0,0.0,0.0,0.0,0.0,0.0,0.0,0.0,0.0,0.0,0.0,0.0,0.0,0.0,0.0,0.0,0.0,0.0,0.0,0.0,0.0,0.0,0.0,0.0,0.0,2.5355,2.6098,0.0,0.0,0.0,0.0,0.0,0.0,0.0,0.0,1.9538,0.0,0.0,0.0,0.0,0.0,0.0,0.0,0.0,0.0,0.0,0.0,0.0,0.0,0.0,0.0,0.0,0.0,0.0,0.0,0.0,0.0,0.0,0.0,0.0,0.0,0.0,0.0,0.0,0.0,0.0,0.0,0.0,0.0,0.0,0.0,0.0,0.0,0.0,0.0,0.0,0.0,0.0,0.0,0.0,0.0,0.0,0.0,0.0,0.0,0.0,0.0,0.0,0.0,0.0,0.0,0.0,2.7566,3.0266,3.2303,3.3652,3.5001,3.5399,3.4661,3.3175,3.1062,2.8237,0.0,0.0,0.0,0.0,0.0,0.0,0.0,0.0,0.0,0.0,0.0,0.0,0.0,0.0,0.0,0.0,0.0,0.0,0.0,0.0,0.0,0.0,0.0,0.0,0.0,0.0,0.0,0.0,0.0,0.0,0.0,0.0,0.0,0.0,0.0,0.0,0.0,0.0,0.0,2.6253,2.7041,0.0,0.0,0.0,0.0,0.0,0.0,0.0,0.0,1.8644,0.0,0.0,0.0,0.0,0.0,0.0,0.0,0.0,0.0,0.0,0.0,0.0,0.0,0.0,0.0,0.0,0.0,0.0,0.0,0.0,0.0,0.0,0.0,0.0,0.0,0.0,0.0,0.0,0.0,0.0,0.0,0.0,0.0,0.0,0.0,0.0,0.0,0.0,0.0,0.0,0.0,0.0,0.0,0.0,0.0,0.0,0.0,0.0,0.0,0.0,0.0,0.0,0.0,0.0,0.0,2.7063,2.9748,3.1827,3.3169,3.4253,3.4427,3.3758,3.1958,3.0032,0.0,0.0,0.0,0.0,0.0,0.0,0.0,0.0,0.0,0.0,0.0,0.0,0.0,0.0,0.0,0.0,0.0,0.0,0.0,0.0,0.0,0.0,0.0,0.0,0.0,0.0,0.0,0.0,0.0,0.0,0.0,0.0,0.0,0.0,0.0,0.0,0.0,0.0,0.0,0.0,2.6824,2.7886,2.8278,0.0,0.0,0.0,0.0,0.0,0.0,2.0566,1.9216,0.0,0.0,0.0,0.0,0.0,0.0,0.0,0.0,0.0,0.0,0.0,0.0,0.0,0.0,0.0,0.0,0.0,0.0,0.0,0.0,0.0,0.0,0.0,0.0,0.0,0.0,0.0,0.0,0.0,0.0,0.0,0.0,0.0,0.0,0.0,0.0,0.0,0.0,0.0,0.0,0.0,0.0,0.0,0.0,0.0,0.0,0.0,0.0,0.0,0.0,0.0,0.0,0.0,0.0,0.0,2.6556,2.9104,3.1116,3.2503,3.3283,3.3333,3.2734,3.0749,2.9135,0.0,0.0,0.0,0.0,0.0,0.0,0.0,0.0,0.0,0.0,0.0,0.0,0.0,0.0,0.0,0.0,0.0,0.0,0.0,0.0,0.0,0.0,0.0,0.0,0.0,0.0,0.0,0.0,0.0,0.0,0.0,0.0,0.0,0.0,0.0,0.0,0.0,0.0,0.0,0.0,0.0,2.864,2.9868,2.9322,0.0,0.0,0.0,0.0,2.3045,2.131,0.0,0.0,0.0,0.0,0.0,0.0,0.0,0.0,0.0,0.0,0.0,0.0,0.0,0.0,0.0,0.0,0.0,0.0,0.0,0.0,0.0,0.0,0.0,0.0,0.0,0.0,0.0,0.0,0.0,0.0,0.0,0.0,0.0,0.0,0.0,0.0,0.0,0.0,0.0,0.0,0.0,0.0,0.0,0.0,0.0,0.0,0.0,0.0,0.0,0.0,0.0,0.0,0.0,0.0,0.0,0.0,2.621,2.8122,2.9852,3.1258,3.2043,3.2122,3.1506,3.0112,2.881,0.0,0.0,0.0,0.0,0.0,0.0,0.0,0.0,0.0,0.0,0.0,0.0,0.0,0.0,0.0,0.0,0.0,0.0,0.0,0.0,0.0,0.0,0.0,0.0,0.0,0.0,0.0,0.0,0.0,0.0,0.0,0.0,0.0,0.0,0.0,0.0,0.0,0.0,0.0,0.0,0.0,2.8683,3.0005,3.0366,3.0336,0.0,0.0,2.6951,2.3799,2.1553,0.0,0.0,0.0,0.0,0.0,0.0,0.0,0.0,0.0,0.0,0.0,0.0,0.0,0.0,0.0,0.0,0.0,0.0,0.0,0.0,0.0,0.0,0.0,0.0,0.0,0.0,0.0,0.0,0.0,0.0,0.0,0.0,0.0,0.0,0.0,0.0,0.0,0.0,0.0,0.0,0.0,0.0,0.0,0.0,0.0,0.0,0.0,0.0,0.0,0.0,0.0,0.0,0.0,0.0,0.0,2.28,2.4977,2.7185,2.8922,3.0113,3.0838,3.1024,3.0505,2.8796,2.7525,0.0,0.0,0.0,0.0,0.0,0.0,0.0,0.0,0.0,0.0,0.0,0.0,0.0,0.0,0.0,0.0,0.0,0.0,0.0,0.0,0.0,0.0,0.0,0.0,0.0,0.0,0.0,0.0,0.0,0.0,0.0,0.0,0.0,0.0,0.0,0.0,0.0,0.0,0.0,0.0,0.0,0.0,3.0917,3.1448,0.0,0.0,0.0,2.7799,2.4669,0.0,0.0,0.0,0.0,0.0,0.0,0.0,0.0,0.0,0.0,0.0,0.0,0.0,0.0,0.0,0.0,0.0,0.0,0.0,0.0,0.0,0.0,0.0,0.0,0.0,0.0,0.0,0.0,0.0,0.0,0.0,0.0,0.0,0.0,0.0,0.0,0.0,0.0,0.0,0.0,0.0,0.0,0.0,0.0,0.0,0.0,0.0,0.0,0.0,0.0,0.0,0.0,0.0,0.0,0.0,0.0,0.0,2.4042,2.602,2.7554,2.8722,2.9243,2.9441,2.9194,2.7413,0.0,0.0,0.0,0.0,0.0,0.0,0.0,0.0,0.0,0.0,0.0,0.0,0.0,0.0,0.0,0.0,0.0,0.0,0.0,0.0,0.0,0.0,0.0,0.0,0.0,0.0,0.0,1.4806,0.0,0.0,0.0,0.0,0.0,0.0,0.0,0.0,0.0,0.0,0.0,0.0,0.0,0.0,3.0307,3.1485,3.2116,3.2594,0.0,0.0,2.8513,2.5631,2.2825,2.0119,0.0,0.0,0.0,0.0,0.0,0.0,0.0,0.0,0.0,0.0,0.0,0.0,0.0,0.0,0.0,0.0,0.0,0.0,0.0,0.0,0.0,0.0,0.0,0.0,0.0,0.0,0.0,0.0,0.0,0.0,0.0,0.0,0.0,0.0,0.0,0.0,0.0,0.0,0.0,0.0,0.0,0.0,0.0,0.0,0.0,0.0,0.0,0.0,0.0,0.0,0.0,0.0,0.0,0.0,0.0,2.3827,2.4382,2.5416,2.6794,2.6938,2.7064,2.7248,2.6046,2.4974,0.0,0.0,0.0,0.0,0.0,0.0,0.0,0.0,0.0,0.0,0.0,0.0,0.0,0.0,0.0,0.0,0.0,0.0,0.0,0.0,0.0,0.0,0.0,0.0,0.0,0.0,0.0,0.0,0.0,0.0,0.0,0.0,0.0,0.0,0.0,0.0,0.0,0.0,0.0,0.0,0.0,2.9964,3.1083,3.2006,3.2462,0.0,0.0,2.9219,2.6611,2.333,2.0412,1.8544,0.0,0.0,0.0,0.0,0.0,0.0,0.0,0.0,0.0,0.0,0.0,0.0,0.0,0.0,0.0,0.0,0.0,0.0,0.0,0.0,0.0,0.0,0.0,0.0,0.0,0.0,0.0,0.0,0.0,0.0,0.0,0.0,0.0,0.0,0.0,0.0,0.0,0.0,0.0,0.0,0.0,0.0,0.0,0.0,0.0,0.0,0.0,0.0,0.0,0.0,0.0,0.0,0.0,2.1106,2.2656,2.3969,2.4948,2.5509,2.6103,2.6251,2.5991,2.4885,2.391,0.0,0.0,0.0,0.0,0.0,0.0,0.0,0.0,0.0,0.0,0.0,0.0,0.0,0.0,0.0,0.0,0.0,0.0,0.0,0.0,0.0,0.0,0.0,0.0,0.0,0.0,0.0,0.0,1.5935,1.6515,1.7241,0.0,0.0,0.0,0.0,0.0,0.0,0.0,0.0,0.0,0.0,3.1594,3.1963,3.3031,0.0,0.0,3.1293,2.9059,2.6195,2.3171,2.0334,1.7959,1.6204,0.0,0.0,0.0,0.0,0.0,0.0,0.0,0.0,0.0,0.0,0.0,0.0,0.0,0.0,0.0,0.0,0.0,0.0,0.0,0.0,0.0,0.0,0.0,0.0,0.0,0.0,0.0,0.0,0.0,0.0,0.0,0.0,0.0,0.0,0.0,0.0,0.0,0.0,0.0,0.0,0.0,0.0,0.0,0.0,0.0,0.0,0.0,0.0,0.0,0.0,0.0,0.0,2.0786,2.187,2.3379,2.4219,2.4438,2.5089,2.5284,2.4879,2.3767,2.2933,0.0,0.0,0.0,0.0,0.0,0.0,0.0,0.0,0.0,0.0,0.0,0.0,0.0,0.0,0.0,0.0,0.0,0.0,0.0,0.0,0.0,0.0,0.0,0.0,0.0,0.0,0.0,0.0,1.6146,1.6762,1.7554,0.0,0.0,0.0,0.0,0.0,0.0,0.0,0.0,0.0,0.0,3.199,3.1956,3.2806,3.3148,3.2229,3.0437,2.8234,2.5636,2.2923,2.0228,1.7751,0.0,0.0,0.0,0.0,0.0,0.0,0.0,0.0,0.0,0.0,0.0,0.0,0.0,0.0,0.0,0.0,0.0,0.0,0.0,0.0,0.0,0.0,0.0,0.0,0.0,0.0,0.0,0.0,0.0,0.0,1.8861,0.0,0.0,0.0,0.0,0.0,0.0,0.0,0.0,0.0,0.0,0.0,0.0,0.0,0.0,0.0,0.0,0.0,0.0,0.0,0.0,0.0,0.0,2.0326,2.1866,2.2379,2.2942,2.361,2.364,2.3799,2.3982,2.2812,2.2133,2.2026,0.0,0.0,0.0,0.0,0.0,0.0,0.0,0.0,0.0,0.0,0.0,0.0,0.0,0.0,0.0,0.0,0.0,0.0,0.0,0.0,0.0,0.0,0.0,0.0,0.0,0.0,1.6662,1.6746,1.6958,0.0,0.0,0.0,0.0,0.0,0.0,0.0,0.0,0.0,0.0,3.0552,3.0429,3.0578,3.0743,3.0469,2.9377,2.803,2.6611,2.5063,2.2578,2.0159,0.0,0.0,0.0,0.0,0.0,0.0,0.0,0.0,0.0,0.0,0.0,0.0,0.0,0.0,0.0,0.0,0.0,0.0,0.0,0.0,0.0,0.0,0.0,0.0,0.0,0.0,0.0,1.9057,1.9714,0.0,0.0,0.0,0.0,0.0,0.0,0.0,0.0,0.0,0.0,0.0,1.8865,2.0,0.0,0.0,0.0,0.0,0.0,0.0,0.0,0.0,0.0,0.0,0.0,0.0,2.1084,2.2186,2.2772,2.3141,2.3392,2.3494,2.3387,2.3137,2.233,2.1054,1.9314,0.0,0.0,0.0,0.0,0.0,0.0,0.0,0.0,0.0,0.0,0.0,0.0,0.0,0.0,0.0,0.0,0.0,0.0,0.0,0.0,0.0,0.0,0.0,0.0,0.0,1.7239,0.0,0.0,0.0,0.0,0.0,0.0,0.0,0.0,0.0,0.0,0.0,2.7717,2.8417,2.8819,2.8863,2.8412,2.8273,2.7892,0.0,0.0,0.0,0.0,0.0,0.0,0.0,0.0,0.0,0.0,0.0,0.0,0.0,0.0,0.901,1.0295,1.0531,1.0493,1.0572,0.0,0.0,0.0,0.0,0.0,0.0,0.0,0.0,0.0,0.0,0.0,0.0,0.0,0.0,1.9641,0.0,1.9698,0.0,0.0,0.0,0.0,0.0,0.0,0.0,0.0,1.9267,1.9057,1.8485,1.8943,1.939,0.0,1.9987,1.9914,0.0,0.0,0.0,0.0,0.0,0.0,0.0,0.0,2.1428,2.2189,2.2773,2.3127,2.3172,2.3319,2.3154,2.264,2.1839,2.0287,1.7805,1.7842,1.7362,0.0,0.0,0.0,0.0,0.0,0.0,0.0,0.0,0.0,0.0,0.0,0.0,0.0,0.0,0.0,0.0,0.0,0.0,0.0,0.0,0.0,0.0,0.0,1.7287,0.0,0.0,0.0,0.0,0.0,0.0,0.0,0.0,0.0,2.53,2.5768,2.5966,2.5801,2.5731,2.5469,2.461,0.0,0.0,0.0,0.0,0.0,0.0,0.0,1.6393,1.5114,1.3647,1.2116,1.0327,0.8681,0.7347,0.6698,0.0,0.0,0.754,0.7717,0.7677,0.779,0.7715,0.7649,0.7581,0.7583,0.7475,0.0,0.0,0.0,0.0,0.0,0.0,0.0,0.0,2.0691,2.0142,0.0,1.942,0.0,0.0,0.0,0.0,0.0,1.9723,0.0,0.0,1.8845,1.8657,1.7948,1.7447,1.734,1.7646,1.8486,1.8783,1.8675,1.9069,0.0,0.0,0.0,0.0,0.0,0.0,2.1345,2.1913,2.2409,2.274,2.2889,2.3127,2.2994,2.2456,2.1287,1.9677,1.7718,1.765,1.7369,1.6682,1.6909,0.0,0.0,0.0,0.0,0.0,0.0,0.0,0.0,0.0,0.0,0.0,0.0,0.0,0.0,0.0,0.0,0.0,0.0,0.0,0.0,1.6769,0.0,0.0,0.0,0.0,0.0,0.0,0.0,0.0,0.0,0.0,2.348,2.3802,2.3609,2.2746,0.0,0.0,0.0,0.0,1.7687,1.6792,1.6338,1.5993,1.5758,1.4754,1.3742,1.321,0.0,0.0,0.8064,0.6952,0.6207,0.5512,0.4864,0.4624,0.5374,0.5327,0.5178,0.5178,0.537,0.5553,0.5604,0.555,0.5424,2.0793,0.0,0.0,0.0,0.0,2.2232,2.2462,2.1729,1.9317,1.9189,2.0664,2.024,0.0,0.0,0.0,0.0,0.0,0.0,1.8475,1.7932,1.7796,1.7635,1.7378,1.636,1.5991,1.61,1.7156,1.7519,1.7155,1.7557,1.8029,1.8609,0.0,0.0,0.0,0.0,2.0993,2.1647,2.2016,2.2356,2.2601,2.2859,2.2615,2.1724,2.0425,1.9036,1.7541,1.7581,1.7094,1.5936,1.6548,0.0,0.0,0.0,0.0,0.0,0.0,0.0,0.0,0.0,0.0,0.0,0.0,0.0,0.0,0.0,0.0,0.0,0.0,0.0,1.7219,1.7313,1.738,0.0,0.0,0.0,0.0,0.0,0.0,0.0,0.0,0.0,1.9257,1.9713,1.9319,0.0,0.0,1.4174,1.3082,1.347,1.3353,1.1973,1.2016,0.0,1.1667,1.1146,1.0729,1.0478,0.9342,0.8133,0.7295,0.6506,0.5839,0.5156,0.4603,0.4131,0.3765,0.365,0.3579,0.3554,0.3459,0.3489,0.3839,0.3854,0.3886,2.0734,1.9433,2.028,2.0498,2.0446,2.0896,2.1121,2.0967,1.8598,1.8788,2.0753,2.0631,2.057,2.0613,2.0498,0.0,0.0,0.0,1.7912,1.7243,1.7224,1.7025,1.6608,1.5446,1.4783,1.4716,1.5827,1.6088,1.5533,1.6201,1.6692,1.7181,0.0,0.0,1.9952,1.9982,2.0312,2.0824,2.1245,2.1623,2.1969,2.1981,2.1729,2.117,1.9938,1.8768,1.7773,1.7581,1.7131,1.6332,1.6667,1.6834,0.0,0.0,0.0,0.0,0.0,0.0,0.0,0.0,0.0,0.0,0.0,1.6149,1.6327,0.0,0.0,0.0,1.6332,1.6715,1.7468,1.7446,0.0,0.0,0.0,0.0,0.0,0.0,0.0,1.884,1.86,1.7716,1.5638,1.5358,1.4488,1.2246,0.9933,0.8099,0.7053,0.0,0.8211,0.7168,0.7381,0.7877,0.8203,0.7991,0.7829,0.7885,0.7223,0.6609,0.6524,0.6011,0.5422,0.5002,0.4468,0.3903,0.3301,0.2967,0.2671,0.2543,0.231,0.231,0.2624,0.2647,0.2829,2.0543,1.839,1.9246,1.9465,1.9292,1.8952,1.8895,1.8829,1.8212,1.859,1.9675,2.0408,2.0321,1.9573,1.9508,0.0,1.8649,1.8302,1.7524,1.6438,1.6864,1.6622,1.5742,1.4523,1.3756,1.3534,1.4554,1.4676,1.4052,1.4955,1.5233,1.4897,1.6713,1.8092,1.877,1.9024,1.927,1.9556,2.0143,2.0706,2.1161,2.0798,2.067,2.0811,1.9767,1.8933,1.8332,1.7861,1.7562,1.7556,1.7264,1.7331,1.7736,0.0,0.0,0.0,0.0,0.0,0.0,0.0,0.0,0.0,0.0,0.0,0.0,0.0,0.0,1.5962,1.6236,0.0,1.7424,1.7373,0.0,0.0,0.0,1.7739,1.7624,1.8305,1.8295,1.7043,0.0,0.0,1.2743,1.1164,0.9575,0.7681,0.4721,0.2376,0.156,0.2181,0.2565,0.278,0.313,0.3914,0.5254,0.5347,0.5333,0.5631,0.5397,0.5408,0.5637,0.5412,0.5016,0.4905,0.4503,0.4091,0.3632,0.3026,0.243,0.2038,0.1837,0.1698,0.1772,0.1879,0.2165,1.9849,1.8281,1.8047,1.7803,1.7595,1.7585,1.7667,1.7867,1.7129,1.7363,1.8239,1.9054,1.9382,1.9287,1.8623,1.8031,1.7545,1.7048,1.6331,1.5529,1.5708,1.5497,1.4768,1.3777,1.3211,1.3142,1.3648,1.3819,1.3612,1.4007,1.4186,1.4096,1.4792,1.5786,1.707,1.7368,1.772,1.8101,1.8891,1.9889,2.1002,2.0743,2.0692,2.0943,2.0259,1.9654,1.9208,1.9233,1.8861,1.8074,1.8584,1.8529,1.776,1.8026,0.0,0.0,0.0,0.0,0.0,0.0,0.0,0.0,0.0,1.7133,1.7156,0.0,1.687,0.0,1.7279,1.7275,1.7329,1.7542,0.0,0.0,1.7912,1.789,1.7564,1.764,1.7266,1.6156,1.507,1.3424,1.1009,0.8732,0.6479,0.396,0.1533,-0.0234,-0.0834,-0.145,-0.1213,0.044,0.1567,0.2255,0.3038,0.3637,0.4043,0.411,0.4135,0.4231,0.4406,0.457,0.4629,0.4573,0.4518,0.4235,0.3792,0.3312,0.2749,0.2209,0.1739,0.1365,0.1324,0.1458,0.1781,1.8928,1.7652,1.704,1.6563,1.6296,1.6779,1.7125,1.7258,1.6816,1.7163,1.8077,1.8633,1.8948,1.9056,1.8328,1.7682,1.7099,1.6494,1.5731,1.4935,1.497,1.4574,1.3839,1.313,1.2793,1.2801,1.3139,1.3216,1.3103,1.3346,1.3459,1.3476,1.37,1.4332,1.5255,1.5891,1.6404,1.6733,1.7818,1.9008,2.0219,2.0118,2.0174,2.0501,2.0079,1.9803,1.9684,1.9694,1.9398,1.8864,1.9155,1.9207,1.883,1.8538,1.8452,0.0,0.0,0.0,0.0,0.0,0.0,0.0,0.0,0.0,0.0,0.0,1.6675,1.6668,1.6777,1.6875,1.7044,1.7487,1.7689,1.7711,1.7619,1.7393,1.6859,1.6521,1.5886,1.4621,1.3298,1.167,0.9346,0.7267,0.4979,0.229,0.0837,-0.0429,-0.1645,-0.2281,-0.1958,-0.0272,0.0957,0.1796,0.2128,0.2586,0.2949,0.304,0.3124,0.3355,0.3708,0.3845,0.3978,0.42,0.4239,0.4128,0.391,0.3522,0.3077,0.2693,0.2159,0.1739,0.142,0.1489,0.1808,1.7956,1.6784,1.6117,1.5602,1.5282,1.6091,1.6567,1.6659,1.6711,1.7305,1.8206,1.8403,1.8598,1.8656,1.8123,1.7545,1.6842,1.6187,1.5381,1.4478,1.4357,1.3813,1.2952,1.2658,1.2597,1.2629,1.2858,1.2867,1.2683,1.2858,1.2989,1.2981,1.318,1.3424,1.3761,1.4647,1.5216,1.5613,1.6946,1.8167,1.915,1.9208,1.9402,1.9839,1.9721,1.9773,1.9997,1.985,1.9781,1.9792,1.9613,1.9735,2.0215,1.9055,1.8864,0.0,1.8859,0.0,0.0,0.0,0.0,0.0,0.0,0.0,0.0,1.6871,1.6017,1.5345,1.569,1.6134,1.6622,1.707,1.7446,1.7434,1.7176,1.6666,1.5891,1.5339,1.445,1.3044,1.1618,0.9925,0.7937,0.6274,0.4399,0.2295,0.1638,0.0845,-0.0879,-0.1263,-0.0841,0.0064,0.119,0.1972,0.1963,0.2086,0.2214,0.2228,0.235,0.2592,0.2974,0.3131,0.3275,0.3747,0.3831,0.3819,0.3971,0.3688,0.3469,0.3244,0.2916,0.2446,0.1839,0.1919,0.2194,1.7213,1.6095,1.5692,1.5033,1.4186,1.4164,1.4694,1.5545,1.587,1.6266,1.665,1.7233,1.7307,1.7038,1.6941,1.6616,1.6036,1.5342,1.4706,1.424,1.3606,1.305,1.2589,1.2312,1.2466,1.2915,1.2875,1.2911,1.2928,1.2867,1.2867,1.2981,1.305,1.3224,1.3571,0.0,0.0,0.0,1.6337,1.7113,1.7907,1.8502,1.9108,1.9648,1.985,0.0,2.0611,2.0914,2.1015,2.0904,2.1069,0.0,0.0,0.0,0.0,0.0,0.0,0.0,0.0,0.0,0.0,0.0,1.6376,1.6394,1.6456,1.6071,1.5673,1.5348,1.5585,1.5794,1.5896,1.6563,1.6759,1.633,1.6483,1.635,1.5519,1.4635,1.3576,1.2418,1.0551,0.8689,0.7079,0.5463,0.4195,0.3243,0.2839,0.2547,0.2268,0.1085,0.0568,0.115,0.1761,0.2089,0.1901,0.196,0.1914,0.1793,0.1594,0.1593,0.1755,0.2236,0.2713,0.3157,0.3487,0.3738,0.3816,0.3962,0.3962,0.3863,0.3858,0.3508,0.2371,0.2749,0.3384,1.6032,0.0,1.4825,1.4156,0.0,1.3388,1.3589,1.4159,1.4856,1.5326,1.5532,1.6235,1.6437,1.6254,1.609,1.5826,1.542,1.4951,1.4419,1.3821,1.3432,1.3014,1.2552,1.2274,1.2421,1.2993,1.2875,1.2858,1.2989,1.2928,1.2989,1.318,1.3119,1.3285,1.3511,1.3692,1.4291,1.5313,1.5575,1.612,1.6922,1.7633,1.8244,1.8845,1.9423,0.0,0.0,0.0,0.0,0.0,0.0,0.0,0.0,2.0478,0.0,2.0026,1.8742,1.7843,1.761,1.6679,1.6021,1.57,1.5012,1.4827,1.5255,1.5003,1.4654,1.4215,1.4428,1.4649,1.4783,1.527,1.5577,1.5446,1.5384,1.5153,1.4543,1.3661,1.2548,1.1353,0.9681,0.8049,0.6598,0.5346,0.44,0.3827,0.3667,0.3745,0.3853,0.3073,0.2359,0.2203,0.2183,0.214,0.1893,0.1722,0.1489,0.116,0.0838,0.0827,0.1052,0.1415,0.1887,0.2484,0.2958,0.3305,0.3649,0.3956,0.4291,0.4525,0.4849,0.494,0.4277,0.4125,0.417,1.4977,1.4489,1.3815,1.34,1.3028,1.2981,1.2959,1.2969,0.0,0.0,0.0,1.5151,1.5468,1.5364,1.5212,1.5001,1.4784,1.4656,1.4172,1.3511,1.3458,1.3169,1.2669,1.2375,1.2436,1.2923,1.2821,1.2858,1.2989,1.2989,1.3083,1.3333,1.3395,1.3509,1.3674,1.3606,1.3941,1.4734,1.4784,1.5177,1.6026,1.6631,1.7191,1.7875,1.862,1.9162,1.9396,2.0003,2.0459,2.0646,2.1006,2.1264,2.1369,2.0286,1.9726,1.9893,1.8357,1.7389,1.7339,1.6124,1.5241,1.4817,1.3876,1.3535,1.4099,1.3891,1.3502,1.2871,1.3121,1.3401,1.3559,1.3945,1.4304,1.454,1.4154,1.3781,1.3429,1.2551,1.149,1.0322,0.9009,0.7635,0.6357,0.5391,0.4737,0.4307,0.4373,0.4772,0.4941,0.4603,0.396,0.3397,0.313,0.2705,0.2189,0.1629,0.1175,0.0667,0.0134,0.0066,0.0571,0.081,0.1227,0.2034,0.2429,0.2886,0.3416,0.4039,0.4546,0.5215,0.591,0.6495,0.6712,0.6053,0.5624,1.4405,1.3822,1.3307,1.289,1.2453,1.2351,1.2583,1.2931,1.344,1.3359,1.2951,1.3727,1.383,1.3449,1.3761,1.3941,1.395,1.4061,1.3872,1.3511,1.3233,1.3014,1.2932,1.2645,1.256,1.2629,1.2728,1.285,1.2989,1.2867,1.3075,1.3526,1.3693,1.3953,1.4373,1.3996,1.383,1.395,1.4189,1.4538,1.5059,1.5555,1.6187,1.6933,1.7435,1.7984,1.8632,1.9109,1.9643,2.0093,2.0295,2.0497,2.0683,1.9908,1.9381,1.919,1.7718,1.6584,1.603,1.5007,1.4047,1.33,1.2949,1.2891,1.3047,1.2959,1.2685,1.2292,1.2485,1.2663,1.2709,1.318,1.3434,1.3238,1.3124,1.2842,1.2291,1.1462,1.0543,0.9687,0.8292,0.7122,0.6195,0.5441,0.496,0.4948,0.5329,0.5779,0.6318,0.601,0.5378,0.4838,0.4613,0.4123,0.3184,0.2016,0.1296,0.0602,-0.0198,-0.0459,0.0131,0.0645,0.1197,0.1659,0.2135,0.2596,0.3266,0.4336,0.5197,0.5988,0.7055,0.8114,0.8678,0.8734,0.8505,1.3646,1.296,1.2357,1.1861,1.1652,1.1944,1.2114,1.2181,1.1996,1.1702,1.1512,1.2431,1.258,1.2104,1.2512,1.2818,1.3078,1.3268,1.3208,1.2972,1.3169,1.3071,1.2755,1.2452,1.2305,1.2351,1.2474,1.2597,1.2744,1.2867,1.3035,1.3268,1.3639,1.4005,1.4247,1.389,1.3797,1.3937,1.3847,1.4001,1.43,1.4756,1.5274,1.5776,1.6415,1.7045,1.7534,1.8093,1.8578,1.9069,1.9307,1.9379,1.9409,1.877,1.82,1.7712,1.6618,1.5683,1.5126,1.42,1.343,1.2949,1.2686,1.2634,1.2752,1.2504,1.2367,1.231,1.2073,1.1833,1.1748,1.2132,1.2396,1.2324,1.2494,1.2299,1.1696,1.1031,1.018,0.9186,0.8094,0.7128,0.6287,0.59,0.5635,0.5711,0.6373,0.7225,0.7695,0.7902,0.7476,0.6229,0.567,0.5026,0.4179,0.2866,0.1868,0.1301,0.0722,0.0327,0.0454,0.0761,0.106,0.1452,0.1933,0.2455,0.3137,0.4238,0.5393,0.6542,0.7763,0.8914,0.9797,1.0424,1.0374,1.279,1.2192,1.1499,1.1042,1.0958,1.1501,1.1641,1.1349,1.0576,1.0182,1.02,1.1129,1.1315,1.0953,1.124,1.1615,1.2041,1.2297,1.2336,1.2236,1.2911,1.2997,1.2453,1.2018,1.1787,1.1764,1.1911,1.2112,1.2274,1.2584,1.2832,1.3118,1.3502,1.3838,1.4105,1.3754,1.3713,1.3876,1.3625,1.3583,1.3899,1.4178,1.4547,1.4877,1.5546,1.614,1.6528,1.709,1.76,1.7995,1.8139,1.8213,1.8142,1.7519,1.6932,1.6315,1.5579,1.4891,1.4337,1.3608,1.3145,1.2908,1.2776,1.274,1.2865,1.2477,1.2289,1.2332,1.1791,1.1343,1.1212,1.1321,1.1539,1.1664,1.1834,1.1765,1.1293,1.0693,0.9915,0.8917,0.8055,0.7291,0.6744,0.6447,0.6412,0.6623,0.7542,0.8272,0.8555,0.9277,0.9005,0.7891,0.6899,0.6208,0.5422,0.4105,0.2957,0.2306,0.1753,0.1355,0.1194,0.1175,0.1153,0.1479,0.1837,0.2363,0.303,0.4216,0.5467,0.6694,0.8116,0.9544,1.0739,1.1421,1.1531,1.2015,1.1671,1.1068,1.0696,1.0679,1.1144,1.1049,1.0506,0.9764,0.9214,0.8974,0.9868,1.0101,0.9796,0.9955,1.0296,1.0745,1.1016,1.1156,1.124,1.2165,1.2461,1.2054,1.1185,1.0739,1.0732,1.0961,1.1178,1.1409,1.1711,1.2402,1.3309,1.35,1.3723,1.4029,1.3727,1.351,1.3408,1.3345,1.3637,1.4195,1.4013,1.415,1.4763,1.4842,1.5108,1.5661,1.6187,1.6652,1.7024,1.695,1.6953,1.7162,1.6402,1.5852,1.5688,1.5023,1.428,1.344,1.3313,1.3164,1.2964,1.3053,1.3359,1.3615,1.3103,1.259,1.2303,1.1927,1.1501,1.1217,1.1152,1.1174,1.1287,1.113,1.0857,1.0793,1.0143,0.9469,0.8911,0.8184,0.7535,0.7269,0.6962,0.6963,0.7379,0.8001,0.8559,0.8879,0.9424,0.9837,0.9403,0.8885,0.7871,0.6685,0.566,0.4534,0.3364,0.237,0.2075,0.2058,0.1887,0.1713,0.1638,0.1834,0.2354,0.317,0.4265,0.5576,0.6856,0.8393,1.016,1.1509,1.2166,1.1996,1.1413,1.0982,1.0467,1.0159,1.0047,1.0357,1.0395,1.0077,0.9058,0.8487,0.8396,0.8665,0.8715,0.8626,0.8801,0.9015,0.9354,0.9805,1.0025,1.0165,1.0976,1.132,1.1135,1.0179,0.9538,0.9446,0.9875,1.0245,1.0666,1.1269,1.213,1.3014,1.3136,1.343,1.3836,1.3538,1.3531,1.3785,1.347,1.3531,1.3917,1.3672,1.3607,1.3912,1.4179,1.4448,1.4765,1.5284,1.57,1.6016,1.5963,1.5913,1.5827,1.5382,1.4952,1.4536,1.4047,1.3515,1.289,1.2941,1.287,1.2629,1.2833,1.3119,1.3446,1.3217,1.2994,1.2777,1.2147,1.1558,1.1215,1.1145,1.1143,1.112,1.1063,1.0962,1.0678,1.026,0.9748,0.9246,0.8685,0.8247,0.8045,0.7701,0.7634,0.797,0.8388,0.8759,0.9145,0.9664,1.0034,1.0072,0.9888,0.9256,0.7952,0.6863,0.5769,0.4696,0.3774,0.3294,0.2753,0.2625,0.2397,0.2023,0.2271,0.2639,0.319,0.4183,0.5426,0.6851,0.8863,1.0654,1.1483,1.1864,1.1802,1.0631,1.0289,0.9864,0.9607,0.9483,0.9623,0.9615,0.9461,0.8316,0.7765,0.7742,0.7658,0.7508,0.7368,0.7553,0.7735,0.7914,0.8292,0.8619,0.8899,0.9793,1.0203,1.0079,0.9113,0.8446,0.8367,0.8925,0.9481,1.0021,1.079,1.165,1.2412,1.2599,1.29,1.3397,1.325,1.3393,1.3795,1.3465,1.3401,1.3541,1.3389,1.3323,1.3402,1.3712,1.3987,1.4109,1.4532,1.4896,1.505,1.4959,1.479,1.4609,1.4306,1.3941,1.3519,1.3122,1.2852,1.2523,1.2693,1.2715,1.2591,1.2826,1.3037,1.3223,1.3293,1.3228,1.3126,1.2456,1.1833,1.1441,1.1301,1.1211,1.1054,1.1076,1.0905,1.0662,1.0334,0.9956,0.9614,0.9184,0.8831,0.8592,0.8213,0.7927,0.8125,0.8306,0.8635,0.9017,0.946,0.9913,1.0028,1.0161,0.9849,0.8835,0.7902,0.6845,0.5948,0.5052,0.431,0.3585,0.3503,0.322,0.2915,0.2976,0.3105,0.354,0.4391,0.5369,0.6957,0.8725,1.0259,1.0616,1.1022,1.1141,0.9689,0.9602,0.917,0.9082,0.9318,0.8862,0.8695,0.8742,0.7532,0.6981,0.69,0.6915,0.6615,0.604,0.6166,0.6386,0.6566,0.6603,0.6833,0.7271,0.8522,0.9145,0.9092,0.8122,0.7583,0.7655,0.8175,0.8967,0.9708,1.0208,1.0852,1.1687,1.1929,1.2224,1.2673,1.2865,1.3025,1.3251,1.323,1.3258,1.328,1.3237,1.325,1.3461,1.3676,1.3794,1.3874,1.413,1.4321,1.43,1.3707,1.3468,1.3626,1.3058,1.2696,1.2618,1.2452,1.2351,1.24,1.2609,1.2753,1.29,1.3125,1.3417,1.3357,1.3339,1.3245,1.3017,1.2756,1.2421,1.2012,1.152,1.1176,1.0857,1.0521,1.0428,1.0555,1.0205,1.0002,0.9857,0.955,0.9144,0.8657,0.8217,0.7996,0.7912,0.7857,0.7922,0.8236,0.8753,0.9075,0.9332,0.9448,0.9442,0.9227,0.8431,0.7637,0.6815,0.5948,0.5407,0.4958,0.4504,0.4125,0.3792,0.3762,0.3886,0.4094,0.4692,0.5711,0.6905,0.7946,0.9028,0.9663,0.9871,1.0023,0.9345,0.9174,0.8999,0.8819,0.8603,0.8615,0.8461,0.8164,0.7317,0.6381,0.5835,0.5922,0.5702,0.5085,0.4686,0.4854,0.5364,0.5541,0.5671,0.5902,0.6769,0.7509,0.7892,0.6876,0.6584,0.7091,0.7446,0.805,0.8841,0.9421,1.0129,1.0864,1.1105,1.1552,1.215,1.2526,1.29,1.32,1.32,1.3293,1.3465,1.3153,1.3155,1.3447,1.3379,1.3497,1.3639,1.3663,1.371,1.3808,1.3143,1.2798,1.2723,1.2232,1.185,1.176,1.1619,1.1601,1.1763,1.2066,1.2327,1.263,1.2781,1.2881,1.2814,1.2664,1.2547,1.2637,1.2449,1.2229,1.2027,1.1527,1.1031,1.0688,1.0364,1.011,1.018,1.0053,0.9977,0.9945,0.968,0.9259,0.8758,0.8323,0.7852,0.7531,0.74,0.7461,0.7587,0.8042,0.8495,0.8613,0.8784,0.8837,0.8296,0.828,0.7941,0.7307,0.6603,0.6254,0.5851,0.5616,0.5294,0.5047,0.4826,0.4611,0.4851,0.5135,0.6094,0.6543,0.756,0.816,0.8729,0.8974,0.9132,0.8911,0.8732,0.8644,0.8468,0.8165,0.8256,0.818,0.7683,0.6824,0.5883,0.5146,0.5231,0.5026,0.4442,0.3708,0.3527,0.414,0.4274,0.4417,0.4501,0.4986,0.5689,0.6444,0.5695,0.5773,0.664,0.6984,0.7487,0.8198,0.8713,0.9387,1.0143,1.0513,1.1111,1.1781,1.2224,1.2707,1.3167,1.335,1.3508,1.3751,1.3457,1.3236,1.3353,1.3243,1.326,1.3551,1.342,1.3355,1.3291,1.274,1.2207,1.1732,1.1289,1.0947,1.0854,1.0804,1.0869,1.1174,1.1375,1.168,1.2174,1.2164,1.2091,1.2284,1.2118,1.2061,1.2182,1.2063,1.1927,1.1611,1.108,1.0715,1.0498,1.018,0.9926,0.9926,0.9926,0.9926,0.9919,0.9646,0.9326,0.8829,0.8247,0.7727,0.7204,0.7003,0.6942,0.7003,0.7396,0.7782,0.7772,0.8021,0.7882,0.7517,0.7447,0.7572,0.706,0.7321,0.697,0.6788,0.6672,0.653,0.6265,0.5949,0.564,0.5612,0.5845,0.6081,0.6365,0.6832,0.7378,0.7786,0.8139,0.8308,0.8472,0.8201,0.8201,0.8116,0.7918,0.7924,0.7766,0.7289,0.6192,0.5413,0.4943,0.4781,0.453,0.404,0.3346,0.2922,0.2914,0.2969,0.3112,0.3275,0.3186,0.3888,0.4929,0.4596,0.5097,0.6244,0.6865,0.7399,0.7766,0.8165,0.878,0.9544,1.0137,1.0738,1.1409,1.1961,1.2614,1.3188,1.3492,1.383,1.4102,1.3853,1.3628,1.3425,1.3168,1.3181,1.3457,1.3414,1.3278,1.2913,1.2311,1.1525,1.0791,1.031,1.0051,1.0133,1.0051,1.0272,1.0714,1.0735,1.1127,1.1609,1.1388,1.1495,1.1865,1.1776,1.1705,1.1744,1.1669,1.1534,1.0899,1.0364,1.0117,1.0238,0.9919,0.974,0.974,0.9804,0.9804,0.9734,0.953,0.9268,0.8765,0.8182,0.7531,0.7007,0.6613,0.6432,0.6457,0.6664,0.6894,0.6902,0.7025,0.7003,0.6811,0.6688,0.6815,0.6946,0.7461,0.7618,0.7593,0.755,0.756,0.7366,0.6885,0.6551,0.5931,0.6111,0.5949,0.6221,0.6478,0.6734,0.7043,0.7402,0.7563,0.8292,0.8201,0.8028,0.7856,0.7661,0.7861,0.7673,0.7084,0.5758,0.4991,0.4651,0.4571,0.4192,0.3518,0.302,0.2747,0.2522,0.2274,0.2268,0.2584,0.2579,0.2801,0.3247,0.348,0.434,0.571,0.6407,0.6738,0.7045,0.7565,0.8093,0.8784,0.9397,1.0067,1.0836,1.1589,1.2279,1.2988,1.3326,1.3738,1.4163,1.385,1.3533,1.343,1.316,1.3009,1.2947,1.2984,1.2873,1.2787,1.2195,1.1483,1.0814,1.0399,1.0122,0.9955,1.0005,1.0163,1.0493,1.0654,1.0946,1.1417,1.1271,1.1138,1.1256,1.1019,1.088,1.1063,1.0909,1.067,1.0431,0.9977,0.9722,0.9716,0.9466,0.928,0.928,0.9408,0.9408,0.928,0.921,0.8952,0.8501,0.7912,0.733,0.6683,0.6292,0.6058,0.5891,0.6048,0.6116,0.6113,0.6139,0.6085,0.5843,0.5833,0.6121,0.6498,0.7204,0.7987,0.8107,0.835,0.8431,0.8265,0.7777,0.7288,0.6634,0.6288,0.6156,0.6142,0.6454,0.6543,0.6568,0.681,0.7146,0.8025,0.794,0.7672,0.7499,0.7404,0.7574,0.7415,0.6912,0.5799,0.5041,0.4769,0.4603,0.4216,0.3684,0.3348,0.3053,0.2815,0.2409,0.2136,0.2026,0.2023,0.2084,0.2295,0.3365,0.4417,0.5519,0.6072,0.6428,0.6662,0.6991,0.7581,0.8203,0.8899,0.9597,1.045,1.1367,1.2148,1.2798,1.324,1.3736,1.4022,1.3858,1.3648,1.3358,1.3155,1.294,1.2714,1.2711,1.2699,1.2533,1.1826,1.1051,1.0604,1.0231,1.0036,1.0008,0.9978,1.0103,1.0429,1.0429,1.0678,1.1076,1.0842,1.0735,1.0753,1.0516,1.0349,1.0336,1.0239,0.9981,0.9755,0.9332,0.9005,0.8947,0.8888,0.8823,0.8829,0.8888,0.9022,0.8964,0.8829,0.8565,0.8236,0.7777,0.7195,0.6552,0.6078,0.5727,0.5503,0.5491,0.5506,0.5477,0.546,0.525,0.4873,0.5027,0.5363,0.5988,0.6745,0.7591,0.8172,0.8753,0.9046,0.8779,0.8361,0.7863,0.7284,0.6706,0.6489,0.6494,0.6457,0.6458,0.6549,0.6818,0.713,0.768,0.7507,0.7231,0.7139,0.7139,0.7129,0.7155,0.6963,0.6221,0.5633,0.5309,0.4962,0.4674,0.4405,0.3998,0.3784,0.3575,0.3133,0.2509,0.1878,0.1698,0.1681,0.1913,0.3765,0.5086,0.5641,0.5883,0.6197,0.648,0.6704,0.7129,0.7919,0.8629,0.9414,1.0252,1.1243,1.2073,1.2756,1.3248,1.3635,1.4035,1.4001,1.3665,1.3213,1.3126,1.2936,1.2614,1.2524,1.2492,1.2283,1.1241,1.0568,1.0215,0.99,1.002,1.0208,0.992,1.0161,1.0389,1.0302,1.0261,1.0705,1.0336,1.0052,1.0512,1.0254,0.9962,0.9849,0.9676,0.942,0.8863,0.8441,0.8117,0.7982,0.8112,0.8317,0.8447,0.8441,0.8447,0.8576,0.8511,0.8376,0.8107,0.7717,0.7129,0.6506,0.6011,0.5624,0.5358,0.5222,0.5084,0.5029,0.4963,0.4701,0.4459,0.4466,0.4807,0.5319,0.6152,0.7129,0.8172,0.8818,0.9338,0.9139,0.886,0.835,0.7845,0.7288,0.6847,0.6692,0.6625,0.6534,0.6686,0.6902,0.7111,0.7768,0.7507,0.7058,0.6969,0.7054,0.7149,0.7136,0.7085,0.68,0.6313,0.5675,0.5419,0.5004,0.4519,0.45,0.4368,0.4117,0.3674,0.3138,0.2598,0.251,0.2325,0.24,0.3976,0.5244,0.5695,0.5843,0.596,0.6043,0.642,0.6969,0.7542,0.8273,0.9161,1.0009,1.0849,1.16,1.2398,1.2726,1.3128,1.3419,1.3368,1.3091,1.2842,1.2687,1.2566,1.2331,1.2091,1.1881,1.1717,1.1293,1.0955,1.0735,1.0655,1.0648,1.0742,1.0868,1.0795,1.0628,1.0551,1.0494,1.0415,1.019,0.9963,1.0021,0.9717,0.9542,0.9336,0.9017,0.8521,0.823,0.7753,0.7358,0.6942,0.7269,0.7596,0.7722,0.7787,0.7787,0.7852,0.7987,0.7852,0.7591,0.733,0.7003,0.6374,0.5898,0.5487,0.529,0.4997,0.4867,0.4774,0.4629,0.4348,0.4198,0.4136,0.4298,0.4669,0.5488,0.6527,0.7637,0.8683,0.9134,0.9396,0.9,0.8526,0.8149,0.7727,0.7405,0.6978,0.6911,0.6838,0.6932,0.7111,0.7281,0.7411,0.7149,0.6792,0.67,0.6786,0.6976,0.7068,0.7139,0.7068,0.6853,0.6328,0.5973,0.5706,0.5365,0.5427,0.5188,0.4832,0.4478,0.3941,0.3314,0.3045,0.2596,0.2773,0.4119,0.5255,0.5646,0.5801,0.5849,0.5955,0.6235,0.6628,0.7133,0.7799,0.8625,0.9474,1.0412,1.1196,1.1786,1.219,1.2553,1.2665,1.2692,1.2519,1.2311,1.2221,1.2329,1.2271,1.1999,1.1754,1.1686,1.1472,1.1236,1.1176,1.1169,1.1223,1.1343,1.1423,1.1289,1.1182,1.0968,1.0823,1.0633,1.0331,1.0067,0.9886,0.947,0.9215,0.8816,0.8316,0.7928,0.7619,0.7175,0.6635,0.623,0.6284,0.6613,0.6999,0.6937,0.6999,0.7129,0.726,0.7335,0.7007,0.6942,0.6613,0.6199,0.5768,0.5467,0.5219,0.4947,0.4762,0.464,0.4496,0.4206,0.405,0.393,0.4117,0.4487,0.5393,0.63,0.74,0.8576,0.8941,0.9204,0.9,0.879,0.8345,0.7968,0.7593,0.7298,0.7226,0.7133,0.7157,0.7283,0.7437,0.6966,0.6792,0.6523,0.6343,0.6428,0.6792,0.6976,0.7068,0.7146,0.7054,0.6962,0.6605,0.6322,0.6428,0.6157,0.6074,0.5719,0.5369,0.4832,0.4117,0.3492,0.2955,0.3038,0.4387,0.5282,0.5628,0.573,0.5805,0.5934,0.5947,0.626,0.686,0.7372,0.8048,0.9007,0.9924,1.0712,1.1311,1.1752,1.1899,1.1934,1.2068,1.1918,1.1721,1.1877,1.2119,1.2162,1.205,1.1939,1.1852,1.163,1.149,1.147,1.147,1.161,1.179,1.171,1.1663,1.1744,1.1348,1.1093,1.0885,1.0473,1.0118,0.9777,0.9264,0.8808,0.8392,0.7886,0.7473,0.7033,0.6646,0.6165,0.578,0.5529,0.5715,0.6086,0.6145,0.6214,0.6573,0.6643,0.6639,0.6573,0.6506,0.6246,0.5907,0.5545,0.5332,0.5165,0.4944,0.468,0.4523,0.4363,0.4117,0.3953,0.3786,0.4046,0.4441,0.5518,0.6505,0.7532,0.8435,0.8781,0.8952,0.8818,0.8624,0.842,0.8035,0.7673,0.7511,0.7364,0.7325,0.7302,0.7432,0.7572,0.6966,0.6795,0.6349,0.6257,0.634,0.6157,0.6428,0.7064,0.7146,0.7149,0.7064,0.6792,0.6612,0.6428,0.6428,0.6254,0.5988,0.5722,0.5277,0.483,0.4297,0.4206,0.4383,0.5193,0.5555,0.5733,0.5733,0.5733,0.5805,0.5965,0.6216,0.6558,0.7159,0.7869,0.8574,0.9465,1.0294,1.0901,1.1332,1.1534,1.1589,1.1508,1.1467,1.1295,1.1481,1.1646,1.1813,1.1787,1.1755,1.1713,1.1729,1.1777,1.177,1.1777,1.1904,1.2084,1.2131,1.2031,1.1826,1.1527,1.1115,1.0748,1.0259,0.9637,0.9141,0.875,0.8398,0.7961,0.747,0.6917,0.6463,0.614,0.5895,0.5648,0.5463,0.5423,0.5596,0.5631,0.5751,0.6101,0.6347,0.6419,0.6287,0.6339,0.603,0.5621,0.5368,0.5243,0.5096,0.493,0.4803,0.4658,0.4613,0.4438,0.4153,0.4038,0.4285,0.4631,0.5644,0.6491,0.7539,0.8097,0.8414,0.8603,0.8576,0.8408,0.8317,0.8134,0.7785,0.7671,0.7531,0.7456,0.7414,0.7579,0.7623,0.6792,0.6438,0.6171,0.6083,0.5991,0.58,0.6068,0.6704,0.7054,0.7143,0.7061,0.6969,0.6877,0.6697,0.6697,0.6612,0.6349,0.608,0.5813,0.5542,0.5006,0.4917,0.5277,0.5552,0.5733,0.5733,0.5733,0.5733,0.5733,0.5822,0.5991,0.6257,0.6877,0.7482,0.8197,0.899,0.9864,1.0559,1.0982,1.1185,1.1151,1.118,1.1072,1.1023,1.1115,1.126,1.1558,1.1558,1.1632,1.1675,1.1786,1.1854,1.1926,1.1998,1.2164,1.2265,1.2305,1.2251,1.2038,1.1623,1.1209,1.0844,1.0119,0.9472,0.8958,0.8519,0.813,0.7825,0.7335,0.6659,0.6141,0.6124,0.5906,0.5661,0.5691,0.565,0.5576,0.544,0.5488,0.5793,0.5919,0.5885,0.5895,0.594,0.5786,0.5365,0.5225,0.5087,0.529,0.5137,0.5044,0.4985,0.4977,0.4833,0.4488,0.4435,0.4586,0.4975,0.5707,0.6456,0.7264,0.7697,0.8059,0.8208,0.8374,0.831,0.8176,0.7967,0.7803,0.7637,0.7537,0.7523,0.7552,0.7533,0.7552,0.6438,0.6086,0.6083,0.5908,0.573,0.5714,0.598,0.6428,0.6877,0.7143,0.7139,0.7139,0.7051,0.7051,0.7051,0.6966,0.6704,0.6349,0.6169,0.6163,0.5628,0.545,0.5633,0.5638,0.5733,0.5733,0.5733,0.5733,0.5733,0.5733,0.5822,0.6083,0.6526,0.7054,0.776,0.8727,0.9515,1.0212,1.0727,1.0937,1.0805,1.0842,1.0785,1.0709,1.083,1.0968,1.126,1.1335,1.1403,1.1632,1.1626,1.1781,1.1929,1.2157,1.2231,1.2231,1.2231,1.2285,1.2111,1.1749,1.1298,1.1031,1.0121,0.9442,0.8898,0.8348,0.7977,0.7609,0.7122,0.6623,0.6153,0.6211,0.6134,0.5957,0.6133,0.619,0.6001,0.5694,0.5818,0.5691,0.5779,0.5761,0.5525,0.5493,0.5326,0.518,0.5041,0.5054,0.5256,0.5421,0.535,0.5403,0.5487,0.5389,0.5049,0.4882,0.5015,0.5441,0.6032,0.6526,0.7191,0.7601,0.7999,0.8098,0.8149,0.8047,0.7967,0.7776,0.7644,0.7509,0.7526,0.7517,0.7474,0.7474,0.7534,0.6171,0.6086,0.5822,0.5735,0.5733,0.5722,0.5983,0.6428,0.6884,0.7149,0.7139,0.7139,0.7139,0.7139,0.7139,0.6966,0.6792,0.6523,0.6432,0.6432,0.6166,0.6083,0.5811,0.5727,0.5733,0.5733,0.5733,0.5644,0.5644,0.5733,0.5754,0.5916,0.6281,0.6815,0.7439,0.8201,0.9297,1.0081,1.0589,1.0815,1.0853,1.073,1.0608,1.0492,1.068,1.0889,1.0935,1.1061,1.1186,1.1186,1.1341,1.149,1.1558,1.1855,1.2003,1.2077,1.2224,1.2231,1.2003,1.1781,1.126,1.0663,0.9916,0.9241,0.8632,0.8102,0.7723,0.7338,0.6949,0.6623,0.6528,0.6496,0.6666,0.6637,0.6799,0.6834,0.6809,0.666,0.6481,0.6288,0.5962,0.5612,0.5516,0.5252,0.5093,0.5077,0.5026,0.5084,0.5243,0.5483,0.5682,0.5809,0.6003,0.5825,0.5696,0.5509,0.5574,0.5964,0.6447,0.6791,0.7339,0.778,0.7996,0.7965,0.7861,0.7771,0.7686,0.7618,0.7573,0.7479,0.7479,0.7475,0.7499,0.753,0.7446,0.5994,0.5908,0.573,0.5733,0.5733,0.5725,0.5805,0.6068,0.652,0.6877,0.7051,0.7139,0.7139,0.7139,0.7139,0.7051,0.6962,0.6874,0.6786,0.6786,0.6707,0.6526,0.5988,0.5819,0.5552,0.5463,0.5463,0.5552,0.5563,0.5621,0.5634,0.5844,0.6239,0.6822,0.7461,0.8382,0.9208,1.0056,1.0529,1.089,1.095,1.0746,1.0561,1.0673,1.074,1.099,1.1224,1.1295,1.1307,1.1365,1.1405,1.1395,1.139,1.149,1.1706,1.1868,1.2009,1.2083,1.1855,1.1558,1.1037,1.0438,0.9685,0.9008,0.8403,0.7953,0.7573,0.7103,0.6795,0.6563,0.6405,0.6637,0.6824,0.7003,0.7275,0.7451,0.748,0.7509,0.723,0.6878,0.6277,0.5822,0.5518,0.5306,0.4995,0.491,0.489,0.5068,0.5265,0.5656,0.6009,0.6336,0.6543,0.6521,0.6314,0.6146,0.6061,0.647,0.6756,0.7112,0.7397,0.7728,0.7728,0.7626,0.7558,0.7573,0.7633,0.7667,0.7592,0.7509,0.7518,0.7534,0.7505,0.7495,0.7464,0.5835,0.5659,0.5659,0.5659,0.5659,0.5651,0.5657,0.5843,0.6352,0.6702,0.6994,0.7088,0.7082,0.7092,0.7119,0.7139,0.7139,0.7051,0.7051,0.7054,0.7061,0.6884,0.6346,0.5905,0.5463,0.5102,0.5191,0.5282,0.5302,0.5383,0.553,0.5831,0.6392,0.712,0.775,0.8644,0.9518,1.0148,1.0796,1.102,1.0968,1.081,1.0751,1.088,1.088,1.1089,1.1295,1.1455,1.1532,1.1504,1.1516,1.1516,1.1317,1.1377,1.1502,1.164,1.1819,1.1787,1.1632,1.1409,1.0962,1.0293,0.9533,0.8856,0.825,0.7795,0.7334,0.6942,0.6637,0.6486,0.649,0.6714,0.6938,0.7165,0.7621,0.8089,0.7982,0.7897,0.7804,0.7294,0.6556,0.6079,0.5822,0.5177,0.486,0.4819,0.4809,0.5104,0.5391,0.5974,0.6385,0.6918,0.7167,0.7145,0.7,0.6798,0.6738,0.6945,0.7092,0.7275,0.7407,0.7548,0.7516,0.7487,0.7575,0.7614,0.7621,0.7642,0.7575,0.7479,0.7532,0.7472,0.7524,0.7447,0.7322,0.5496,0.5415,0.5501,0.5499,0.542,0.551,0.5562,0.5803,0.6583,0.6901,0.6721,0.6929,0.7015,0.6949,0.7082,0.7136,0.7139,0.7139,0.7051,0.7054,0.7061,0.6884,0.6343,0.5905,0.546,0.5099,0.501,0.501,0.5037,0.5118,0.545,0.5847,0.6315,0.6944,0.803,0.8973,0.9723,1.0224,1.099,1.1205,1.1079,1.0961,1.0842,1.0806,1.0843,1.1022,1.1213,1.1462,1.1635,1.1662,1.1792,1.178,1.1799,1.16,1.1504,1.156,1.1658,1.1639,1.1484,1.1335,1.0962,1.0293,0.9765,0.916,0.8403,0.7561,0.7022,0.6718,0.6409,0.6335,0.6409,0.6714,0.7019,0.7326,0.7714,0.8097,0.825,0.8169,0.8089,0.7783,0.7096,0.6483,0.6083,0.5363,0.4719,0.4762,0.4795,0.5101,0.5516,0.6186,0.6753,0.7287,0.7491,0.7544,0.7407,0.7198,0.7102,0.7331,0.7339,0.7347,0.7375,0.7484,0.7484,0.7468,0.7561,0.7484,0.7407,0.7407,0.748,0.748,0.748,0.748,0.7476,0.7407,0.7184,0.5409,0.5371,0.5455,0.5455,0.5455,0.5541,0.5563,0.5672,0.6319,0.6649,0.6505,0.6612,0.6739,0.6912,0.7071,0.7139,0.7139,0.7139,0.7054,0.6969,0.6972,0.6799,0.6352,0.5908,0.5463,0.5102,0.501,0.4832,0.4775,0.4933,0.5194,0.5821,0.6401,0.7196,0.8364,0.9276,0.9973,1.0572,1.1028,1.1239,1.1246,1.1182,1.1139,1.1036,1.1115,1.1188,1.1355,1.155,1.1704,1.1787,1.1899,1.1897,1.1822,1.1685,1.1522,1.1504,1.1413,1.1347,1.126,1.126,1.0812,1.0368,0.9771,0.9165,0.8327,0.7561,0.6942,0.663,0.6251,0.6177,0.6254,0.6409,0.671,0.7173,0.7638,0.7949,0.8174,0.8322,0.8241,0.794,0.7633,0.7022,0.6405,0.5696,0.5137,0.4889,0.487,0.507,0.5661,0.6388,0.7022,0.7651,0.7761,0.7795,0.7646,0.7472,0.7226,0.7222,0.7222,0.7234,0.7318,0.733,0.733,0.7334,0.7334,0.7257,0.7176,0.7326,0.7403,0.7403,0.7407,0.733,0.7253,0.6957,0.6751,0.5592,0.5603,0.5524,0.5527,0.5445,0.5612,0.5624,0.5559,0.5937,0.6276,0.6302,0.6397,0.6576,0.6826,0.7031,0.7095,0.7139,0.7054,0.6969,0.6884,0.6799,0.6621,0.6355,0.6002,0.5644,0.5191,0.528,0.5013,0.4766,0.482,0.5264,0.585,0.6404,0.7508,0.8709,0.9676,1.0482,1.1196,1.1394,1.1364,1.1262,1.1251,1.1251,1.1246,1.1354,1.144,1.1613,1.1682,1.181,1.1972,1.2081,1.2058,1.1984,1.1823,1.1618,1.1516,1.1344,1.1192,1.1111,1.1111,1.0812,1.0363,0.9771,0.9089,0.8255,0.7569,0.6949,0.6553,0.617,0.5941,0.5944,0.6103,0.6409,0.6868,0.733,0.7638,0.7949,0.8097,0.8246,0.8021,0.7714,0.7484,0.6868,0.6096,0.555,0.516,0.5085,0.5085,0.5547,0.6244,0.6773,0.7298,0.7468,0.7488,0.7492,0.7419,0.7257,0.7103,0.7026,0.7026,0.7022,0.7099,0.7099,0.7103,0.7026,0.7026,0.6945,0.7173,0.7326,0.7176,0.7022,0.7022,0.6872,0.6585,0.625,0.5948,0.6116,0.5902,0.5683,0.5602,0.5587,0.558,0.558,0.5635,0.5981,0.6318,0.6425,0.6661,0.6861,0.7028,0.7027,0.7132,0.6881,0.6884,0.6707,0.6441,0.6352,0.6266,0.618,0.6005,0.5733,0.5641,0.5369,0.5102,0.5116,0.5463,0.5918,0.6502,0.7678,0.8921,0.9997,1.0947,1.1517,1.1698,1.1505,1.1316,1.1267,1.1267,1.1267,1.1267,1.1354,1.1348,1.1527,1.1768,1.1963,1.2122,1.2247,1.214,1.1974,1.1763,1.1522,1.1268,1.1135,1.1117,1.1117,1.0962,1.0588,0.9916,0.9089,0.8331,0.7646,0.7026,0.6486,0.6096,0.5864,0.5867,0.5948,0.618,0.6486,0.6868,0.733,0.7642,0.7872,0.7949,0.7949,0.7795,0.7561,0.733,0.656,0.586,0.5392,0.4849,0.4771,0.5082,0.5702,0.616,0.6619,0.6853,0.7019,0.7103,0.6949,0.6714,0.656,0.6483,0.656,0.6563,0.6637,0.671,0.6633,0.6633,0.6637,0.6637,0.6556,0.6553,0.6637,0.6644,0.6423,0.623,0.588,0.5542,0.6633,0.6791,0.6872,0.6486,0.6018,0.6173,0.5967,0.568,0.5876,0.6271,0.6663,0.6835,0.6939,0.7001,0.72,0.7289,0.7191,0.7204,0.7044,0.6795,0.6618,0.6343,0.6257,0.6349,0.6536,0.645,0.6177,0.5813,0.5453,0.5719,0.6094,0.6454,0.6835,0.7894,0.9108,1.0324,1.1222,1.1563,1.1628,1.1429,1.131,1.1267,1.1267,1.1267,1.1267,1.1267,1.1354,1.144,1.1613,1.1785,1.2037,1.2132,1.2171,1.1996,1.1817,1.1552,1.128,1.1154,1.1117,1.1111,1.0962,1.0588,0.9992,0.9316,0.8632,0.8097,0.7415,0.6876,0.6173,0.586,0.5702,0.5631,0.5789,0.6099,0.6483,0.6945,0.7253,0.7565,0.7868,0.7944,0.7791,0.7561,0.733,0.7099,0.6321,0.5625,0.5002,0.4613,0.4849,0.5085,0.5544,0.5928,0.6163,0.6244,0.6328,0.6251,0.6096,0.6015,0.5938,0.6018,0.6018,0.6173,0.617,0.6167,0.6012,0.5857,0.578,0.5702,0.5777,0.6012,0.5957,0.5749,0.5486,0.5154,0.4836,0.7175,0.7415,0.7766,0.7399,0.663,0.6791,0.6553,0.6079,0.6321,0.6718,0.7042,0.7077,0.7153,0.7251,0.7323,0.7403,0.7282,0.7204,0.7027,0.6796,0.654,0.6304,0.6236,0.652,0.7064,0.7252,0.6976,0.6517,0.6422,0.6691,0.6969,0.7272,0.7599,0.8461,0.9404,1.0687,1.15,1.1577,1.1564,1.131,1.1294,1.1267,1.1267,1.1267,1.1267,1.1267,1.1267,1.1354,1.144,1.1699,1.1929,1.198,1.2022,1.1956,1.1792,1.1594,1.1365,1.1208,1.1135,1.1037,1.0887,1.0513,1.0218,0.969,0.9084,0.8479,0.7718,0.6953,0.6328,0.5783,0.5628,0.5553,0.5556,0.5867,0.6483,0.6945,0.7099,0.733,0.7633,0.7859,0.7706,0.7561,0.7326,0.7015,0.6167,0.547,0.4774,0.4384,0.4384,0.4621,0.4854,0.5162,0.5395,0.5392,0.547,0.5473,0.5476,0.5395,0.5318,0.5395,0.5473,0.555,0.5628,0.5547,0.5392,0.5082,0.5004,0.5002,0.5231,0.5464,0.528,0.4875,0.4605,0.4265,0.4116,0.7594,0.7834,0.8383,0.8237,0.7557,0.748,0.7249,0.6861,0.6861,0.7103,0.7423,0.7211,0.7203,0.7395,0.7404,0.7423,0.7439,0.7156,0.6908,0.6939,0.6804,0.6415,0.6568,0.6962,0.7768,0.822,0.8028,0.7661,0.7654,0.7746,0.7929,0.8281,0.8765,0.9279,0.9728,1.1005,1.1626,1.1631,1.165,1.151,1.1305,1.1267,1.1267,1.1267,1.1267,1.1267,1.1267,1.1267,1.144,1.1613,1.1871,1.1906,1.1922,1.2123,1.1936,1.1492,1.1444,1.1294,1.1073,1.1123,1.0905,1.057,1.0307,0.9926,0.9199,0.8516,0.7919,0.718,0.6447,0.5805,0.5562,0.5476,0.5556,0.5867,0.6405,0.6791,0.7022,0.7176,0.748,0.7706,0.7633,0.748,0.7322,0.6934,0.6009,0.5237,0.4543,0.4233,0.4155,0.4233,0.4387,0.4543,0.4776,0.4854,0.4854,0.4854,0.4776,0.4698,0.4696,0.4851,0.4854,0.4854,0.4929,0.4927,0.4693,0.4307,0.4304,0.4226,0.4316,0.4261,0.4179,0.3912,0.3706,0.3508,0.342,0.8052,0.8401,0.8763,0.8801,0.8618,0.8246,0.794,0.7638,0.7484,0.7492,0.7812,0.7573,0.7585,0.7827,0.7849,0.7856,0.76,0.7749,0.7613,0.7328,0.7254,0.7094,0.7173,0.7749,0.856,0.9099,0.8907,0.8623,0.8707,0.8886,0.8982,0.9248,0.9685,1.0241,1.0577,1.1211,1.1433,1.1478,1.1456,1.1332,1.1273,1.1267,1.1267,1.1267,1.1267,1.1267,1.1267,1.1267,1.1354,1.1527,1.178,1.1838,1.1723,1.1922,1.1746,1.1274,1.114,1.0947,1.075,1.068,1.0761,1.0625,1.0456,1.0202,0.9879,0.9269,0.8498,0.7612,0.6799,0.6287,0.5895,0.564,0.5715,0.6025,0.649,0.6718,0.6949,0.7103,0.733,0.748,0.7557,0.7362,0.7215,0.6843,0.5989,0.5294,0.4599,0.409,0.3923,0.3921,0.3997,0.4077,0.4233,0.4311,0.4311,0.4311,0.4311,0.4311,0.4387,0.454,0.4465,0.4231,0.4231,0.4229,0.3919,0.3608,0.3542,0.3396,0.3096,0.2964,0.3025,0.3162,0.3031,0.2902,0.2865,0.8263,0.8618,0.8908,0.9139,0.912,0.8832,0.8551,0.8246,0.7863,0.7868,0.8034,0.7957,0.8034,0.8141,0.8216,0.8282,0.7911,0.7923,0.8156,0.7903,0.8022,0.7893,0.8016,0.8532,0.9345,0.9883,0.9781,0.9501,0.9758,0.9854,1.0038,1.0212,1.0463,1.0748,1.1029,1.1213,1.13,1.1294,1.1294,1.1289,1.1267,1.1267,1.1267,1.1267,1.1267,1.1267,1.1267,1.1267,1.1267,1.144,1.158,1.1701,1.164,1.156,1.1618,1.1158,1.0827,1.0718,1.0489,1.0293,1.045,1.0605,1.0499,1.0412,1.0095,0.9442,0.8788,0.7994,0.7262,0.6734,0.6217,0.596,0.6035,0.6349,0.6669,0.6902,0.7122,0.7285,0.7462,0.7602,0.7642,0.7411,0.716,0.6595,0.606,0.5362,0.4738,0.4297,0.3785,0.3698,0.3692,0.3684,0.3686,0.3765,0.3765,0.3763,0.3843,0.3923,0.3999,0.4151,0.3995,0.3763,0.3684,0.353,0.3372,0.3146,0.2777,0.2555,0.2425,0.2296,0.2255,0.2292,0.2323,0.244,0.2382,0.8316,0.8356,0.8965,0.9045,0.9056,0.918,0.9044,0.868,0.8309,0.8161,0.8165,0.8174,0.8255,0.8403,0.8268,0.8277,0.8358,0.8064,0.8286,0.8517,0.8617,0.8573,0.8841,0.9305,0.9918,1.0366,1.0336,1.0186,1.0595,1.0509,1.061,1.0747,1.0776,1.0973,1.1166,1.1193,1.1214,1.1246,1.1267,1.1267,1.1267,1.1267,1.1235,1.1225,1.123,1.1225,1.1144,1.1149,1.117,1.1343,1.1494,1.158,1.1668,1.1685,1.1529,1.1209,1.0699,1.0377,1.0229,1.0067,1.0169,1.0306,1.0184,1.0082,0.9989,0.962,0.8973,0.8346,0.7619,0.7138,0.6691,0.6532,0.645,0.6772,0.7021,0.7238,0.7414,0.7617,0.7809,0.7845,0.7923,0.7772,0.7481,0.6965,0.6337,0.5722,0.5081,0.4396,0.3947,0.357,0.348,0.3294,0.3294,0.3217,0.3217,0.3374,0.3452,0.3532,0.353,0.3606,0.345,0.3294,0.3294,0.3217,0.2902,0.2678,0.2377,0.2102,0.1823,0.1767,0.1793,0.1643,0.1752,0.2032,0.2053,0.8041,0.8321,0.8518,0.8677,0.8893,0.9437,0.9506,0.916,0.8961,0.8808,0.8489,0.8551,0.859,0.8789,0.8941,0.8846,0.8765,0.8732,0.8801,0.8904,0.9076,0.9391,0.9672,1.0086,1.0434,1.0539,1.0562,1.0511,1.0549,1.0611,1.0616,1.0667,1.0752,1.0888,1.0963,1.109,1.1187,1.1273,1.1214,1.123,1.123,1.1214,1.123,1.1149,1.1059,1.0952,1.0884,1.0893,1.0844,1.0961,1.108,1.118,1.09,1.1029,1.1036,1.0638,1.0259,0.9992,0.9992,0.9846,0.9818,1.0033,0.9989,0.998,0.9981,0.9795,0.9283,0.8713,0.8143,0.768,0.7331,0.7217,0.713,0.7296,0.749,0.758,0.7752,0.7865,0.7983,0.8081,0.8078,0.8038,0.7749,0.7278,0.6647,0.6019,0.5358,0.458,0.4026,0.3639,0.3256,0.3069,0.2981,0.2904,0.2984,0.3141,0.3141,0.3139,0.3139,0.3139,0.3139,0.3059,0.2982,0.2824,0.2589,0.2201,0.1894,0.1624,0.1603,0.1545,0.148,0.1322,0.1158,0.1431,0.1526,0.7797,0.8118,0.821,0.8446,0.8731,0.9157,0.9232,0.9069,0.8936,0.8704,0.8467,0.8448,0.8537,0.8596,0.8739,0.8739,0.8582,0.8752,0.8836,0.9126,0.9508,0.9979,1.0445,1.0564,1.0611,1.0632,1.0584,1.0542,1.0557,1.0546,1.0573,1.0584,1.0557,1.0713,1.081,1.0853,1.0918,1.1031,1.1128,1.1192,1.1187,1.1048,1.0966,1.0835,1.0784,1.0721,1.0647,1.0621,1.0388,1.0393,1.0554,1.0522,1.0311,1.046,1.0385,1.0015,0.9882,0.9776,0.9771,0.962,0.974,0.9847,0.975,0.9883,0.9928,0.9875,0.9542,0.9096,0.8694,0.8391,0.8122,0.7874,0.787,0.7789,0.7955,0.804,0.8081,0.8117,0.8199,0.8215,0.8223,0.8183,0.7881,0.7403,0.6989,0.6373,0.5615,0.4727,0.4046,0.3615,0.3209,0.2912,0.2749,0.2591,0.2749,0.2749,0.2669,0.2668,0.2824,0.2824,0.2824,0.2826,0.2747,0.2511,0.2196,0.1897,0.1682,0.1578,0.1461,0.1397,0.1413,0.1245,0.0983,0.0806,0.0898,0.7663,0.7876,0.8058,0.8179,0.8462,0.85,0.8602,0.8583,0.8204,0.8042,0.8014,0.8099,0.8203,0.8327,0.847,0.846,0.8509,0.8612,0.8813,0.9049,0.9441,0.9984,1.053,1.0811,1.0534,1.0568,1.0589,1.0632,1.0557,1.0492,1.0381,1.0498,1.045,1.0541,1.0595,1.0611,1.067,1.0772,1.0848,1.0891,1.0896,1.0783,1.0546,1.0541,1.0497,1.0416,1.0492,1.0329,0.9907,0.9912,0.9969,0.9969,0.9922,0.982,0.9674,0.9653,0.957,0.9554,0.9549,0.9397,0.9466,0.9467,0.9414,0.978,0.9984,1.0096,0.9702,0.9661,0.9338,0.9117,0.8913,0.873,0.8647,0.8499,0.848,0.848,0.8373,0.8398,0.8357,0.843,0.8422,0.8303,0.8229,0.7834,0.7379,0.6796,0.6019,0.5102,0.4333,0.3787,0.3109,0.2708,0.2464,0.2303,0.2199,0.2199,0.2198,0.2196,0.2353,0.2433,0.2434,0.2512,0.2591,0.2276,0.1965,0.1771,0.1561,0.1438,0.1386,0.1416,0.134,0.1344,-0.0,-0.0,-0.0,0.7341,0.7529,0.7573,0.7418,0.7212,0.7591,0.7777,0.7719,0.7333,0.7364,0.7715,0.8061,0.8282,0.8248,0.8383,0.8454,0.8498,0.8457,0.8684,0.8875,0.9195,0.9621,1.0213,1.0311,1.0296,1.0333,1.0426,1.0534,1.0357,1.0225,1.011,1.011,1.0143,1.0223,1.0369,1.0374,1.0428,1.053,1.0503,1.0579,1.0562,1.0649,1.0579,1.0343,1.0237,0.9997,0.9927,0.9722,0.9528,0.9481,0.9482,0.9429,0.9488,0.9438,0.9387,0.9408,0.9397,0.9322,0.9322,0.9261,0.9261,0.9379,0.9489,0.9873,1.008,1.01,1.0188,1.0154,1.0076,0.9851,0.9685,0.9606,0.9452,0.931,0.9087,0.8914,0.8822,0.8669,0.8603,0.8511,0.8511,0.8524,0.8452,0.8189,0.7822,0.7291,0.6593,0.5775,0.4951,0.4243,0.3197,0.2713,0.2196,0.2021,0.1831,0.1807,0.1806,0.1885,0.2042,0.2043,0.2043,0.2121,0.22,0.1963,0.1658,0.1533,0.1485,0.1354,0.1387,0.1246,0.1168,0.0988,-0.0,-0.0,-0.0,0.705,0.737,0.7405,0.7247,0.703,0.7024,0.6995,0.6903,0.6419,0.6426,0.6858,0.7499,0.7884,0.7952,0.8157,0.8245,0.8265,0.8329,0.8295,0.8423,0.8677,0.9051,0.943,0.9713,0.9932,0.9992,1.0165,1.0204,1.0073,1.0008,0.9949,0.9922,0.9933,0.9986,1.0137,1.0143,1.0196,1.0288,1.0191,1.0156,1.0268,1.0236,1.0277,1.0052,0.9901,0.9683,0.9443,0.9237,0.9099,0.9034,0.8926,0.8864,0.8918,0.8894,0.8951,0.9099,0.9175,0.9175,0.9099,0.9047,0.9043,0.9228,0.9602,0.9998,1.0543,1.0655,1.0895,1.0961,1.0849,1.0634,1.0549,1.0559,1.0303,1.0066,0.9742,0.9534,0.9135,0.8711,0.8632,0.8548,0.8544,0.8548,0.8472,0.8288,0.7925,0.757,0.6959,0.6163,0.5427,0.4504,0.353,0.2689,0.2151,0.1799,0.1532,0.1589,0.165,0.1651,0.173,0.1808,0.1887,0.1808,0.173,0.1654,0.1586,0.1448,0.14,0.1278,0.0872,0.0626,0.0629,0.0539,-0.0,-0.0,-0.0,0.6768,0.7364,0.7379,0.7365,0.7238,0.6593,0.6333,0.6168,0.564,0.5524,0.5981,0.6727,0.7048,0.7228,0.74,0.7466,0.7527,0.7678,0.773,0.7796,0.8111,0.8297,0.8608,0.8856,0.9249,0.9595,0.9862,0.9921,0.9911,0.9879,0.9846,0.9846,0.9846,0.9846,0.9841,0.9852,0.984,0.9861,0.9748,0.9721,0.9711,0.9771,0.9803,0.9797,0.9625,0.9392,0.917,0.9018,0.887,0.8727,0.8602,0.8512,0.8498,0.8484,0.856,0.8713,0.8794,0.8794,0.8794,0.8799,0.8894,0.912,0.9652,1.0177,1.0714,1.1248,1.1503,1.1738,1.1629,1.1565,1.157,1.15,1.1239,1.0819,1.0487,0.9951,0.9345,0.8828,0.874,0.8656,0.8568,0.8568,0.848,0.8384,0.8116,0.7672,0.7139,0.634,0.5435,0.45,0.3559,0.2792,0.2153,0.1803,0.1381,0.1359,0.1493,0.1493,0.1573,0.1651,0.173,0.1651,0.1576,0.1585,0.1518,0.1375,0.1172,0.1044,0.0621,-0.0,-0.0,-0.0,-0.0,-0.0,-0.0,0.682,0.7213,0.7037,0.6696,0.6309,0.6043,0.5746,0.5538,0.5377,0.5366,0.5592,0.6044,0.648,0.6777,0.695,0.7068,0.7213,0.722,0.7131,0.7162,0.7478,0.7614,0.79,0.8388,0.8755,0.9098,0.9456,0.962,0.9726,0.9723,0.9755,0.9798,0.9664,0.9669,0.9599,0.9588,0.9476,0.9461,0.9466,0.9391,0.9427,0.9437,0.9544,0.9397,0.9246,0.9094,0.8941,0.8856,0.8784,0.8627,0.8475,0.8327,0.8255,0.8178,0.8259,0.8331,0.8412,0.8412,0.8408,0.8412,0.849,0.873,0.9316,0.9997,1.0708,1.1549,1.2064,1.2895,1.2855,1.2874,1.2821,1.2796,1.2529,1.1745,1.1215,1.0256,0.9515,0.9082,0.8823,0.874,0.8568,0.8568,0.8568,0.8476,0.83,0.7852,0.7404,0.6511,0.5681,0.4664,0.3575,0.2892,0.2236,0.1723,0.1382,0.1356,0.1336,0.1336,0.1336,0.1336,0.1336,0.1415,0.1341,0.1436,0.1367,0.1299,0.1098,-0.0,-0.0,-0.0,-0.0,-0.0,-0.0,-0.0,-0.0]},{"header":{"parameterUnit":"m.s-1","parameterCategory":1,"la1":31.0,"la2":29.5877,"lo1":-88.7671,"lo2":-86.6584,"dy":0.0162,"dx":0.0185,"nx":115,"ny":88,"refTime":"2023-08-30T12:00:00:Z","depth":0,"parameterNumber":3,"parameterNumberName":"V-component_of_WINDS"},"data":[0.0,0.0,0.0,0.0,0.0,0.0,0.0,0.0,0.0,0.0,0.0,0.0,0.0,0.0,0.0,0.0,0.0,0.0,0.0,0.0,0.0,0.0,0.0,0.0,0.0,0.0,0.0,0.0,0.0,0.0,0.0,0.0,0.0,0.0,0.0,0.0,0.0,0.0,0.0,0.0,0.0,0.0,0.0,0.0,0.0,0.0,0.0,0.0,0.0,0.0,0.0,0.0,0.0,0.0,0.0,0.0,0.0,0.0,0.0,0.0,0.0,0.0,0.0,0.0,0.0,0.0,0.0,0.0,0.0,0.0,0.0,0.0,0.0,0.0,0.0,0.0,0.0,0.0,0.0,0.0,0.0,0.0,0.0,0.0,0.0,0.0,0.0,0.0,0.0,0.0,0.0,0.0,0.0,0.0,0.0,0.0,0.0,0.0,0.0,0.0,0.0,0.0,0.0,0.0,0.0,0.0,0.0,0.0,0.0,0.0,0.0,0.0,0.0,0.0,0.0,0.0,0.0,0.0,0.0,0.0,0.0,0.0,0.0,0.0,0.0,0.0,0.0,0.0,0.0,0.0,0.0,0.0,0.0,0.0,0.0,0.0,0.0,0.0,0.0,0.0,0.0,0.0,0.0,0.0,0.0,0.0,0.0,0.0,0.0,0.0,0.0,0.0,0.0,0.0,0.0,0.0,0.0,0.0,0.0,0.0,0.0,0.0,0.0,0.0,0.0,0.0,0.0,0.0,0.0,0.0,0.0,0.0,0.0,0.0,0.0,0.0,0.0,0.0,0.0,0.0,0.0,0.0,0.0,0.0,0.0,0.0,0.0,0.0,0.0,0.0,0.0,0.0,0.0,0.0,0.0,0.0,0.0,0.0,0.0,0.0,0.0,0.0,0.0,0.0,0.0,0.0,0.0,0.0,0.0,0.0,0.0,0.0,0.0,0.0,0.0,0.0,0.0,0.0,0.0,0.0,0.0,0.0,0.0,0.0,0.0,0.0,0.0,0.0,0.0,0.0,0.0,0.0,0.0,0.0,0.0,0.0,0.0,0.0,0.0,0.0,0.0,0.0,0.0,0.0,0.0,0.0,0.0,0.0,0.0,0.0,0.0,0.0,0.0,0.0,0.0,0.0,0.0,0.0,0.0,0.0,0.0,0.0,0.0,0.0,0.0,0.0,0.0,0.0,0.0,0.0,0.0,0.0,0.0,0.0,0.0,0.0,0.0,0.0,0.0,0.0,0.0,0.0,0.0,0.0,0.0,0.0,0.0,0.0,0.0,0.0,0.0,0.0,0.0,0.0,0.0,0.0,0.0,0.0,0.0,0.0,0.0,0.0,0.0,0.0,0.0,0.0,0.0,0.0,0.0,0.0,0.0,0.0,0.0,0.0,0.0,0.0,0.0,0.0,0.0,0.0,0.0,0.0,0.0,0.0,0.0,0.0,0.0,0.0,0.0,0.0,0.0,0.0,0.0,0.0,0.0,0.0,0.0,0.0,0.0,0.0,0.0,0.0,0.0,0.0,0.0,0.0,0.0,0.0,0.0,0.0,0.0,0.0,0.0,0.0,0.0,0.0,0.0,0.0,0.0,0.0,0.0,0.0,0.0,0.0,0.0,0.0,0.0,0.0,0.0,0.0,0.0,0.0,0.0,0.0,0.0,0.0,0.0,0.0,0.0,0.0,0.0,0.0,0.0,0.0,0.0,0.0,0.0,0.0,0.0,0.0,0.0,0.0,0.0,0.0,0.0,0.0,0.0,0.0,0.0,0.0,0.0,0.0,0.0,0.0,0.0,0.0,0.0,0.0,0.0,0.0,0.0,0.0,0.0,0.0,0.0,0.0,0.0,0.0,0.0,0.0,0.0,0.0,0.0,0.0,0.0,0.0,0.0,0.0,0.0,0.0,0.0,0.0,0.0,0.0,0.0,0.0,0.0,0.0,0.0,0.0,0.0,0.0,0.0,0.0,0.0,0.0,0.0,0.0,0.0,0.0,0.0,0.0,0.0,0.0,0.0,0.0,0.0,0.0,0.0,0.0,0.0,0.0,0.0,0.0,0.0,0.0,0.0,0.0,0.0,0.0,0.0,0.0,0.0,0.0,0.0,0.0,0.0,0.0,0.0,0.0,0.0,0.0,0.0,0.0,0.0,0.0,0.0,0.0,0.0,0.0,0.0,0.0,0.0,0.0,0.0,0.0,0.0,0.0,0.0,0.0,0.0,0.0,0.0,0.0,0.0,0.0,0.0,0.0,0.0,0.0,0.0,0.0,0.0,0.0,0.0,0.0,0.0,0.0,0.0,0.0,0.0,0.0,0.0,0.0,0.0,0.0,0.0,0.0,0.0,0.0,0.0,0.0,0.0,0.0,0.0,0.0,0.0,0.0,0.0,0.0,0.0,0.0,0.0,0.0,0.0,0.0,0.0,0.0,0.0,0.0,0.0,0.0,0.0,0.0,0.0,0.0,0.0,0.0,0.0,0.0,0.0,0.0,0.0,0.0,0.0,0.0,0.0,0.0,0.0,0.0,0.0,0.0,0.0,0.0,0.0,0.0,0.0,0.0,0.0,0.0,0.0,0.0,0.0,0.0,0.0,0.0,0.0,0.0,0.0,0.0,0.0,0.0,0.0,0.0,0.0,0.0,0.0,0.0,0.0,0.0,0.0,0.0,0.0,0.0,0.0,0.0,0.0,0.0,0.0,0.0,0.0,0.0,0.0,0.0,0.0,0.0,0.0,0.0,0.0,0.0,0.0,0.0,0.0,0.0,0.0,0.0,0.0,0.0,0.0,0.0,0.0,0.0,0.0,0.0,0.0,0.0,0.0,0.0,0.0,0.0,0.0,0.0,0.0,0.0,0.0,0.0,0.0,0.0,0.0,0.0,0.0,0.0,0.0,0.0,0.0,0.0,0.0,0.0,0.0,0.0,0.0,0.0,0.0,0.0,0.0,0.0,0.0,0.0,0.0,0.0,0.0,0.0,0.0,0.0,0.0,0.0,0.0,0.0,0.0,0.0,0.0,0.0,0.0,0.0,0.0,0.0,0.0,0.0,0.0,0.0,0.0,0.0,0.0,0.0,0.0,0.0,0.0,0.0,0.0,0.0,0.0,0.0,0.0,0.0,0.0,0.0,0.0,0.0,0.0,0.0,0.0,0.0,0.0,0.0,0.0,0.0,0.0,0.0,0.0,0.0,0.0,0.0,0.0,0.0,0.0,0.0,0.0,0.0,0.0,0.0,0.0,0.0,0.0,0.0,0.0,0.0,0.0,0.0,0.0,0.0,0.0,0.0,0.0,0.0,0.0,0.0,0.0,0.0,0.0,0.0,0.0,0.0,0.0,0.0,0.0,0.0,0.0,0.0,0.0,0.0,0.0,0.0,0.0,0.0,0.0,0.0,0.0,0.0,0.0,0.0,0.0,0.0,0.0,0.0,0.0,0.0,0.0,0.0,0.0,0.0,0.0,0.0,0.0,0.0,0.0,0.0,0.0,0.0,0.0,0.0,0.0,0.0,0.0,0.0,0.0,0.0,0.0,0.0,0.0,0.0,0.0,0.0,0.0,0.0,0.0,0.0,0.0,0.0,0.0,0.0,0.0,0.0,0.0,0.0,0.0,0.0,0.0,0.0,0.0,0.0,0.0,0.0,0.0,0.0,0.0,0.0,0.0,0.0,0.0,0.0,0.0,0.0,0.0,0.0,0.0,0.0,0.0,0.0,0.0,0.0,0.0,0.0,0.0,0.0,0.0,0.0,0.0,0.0,0.0,0.0,0.0,0.0,0.0,0.0,0.0,0.0,0.0,0.0,0.0,0.0,0.0,0.0,0.0,0.0,0.0,0.0,0.0,0.0,0.0,0.0,0.0,0.0,0.0,0.0,0.0,0.0,0.0,0.0,0.0,0.0,0.0,0.0,0.0,0.0,0.0,0.0,0.0,0.0,0.0,0.0,0.0,0.0,0.0,0.0,0.0,0.0,0.0,0.0,0.0,0.0,0.0,0.0,0.0,0.0,0.0,0.0,0.0,0.0,0.0,0.0,0.0,0.0,0.0,0.0,0.0,0.0,0.0,0.0,0.0,0.0,0.0,0.0,0.0,0.0,0.0,0.0,0.0,0.0,0.0,0.0,0.0,0.0,0.0,0.0,0.0,0.0,0.0,0.0,0.0,0.0,0.0,0.0,0.0,0.0,0.0,0.0,0.0,0.0,0.0,0.0,0.0,0.0,0.0,0.0,0.0,0.0,0.0,0.0,0.0,0.0,0.0,0.0,0.0,0.0,0.0,0.0,-0.7343,0.0,0.0,0.0,0.0,0.0,0.0,0.0,0.0,0.0,0.0,0.0,0.0,0.0,0.0,0.0,0.0,0.0,0.0,0.0,0.0,0.0,0.0,0.0,0.0,0.0,0.0,0.0,0.0,0.0,0.0,0.0,0.0,0.0,0.0,0.0,0.0,0.0,0.0,0.0,0.0,0.0,0.0,0.0,0.0,0.0,0.0,0.0,0.0,0.0,0.0,0.0,0.0,0.0,0.0,0.0,0.0,0.0,0.0,0.0,0.0,0.0,0.0,0.0,0.0,0.0,0.0,0.0,0.0,0.0,0.0,0.0,0.0,0.0,0.0,0.0,0.0,0.0,0.0,0.0,0.0,0.0,0.0,0.0,0.0,0.0,0.0,0.0,0.0,0.0,0.0,0.0,0.0,0.0,0.0,0.0,0.0,0.0,0.0,0.0,0.0,0.0,0.0,0.0,0.0,0.0,0.0,0.0,0.0,0.0,0.0,-0.7012,-0.7024,-0.728,-0.7354,-0.7157,0.0,0.0,0.0,0.0,0.0,0.0,0.0,0.0,0.0,0.0,0.0,0.0,0.0,0.0,0.0,0.0,0.0,0.0,0.0,0.0,0.0,0.0,0.0,0.0,0.0,0.0,0.0,0.0,0.0,0.0,0.0,0.0,0.0,0.0,0.0,0.0,0.0,0.0,0.0,0.0,0.0,0.0,0.0,0.0,0.0,0.0,0.0,0.0,0.0,0.0,0.0,0.0,0.0,0.0,0.0,0.0,0.0,0.0,0.0,0.0,0.0,0.0,0.0,0.0,0.0,0.0,0.0,0.0,0.0,0.0,0.0,0.0,0.0,0.0,0.0,0.0,0.0,0.0,0.0,0.0,0.0,0.0,0.0,0.0,0.0,0.0,0.0,0.0,0.0,0.0,0.0,0.0,0.0,0.0,0.0,0.0,0.0,0.0,0.0,0.0,0.0,0.0,0.0,0.0,0.0,0.0,0.0,0.0,0.0,0.0,0.0,0.0,-0.7272,-0.7362,-0.7028,0.0,0.0,0.0,0.0,0.0,0.0,0.0,0.0,0.0,0.0,0.0,0.0,0.0,0.0,0.0,0.0,0.0,0.0,0.0,0.0,0.0,0.0,0.0,0.0,0.0,0.0,0.0,0.0,0.0,0.0,0.0,0.0,0.0,0.0,0.0,0.0,0.0,0.0,0.0,0.0,0.0,0.0,0.0,0.0,0.0,0.0,0.0,0.0,0.0,0.0,0.0,0.0,0.0,0.0,0.0,0.0,0.0,0.0,0.0,0.0,0.0,0.0,0.0,0.0,0.0,0.0,0.0,0.0,0.0,0.0,0.0,0.0,0.0,0.0,0.0,0.0,0.0,0.0,0.0,0.0,0.0,0.0,0.0,0.0,0.0,0.0,0.0,0.0,0.0,0.0,0.0,0.0,0.0,0.0,0.0,0.0,0.0,0.0,0.0,0.0,0.0,0.0,0.0,0.0,0.0,0.0,0.0,0.0,0.0,0.0,-0.6937,-0.692,-0.7365,0.0,-0.7095,0.0,0.0,0.0,0.0,0.0,0.0,0.0,0.0,0.0,0.0,0.0,0.0,0.0,0.0,0.0,0.0,0.0,0.0,0.0,0.0,0.0,0.0,0.0,0.0,0.0,0.0,0.0,0.0,0.0,0.0,0.0,0.0,0.0,0.0,0.0,0.0,0.0,0.0,0.0,0.0,0.0,0.0,0.0,0.0,0.0,0.0,0.0,0.0,0.0,0.0,0.0,0.0,0.0,0.0,0.0,0.0,0.0,0.0,0.0,0.0,0.0,0.0,0.0,0.0,0.0,0.0,0.0,0.0,0.0,0.0,0.0,0.0,0.0,0.0,0.0,0.0,0.0,0.0,0.0,0.0,0.0,0.0,0.0,0.0,0.0,0.0,0.0,0.0,0.0,0.0,0.0,0.0,0.0,0.0,0.0,0.0,0.0,0.0,0.0,0.0,0.0,0.0,0.0,0.0,0.0,0.0,0.0,0.0,0.0,0.0,-0.6946,-0.7073,-0.7327,-0.7323,0.0,0.0,0.0,0.0,0.0,0.0,0.0,0.0,0.0,0.0,0.0,0.0,0.0,0.0,0.0,0.0,0.0,0.0,0.0,0.0,0.0,0.0,0.0,0.0,0.0,0.0,0.0,0.0,0.0,0.0,0.0,0.0,0.0,0.0,0.0,0.0,0.0,0.0,0.0,0.0,0.0,0.0,0.0,0.0,0.0,0.0,0.0,0.0,0.0,0.0,0.0,0.0,0.0,0.0,0.0,0.0,0.0,0.0,0.0,0.0,0.0,0.0,0.0,0.0,0.0,0.0,0.0,0.0,0.0,0.0,0.0,0.0,0.0,0.0,0.0,0.0,0.0,0.0,0.0,0.0,0.0,0.0,0.0,0.0,0.0,0.0,0.0,0.0,0.0,0.0,0.0,0.0,0.0,0.0,0.0,0.0,0.0,0.0,0.0,0.0,0.0,0.0,0.0,0.0,0.0,0.0,0.0,0.0,0.0,0.0,-0.6392,-0.7019,-0.7377,-0.7368,-0.7362,-0.737,0.0,0.0,0.0,0.0,0.0,0.0,0.0,0.0,0.0,0.0,0.0,0.0,0.0,0.0,0.0,0.0,0.0,0.0,0.0,0.0,0.0,0.0,0.0,0.0,0.0,0.0,0.0,0.0,0.0,0.0,0.0,0.0,0.0,0.0,0.0,0.0,0.0,0.0,0.0,0.0,0.0,0.0,0.0,0.0,0.0,0.0,0.0,0.0,0.0,0.0,0.0,0.0,0.0,0.0,0.0,0.0,0.0,0.0,0.0,0.0,0.0,0.0,0.0,0.0,0.0,0.0,0.0,0.0,0.0,0.0,0.0,0.0,0.0,0.0,0.0,0.0,0.0,0.0,0.0,0.0,0.0,0.0,0.0,0.0,0.0,0.0,0.0,0.0,0.0,0.0,0.0,0.0,0.0,0.0,0.0,0.0,0.0,0.0,0.0,0.0,0.0,0.0,0.0,0.0,0.0,0.0,0.0,0.0,-0.5713,-0.6371,-0.7135,-0.7907,-0.768,-0.7558,0.0,0.0,0.0,0.0,0.0,0.0,0.0,0.0,0.0,0.0,0.0,0.0,0.0,0.0,0.0,0.0,0.0,0.0,0.0,0.0,0.0,0.0,0.0,0.0,0.0,0.0,0.0,0.0,0.0,0.0,0.0,0.0,0.0,0.0,0.0,0.0,0.0,0.0,0.0,0.0,0.0,0.0,0.0,0.0,0.0,0.0,0.0,0.0,0.0,0.0,0.0,0.0,0.0,0.0,0.0,0.0,0.0,0.0,0.0,0.0,0.0,0.0,0.0,0.0,0.0,0.0,0.0,0.0,0.0,0.0,0.0,0.0,0.0,0.0,0.0,0.0,0.0,0.0,0.0,0.0,0.0,0.0,0.0,0.0,0.0,0.0,0.0,0.0,0.0,0.0,0.0,0.0,0.0,0.0,0.0,0.0,0.0,0.0,0.0,0.0,0.0,0.0,0.0,0.0,0.0,0.0,0.0,0.0,0.0,-0.5754,-0.6687,-0.7385,-0.7777,-0.7552,-0.7372,0.0,0.0,0.0,0.0,0.0,0.0,0.0,0.0,0.0,0.0,0.0,0.0,0.0,0.0,0.0,0.0,0.0,0.0,0.0,0.0,0.0,0.0,0.0,0.0,0.0,0.0,0.0,0.0,0.0,0.0,0.0,0.0,0.0,0.0,0.0,0.0,0.0,0.0,0.0,0.0,0.0,0.0,0.0,0.0,0.0,0.0,0.0,0.0,0.0,0.0,0.0,0.0,0.0,0.0,0.0,0.0,0.0,0.0,0.0,0.0,0.0,0.0,0.0,0.0,0.0,0.0,0.0,0.0,0.0,0.0,0.0,0.0,0.0,0.0,0.0,0.0,0.0,0.0,0.0,0.0,0.0,0.0,0.0,0.0,0.0,0.0,0.0,0.0,0.0,0.0,0.0,0.0,0.0,0.0,0.0,0.0,0.0,0.0,0.0,0.0,0.0,0.0,0.0,0.0,0.0,0.0,0.0,0.0,0.0,-0.6057,0.0,-0.7722,-0.7842,-0.7614,-0.739,0.0,0.0,0.0,0.0,0.0,0.0,0.0,0.0,0.0,0.0,0.0,0.0,0.0,0.0,0.0,0.0,0.0,0.0,0.0,0.0,0.0,0.0,0.0,0.0,0.0,0.0,0.0,0.0,0.0,0.0,0.0,0.0,0.0,0.0,0.0,0.0,0.0,0.0,0.0,0.0,0.0,0.0,0.0,0.0,0.0,0.0,0.0,0.0,0.0,0.0,0.0,0.0,0.0,0.0,0.0,0.0,0.0,0.0,0.0,0.0,0.0,0.0,0.0,0.0,0.0,0.0,0.0,0.0,0.0,0.0,0.0,0.0,0.0,0.0,0.0,0.0,0.0,0.0,0.0,0.0,0.0,0.0,0.0,0.0,0.0,0.0,0.0,0.0,0.0,0.0,0.0,0.0,0.0,0.0,0.0,0.0,0.0,0.0,0.0,0.0,0.0,0.0,0.0,0.0,0.0,0.0,0.0,0.0,-0.5372,-0.6662,-0.758,-0.8062,-0.8166,-0.7931,-0.7635,0.0,0.0,0.0,0.0,0.0,0.0,0.0,0.0,0.0,0.0,0.0,0.0,0.0,0.0,0.0,0.0,0.0,0.0,0.0,0.0,0.0,0.0,0.0,0.0,0.0,0.0,0.0,0.0,0.0,0.0,0.0,0.0,0.0,0.0,0.0,0.0,0.0,0.0,0.0,0.0,0.0,0.0,0.0,0.0,0.0,0.0,0.0,0.0,0.0,0.0,0.0,0.0,0.0,0.0,0.0,0.0,0.0,0.0,0.0,0.0,0.0,0.0,0.0,0.0,0.0,0.0,0.0,0.0,0.0,0.0,0.0,0.0,0.0,0.0,0.0,0.0,0.0,0.0,0.0,0.0,0.0,0.0,0.0,0.0,0.0,0.0,0.0,0.0,0.0,0.0,0.0,0.0,0.0,0.0,0.0,0.0,0.0,0.0,0.0,0.0,0.0,0.0,0.0,0.0,0.0,0.0,0.0,0.0,0.0,-0.7331,-0.7805,-0.8214,-0.8471,-0.798,-0.7547,0.0,0.0,0.0,0.0,0.0,0.0,0.0,0.0,0.0,0.0,0.0,0.0,0.0,0.0,0.0,0.0,0.0,0.0,0.0,0.0,0.0,0.0,0.0,0.0,0.0,0.0,0.0,0.0,0.0,0.0,0.0,0.0,0.0,0.0,0.0,0.0,0.0,0.0,0.0,0.0,0.0,0.0,0.0,0.0,0.0,0.0,0.0,0.0,0.0,0.0,0.0,0.0,0.0,0.0,0.0,0.0,0.0,0.0,0.0,0.0,0.0,0.0,0.0,0.0,0.0,0.0,0.0,0.0,0.0,0.0,0.0,0.0,0.0,0.0,0.0,0.0,0.0,0.0,0.0,0.0,0.0,0.0,0.0,0.0,0.0,0.0,0.0,0.0,0.0,0.0,0.0,0.0,0.0,0.0,0.0,0.0,0.0,0.0,0.0,0.0,0.0,0.0,0.0,0.0,0.0,0.0,0.0,0.0,0.0,-0.8466,-0.8612,-0.8806,-0.9131,-0.8531,-0.7925,-0.7356,0.0,0.0,0.0,0.0,0.0,0.0,0.0,0.0,0.0,0.0,0.0,0.0,0.0,0.0,0.0,0.0,0.0,0.0,0.0,0.0,0.0,0.0,0.0,0.0,0.0,0.0,0.0,0.0,0.0,0.0,0.0,0.0,0.0,0.0,0.0,0.0,0.0,0.0,0.0,0.0,0.0,0.0,0.0,0.0,0.0,0.0,0.0,0.0,0.0,0.0,0.0,0.0,0.0,0.0,0.0,0.0,0.0,0.0,0.0,0.0,0.0,0.0,0.0,0.0,0.0,0.0,0.0,0.0,0.0,0.0,0.0,0.0,0.0,0.0,0.0,0.0,0.0,0.0,0.0,0.0,0.0,0.0,0.0,0.0,0.0,0.0,0.0,0.0,0.0,0.0,0.0,0.0,0.0,0.0,0.0,0.0,0.0,0.0,0.0,0.0,0.0,0.0,0.0,0.0,0.0,0.0,0.0,0.0,-1.0069,-0.9882,-0.9944,-1.0068,-0.9436,-0.877,0.0,0.0,0.0,0.0,0.0,0.0,0.0,0.0,0.0,0.0,0.0,0.0,0.0,0.0,0.0,0.0,0.0,0.0,0.0,0.0,0.0,0.0,0.0,0.0,0.0,0.0,0.0,0.0,0.0,0.0,0.0,0.0,0.0,0.0,0.0,0.0,0.0,0.0,0.0,0.0,0.0,0.0,0.0,0.0,0.0,0.0,0.0,0.0,0.0,0.0,0.0,0.0,0.0,0.0,0.0,0.0,0.0,0.0,0.0,0.0,0.0,0.0,0.0,0.0,0.0,0.0,0.0,0.0,0.0,0.0,0.0,0.0,0.0,0.0,0.0,0.0,0.0,0.0,0.0,0.0,0.0,0.0,0.0,0.0,0.0,0.0,0.0,0.0,0.0,0.0,0.0,0.0,0.0,0.0,0.0,0.0,0.0,0.0,0.0,0.0,0.0,0.0,0.0,0.0,0.0,0.0,0.0,0.0,0.0,-1.1334,-1.2155,-1.2179,-1.1329,-1.0504,-0.9719,0.0,0.0,0.0,0.0,0.0,0.0,0.0,0.0,0.0,0.0,0.0,0.0,0.0,0.0,0.0,0.0,0.0,0.0,0.0,0.0,0.0,0.0,0.0,0.0,0.0,0.0,0.0,0.0,0.0,0.0,0.0,0.0,0.0,0.0,0.0,0.0,0.0,0.0,0.0,0.0,0.0,0.0,0.0,0.0,0.0,0.0,0.0,0.0,0.0,0.0,0.0,0.0,0.0,0.0,0.0,0.0,0.0,0.0,0.0,0.0,0.0,0.0,0.0,0.0,0.0,0.0,0.0,0.0,0.0,0.0,0.0,0.0,0.0,0.0,0.0,0.0,0.0,0.0,0.0,0.0,0.0,0.0,0.0,0.0,0.0,0.0,0.0,0.0,0.0,0.0,0.0,0.0,0.0,0.0,0.0,0.0,0.0,0.0,0.0,0.0,0.0,0.0,0.0,0.0,0.0,0.0,0.0,0.0,-1.1166,-1.2452,-1.3761,-1.4145,-1.3411,-1.1924,-1.0738,0.0,0.0,0.0,0.0,0.0,0.0,0.0,0.0,0.0,0.0,0.0,0.0,0.0,0.0,0.0,0.0,0.0,0.0,0.0,0.0,0.0,0.0,0.0,0.0,0.0,0.0,0.0,0.0,0.0,0.0,0.0,0.0,0.0,0.0,0.0,0.0,0.0,0.0,0.0,0.0,0.0,0.0,0.0,0.0,0.0,0.0,0.0,0.0,0.0,0.0,0.0,0.0,0.0,0.0,0.0,0.0,0.0,0.0,0.0,0.0,0.0,0.0,0.0,0.0,0.0,0.0,0.0,0.0,0.0,0.0,0.0,0.0,0.0,0.0,0.0,0.0,0.0,0.0,0.0,0.0,0.0,0.0,0.0,0.0,0.0,0.0,0.0,0.0,0.0,0.0,0.0,0.0,0.0,0.0,0.0,0.0,0.0,0.0,0.0,0.0,0.0,0.0,0.0,0.0,0.0,0.0,0.0,0.0,-1.2452,-1.3438,-1.5012,-1.5831,-1.5689,-1.3593,-1.1874,0.0,0.0,0.0,0.0,0.0,0.0,0.0,0.0,0.0,0.0,0.0,0.0,0.0,0.0,0.0,0.0,0.0,0.0,0.0,0.0,0.0,0.0,0.0,0.0,0.0,0.0,0.0,0.0,0.0,0.0,0.0,0.0,0.0,0.0,0.0,0.0,0.0,0.0,0.0,0.0,0.0,0.0,0.0,0.0,0.0,0.0,0.0,0.0,0.0,0.0,0.0,0.0,0.0,0.0,0.0,0.0,0.0,0.0,0.0,0.0,0.0,0.0,0.0,0.0,0.0,0.0,0.0,0.0,0.0,0.0,0.0,0.0,0.0,0.0,0.0,0.0,0.0,0.0,0.0,0.0,0.0,0.0,0.0,0.0,0.0,0.0,0.0,0.0,0.0,0.0,0.0,0.0,0.0,0.0,0.0,0.0,0.0,0.0,0.0,0.0,0.0,0.0,0.0,0.0,0.0,0.0,0.0,0.0,-1.3984,-1.5126,-1.6547,-1.7199,-1.7075,-1.515,-1.3696,0.0,0.0,0.0,0.0,0.0,0.0,0.0,0.0,0.0,0.0,0.0,0.0,0.0,0.0,0.0,0.0,0.0,0.0,0.0,0.0,0.0,0.0,0.0,0.0,0.0,0.0,0.0,0.0,0.0,0.0,0.0,0.0,0.0,0.0,0.0,0.0,0.0,0.0,0.0,0.0,0.0,0.0,0.0,0.0,0.0,0.0,0.0,0.0,-1.5848,0.0,0.0,0.0,0.0,0.0,0.0,0.0,0.0,0.0,0.0,0.0,0.0,0.0,0.0,0.0,0.0,0.0,0.0,0.0,0.0,0.0,0.0,0.0,0.0,0.0,0.0,0.0,0.0,0.0,0.0,0.0,0.0,0.0,0.0,0.0,0.0,0.0,0.0,0.0,0.0,0.0,0.0,0.0,0.0,0.0,0.0,0.0,0.0,0.0,0.0,0.0,0.0,0.0,0.0,0.0,0.0,0.0,0.0,0.0,-1.5265,-1.6405,-1.7778,-1.8241,-1.7856,-1.6647,-1.5217,0.0,0.0,0.0,0.0,0.0,0.0,0.0,0.0,0.0,0.0,0.0,0.0,0.0,0.0,0.0,0.0,0.0,0.0,0.0,0.0,0.0,0.0,0.0,0.0,0.0,0.0,0.0,0.0,0.0,0.0,0.0,0.0,0.0,0.0,0.0,0.0,0.0,0.0,0.0,0.0,0.0,0.0,0.0,0.0,0.0,0.0,0.0,0.0,0.0,0.0,0.0,0.0,0.0,0.0,0.0,0.0,0.0,0.0,0.0,0.0,0.0,0.0,0.0,0.0,0.0,0.0,0.0,0.0,0.0,0.0,0.0,0.0,0.0,0.0,0.0,0.0,0.0,0.0,0.0,0.0,0.0,0.0,0.0,0.0,0.0,0.0,0.0,0.0,0.0,0.0,0.0,0.0,0.0,0.0,0.0,0.0,0.0,0.0,0.0,0.0,0.0,0.0,0.0,0.0,0.0,0.0,0.0,-1.4832,-1.6401,-1.7486,-1.8802,-1.9187,-1.8552,-1.799,-1.6597,-1.429,0.0,0.0,0.0,0.0,0.0,0.0,0.0,0.0,0.0,0.0,0.0,0.0,0.0,0.0,0.0,0.0,0.0,0.0,0.0,0.0,0.0,0.0,0.0,0.0,0.0,0.0,0.0,0.0,0.0,0.0,0.0,0.0,0.0,0.0,0.0,0.0,0.0,0.0,0.8731,0.9499,0.0,0.0,0.0,0.0,0.0,0.0,0.0,0.0,-1.6761,0.0,0.0,0.0,0.0,0.0,0.0,0.0,0.0,0.0,0.0,0.0,0.0,0.0,0.0,0.0,0.0,0.0,0.0,0.0,0.0,0.0,0.0,0.0,0.0,0.0,0.0,0.0,0.0,0.0,0.0,0.0,0.0,0.0,0.0,0.0,0.0,0.0,0.0,0.0,0.0,0.0,0.0,0.0,0.0,0.0,0.0,0.0,0.0,0.0,0.0,0.0,0.0,0.0,0.0,0.0,0.0,-1.352,-1.5839,-1.7539,-1.8654,-1.9803,-2.013,-1.961,-1.8865,-1.7484,-1.5572,0.0,0.0,0.0,0.0,0.0,0.0,0.0,0.0,0.0,0.0,0.0,0.0,0.0,0.0,0.0,0.0,0.0,0.0,0.0,0.0,0.0,0.0,0.0,0.0,0.0,0.0,0.0,0.0,0.0,0.0,0.0,0.0,0.0,0.0,0.0,0.0,0.0,0.0,0.0,1.0674,1.038,0.0,0.0,0.0,0.0,0.0,0.0,0.0,0.0,-1.7693,0.0,0.0,0.0,0.0,0.0,0.0,0.0,0.0,0.0,0.0,0.0,0.0,0.0,0.0,0.0,0.0,0.0,0.0,0.0,0.0,0.0,0.0,0.0,0.0,0.0,0.0,0.0,0.0,0.0,0.0,0.0,0.0,0.0,0.0,0.0,0.0,0.0,0.0,0.0,0.0,0.0,0.0,0.0,0.0,0.0,0.0,0.0,0.0,0.0,0.0,0.0,0.0,0.0,0.0,0.0,-1.4542,-1.6831,-1.8468,-1.9538,-2.0277,-2.0482,-1.9885,-1.8824,-1.7514,0.0,0.0,0.0,0.0,0.0,0.0,0.0,0.0,0.0,0.0,0.0,0.0,0.0,0.0,0.0,0.0,0.0,0.0,0.0,0.0,0.0,0.0,0.0,0.0,0.0,0.0,0.0,0.0,0.0,0.0,0.0,0.0,0.0,0.0,0.0,0.0,0.0,0.0,0.0,0.0,1.1386,1.1479,1.0362,0.0,0.0,0.0,0.0,0.0,0.0,-1.5996,-1.7998,0.0,0.0,0.0,0.0,0.0,0.0,0.0,0.0,0.0,0.0,0.0,0.0,0.0,0.0,0.0,0.0,0.0,0.0,0.0,0.0,0.0,0.0,0.0,0.0,0.0,0.0,0.0,0.0,0.0,0.0,0.0,0.0,0.0,0.0,0.0,0.0,0.0,0.0,0.0,0.0,0.0,0.0,0.0,0.0,0.0,0.0,0.0,0.0,0.0,0.0,0.0,0.0,0.0,0.0,0.0,-1.5565,-1.7661,-1.9162,-2.0113,-2.0596,-2.0627,-1.9961,-1.8751,-1.742,0.0,0.0,0.0,0.0,0.0,0.0,0.0,0.0,0.0,0.0,0.0,0.0,0.0,0.0,0.0,0.0,0.0,0.0,0.0,0.0,0.0,0.0,0.0,0.0,0.0,0.0,0.0,0.0,0.0,0.0,0.0,0.0,0.0,0.0,0.0,0.0,0.0,0.0,0.0,0.0,0.0,1.2157,1.1019,0.9105,0.0,0.0,0.0,0.0,-1.2447,-1.6278,0.0,0.0,0.0,0.0,0.0,0.0,0.0,0.0,0.0,0.0,0.0,0.0,0.0,0.0,0.0,0.0,0.0,0.0,0.0,0.0,0.0,0.0,0.0,0.0,0.0,0.0,0.0,0.0,0.0,0.0,0.0,0.0,0.0,0.0,0.0,0.0,0.0,0.0,0.0,0.0,0.0,0.0,0.0,0.0,0.0,0.0,0.0,0.0,0.0,0.0,0.0,0.0,0.0,0.0,0.0,0.0,-1.614,-1.8089,-1.9479,-2.0396,-2.0909,-2.086,-2.0265,-1.9183,-1.7915,0.0,0.0,0.0,0.0,0.0,0.0,0.0,0.0,0.0,0.0,0.0,0.0,0.0,0.0,0.0,0.0,0.0,0.0,0.0,0.0,0.0,0.0,0.0,0.0,0.0,0.0,0.0,0.0,0.0,0.0,0.0,0.0,0.0,0.0,0.0,0.0,0.0,0.0,0.0,0.0,0.0,1.1954,1.0405,0.7783,0.4196,0.0,0.0,-0.8887,-1.374,-1.6315,0.0,0.0,0.0,0.0,0.0,0.0,0.0,0.0,0.0,0.0,0.0,0.0,0.0,0.0,0.0,0.0,0.0,0.0,0.0,0.0,0.0,0.0,0.0,0.0,0.0,0.0,0.0,0.0,0.0,0.0,0.0,0.0,0.0,0.0,0.0,0.0,0.0,0.0,0.0,0.0,0.0,0.0,0.0,0.0,0.0,0.0,0.0,0.0,0.0,0.0,0.0,0.0,0.0,0.0,0.0,-1.4665,-1.6689,-1.8859,-2.0158,-2.0599,-2.1096,-2.0926,-2.0191,-1.888,-1.7536,0.0,0.0,0.0,0.0,0.0,0.0,0.0,0.0,0.0,0.0,0.0,0.0,0.0,0.0,0.0,0.0,0.0,0.0,0.0,0.0,0.0,0.0,0.0,0.0,0.0,0.0,0.0,0.0,0.0,0.0,0.0,0.0,0.0,0.0,0.0,0.0,0.0,0.0,0.0,0.0,0.0,0.0,0.9231,0.6184,0.0,0.0,0.0,-1.2232,-1.4459,0.0,0.0,0.0,0.0,0.0,0.0,0.0,0.0,0.0,0.0,0.0,0.0,0.0,0.0,0.0,0.0,0.0,0.0,0.0,0.0,0.0,0.0,0.0,0.0,0.0,0.0,0.0,0.0,0.0,0.0,0.0,0.0,0.0,0.0,0.0,0.0,0.0,0.0,0.0,0.0,0.0,0.0,0.0,0.0,0.0,0.0,0.0,0.0,0.0,0.0,0.0,0.0,0.0,0.0,0.0,0.0,0.0,-1.6912,-1.9079,-2.0389,-2.0677,-2.0955,-2.0711,-1.9971,-1.849,0.0,0.0,0.0,0.0,0.0,0.0,0.0,0.0,0.0,0.0,0.0,0.0,0.0,0.0,0.0,0.0,0.0,0.0,0.0,0.0,0.0,0.0,0.0,0.0,0.0,0.0,0.0,-1.1725,0.0,0.0,0.0,0.0,0.0,0.0,0.0,0.0,0.0,0.0,0.0,0.0,0.0,0.0,0.9556,0.7486,0.4299,0.0498,0.0,0.0,-1.3984,-1.5325,-1.7673,-1.9344,0.0,0.0,0.0,0.0,0.0,0.0,0.0,0.0,0.0,0.0,0.0,0.0,0.0,0.0,0.0,0.0,0.0,0.0,0.0,0.0,0.0,0.0,0.0,0.0,0.0,0.0,0.0,0.0,0.0,0.0,0.0,0.0,0.0,0.0,0.0,0.0,0.0,0.0,0.0,0.0,0.0,0.0,0.0,0.0,0.0,0.0,0.0,0.0,0.0,0.0,0.0,0.0,0.0,0.0,0.0,-1.6606,-1.8207,-1.9591,-2.0746,-2.0299,-1.9935,-1.9616,-1.8408,-1.7487,0.0,0.0,0.0,0.0,0.0,0.0,0.0,0.0,0.0,0.0,0.0,0.0,0.0,0.0,0.0,0.0,0.0,0.0,0.0,0.0,0.0,0.0,0.0,0.0,0.0,0.0,0.0,0.0,0.0,0.0,0.0,0.0,0.0,0.0,0.0,0.0,0.0,0.0,0.0,0.0,0.0,0.754,0.5132,0.2028,-0.1559,0.0,0.0,-1.3548,-1.679,-1.8892,-2.0412,-2.1145,0.0,0.0,0.0,0.0,0.0,0.0,0.0,0.0,0.0,0.0,0.0,0.0,0.0,0.0,0.0,0.0,0.0,0.0,0.0,0.0,0.0,0.0,0.0,0.0,0.0,0.0,0.0,0.0,0.0,0.0,0.0,0.0,0.0,0.0,0.0,0.0,0.0,0.0,0.0,0.0,0.0,0.0,0.0,0.0,0.0,0.0,0.0,0.0,0.0,0.0,0.0,0.0,0.0,-1.5476,-1.6764,-1.8811,-1.9934,-2.02,-2.0394,-2.0234,-1.9674,-1.8414,-1.7531,0.0,0.0,0.0,0.0,0.0,0.0,0.0,0.0,0.0,0.0,0.0,0.0,0.0,0.0,0.0,0.0,0.0,0.0,0.0,0.0,0.0,0.0,0.0,0.0,0.0,0.0,0.0,0.0,-1.3731,-1.3434,-1.2355,0.0,0.0,0.0,0.0,0.0,0.0,0.0,0.0,0.0,0.0,0.4511,0.2375,-0.1009,0.0,0.0,-1.2485,-1.5532,-1.792,-1.9965,-2.1334,-2.1594,-2.2508,0.0,0.0,0.0,0.0,0.0,0.0,0.0,0.0,0.0,0.0,0.0,0.0,0.0,0.0,0.0,0.0,0.0,0.0,0.0,0.0,0.0,0.0,0.0,0.0,0.0,0.0,0.0,0.0,0.0,0.0,0.0,0.0,0.0,0.0,0.0,0.0,0.0,0.0,0.0,0.0,0.0,0.0,0.0,0.0,0.0,0.0,0.0,0.0,0.0,0.0,0.0,0.0,-1.5806,-1.7087,-1.9017,-1.9964,-1.9789,-2.0226,-2.0202,-1.9613,-1.8402,-1.7597,0.0,0.0,0.0,0.0,0.0,0.0,0.0,0.0,0.0,0.0,0.0,0.0,0.0,0.0,0.0,0.0,0.0,0.0,0.0,0.0,0.0,0.0,0.0,0.0,0.0,0.0,0.0,0.0,-1.473,-1.4507,-1.3409,0.0,0.0,0.0,0.0,0.0,0.0,0.0,0.0,0.0,0.0,0.0349,-0.1885,-0.5123,-0.8727,-1.2614,-1.5508,-1.7987,-1.9849,-2.1753,-2.2864,-2.2317,0.0,0.0,0.0,0.0,0.0,0.0,0.0,0.0,0.0,0.0,0.0,0.0,0.0,0.0,0.0,0.0,0.0,0.0,0.0,0.0,0.0,0.0,0.0,0.0,0.0,0.0,0.0,0.0,0.0,0.0,-0.825,0.0,0.0,0.0,0.0,0.0,0.0,0.0,0.0,0.0,0.0,0.0,0.0,0.0,0.0,0.0,0.0,0.0,0.0,0.0,0.0,0.0,0.0,-1.5668,-1.7471,-1.8695,-1.9422,-1.9811,-1.9836,-1.9706,-1.942,-1.8227,-1.7605,-1.752,0.0,0.0,0.0,0.0,0.0,0.0,0.0,0.0,0.0,0.0,0.0,0.0,0.0,0.0,0.0,0.0,0.0,0.0,0.0,0.0,0.0,0.0,0.0,0.0,0.0,0.0,-1.5951,-1.5891,-1.5607,0.0,0.0,0.0,0.0,0.0,0.0,0.0,0.0,0.0,0.0,-0.3751,-0.5365,-0.7979,-1.0661,-1.3486,-1.6536,-1.8729,-2.0791,-2.2865,-2.4531,-2.5118,0.0,0.0,0.0,0.0,0.0,0.0,0.0,0.0,0.0,0.0,0.0,0.0,0.0,0.0,0.0,0.0,0.0,0.0,0.0,0.0,0.0,0.0,0.0,0.0,0.0,0.0,0.0,-1.1851,-1.1439,0.0,0.0,0.0,0.0,0.0,0.0,0.0,0.0,0.0,0.0,0.0,-1.8783,-1.8732,0.0,0.0,0.0,0.0,0.0,0.0,0.0,0.0,0.0,0.0,0.0,0.0,-1.6696,-1.7727,-1.9108,-1.994,-2.0067,-1.9978,-1.9711,-1.9158,-1.8325,-1.7202,-1.5781,0.0,0.0,0.0,0.0,0.0,0.0,0.0,0.0,0.0,0.0,0.0,0.0,0.0,0.0,0.0,0.0,0.0,0.0,0.0,0.0,0.0,0.0,0.0,0.0,0.0,-1.6647,0.0,0.0,0.0,0.0,0.0,0.0,0.0,0.0,0.0,0.0,0.0,-0.8739,-0.937,-1.0418,-1.3154,-1.8539,-1.8892,-1.9621,0.0,0.0,0.0,0.0,0.0,0.0,0.0,0.0,0.0,0.0,0.0,0.0,0.0,0.0,-2.5982,-2.4253,-2.4364,-2.4572,-2.4027,0.0,0.0,0.0,0.0,0.0,0.0,0.0,0.0,0.0,0.0,0.0,0.0,0.0,0.0,-1.427,0.0,-1.2915,0.0,0.0,0.0,0.0,0.0,0.0,0.0,0.0,-1.9099,-2.0258,-2.1171,-2.1131,-2.1068,0.0,-2.0339,-1.8652,0.0,0.0,0.0,0.0,0.0,0.0,0.0,0.0,-1.7822,-1.8373,-1.9709,-2.0372,-2.0321,-2.0182,-1.9775,-1.9082,-1.8244,-1.6873,-1.494,-1.4773,-1.4312,0.0,0.0,0.0,0.0,0.0,0.0,0.0,0.0,0.0,0.0,0.0,0.0,0.0,0.0,0.0,0.0,0.0,0.0,0.0,0.0,0.0,0.0,0.0,-1.7979,0.0,0.0,0.0,0.0,0.0,0.0,0.0,0.0,0.0,-1.446,-1.4505,-1.5219,-1.6279,-1.7767,-2.0533,-2.5596,0.0,0.0,0.0,0.0,0.0,0.0,0.0,-3.0192,-2.8727,-2.8935,-2.925,-2.9163,-2.9308,-2.9469,-2.9603,0.0,0.0,-2.608,-2.5845,-2.5918,-2.568,-2.4845,-2.4825,-2.6881,-2.8804,-3.0262,0.0,0.0,0.0,0.0,0.0,0.0,0.0,0.0,-1.6905,-1.6093,0.0,-1.4634,0.0,0.0,0.0,0.0,0.0,-1.6845,0.0,0.0,-2.1114,-2.2334,-2.318,-2.3365,-2.3541,-2.3631,-2.2829,-2.1895,-2.0741,-1.8096,0.0,0.0,0.0,0.0,0.0,0.0,-1.8967,-1.9387,-2.0355,-2.0746,-2.061,-2.0372,-1.9901,-1.9179,-1.8021,-1.6658,-1.5133,-1.4942,-1.4639,-1.3998,-1.3754,0.0,0.0,0.0,0.0,0.0,0.0,0.0,0.0,0.0,0.0,0.0,0.0,0.0,0.0,0.0,0.0,0.0,0.0,0.0,0.0,-1.8542,0.0,0.0,0.0,0.0,0.0,0.0,0.0,0.0,0.0,0.0,-2.0054,-2.0966,-2.2307,-2.335,0.0,0.0,0.0,0.0,-3.1261,-3.2258,-3.2949,-3.353,-3.3986,-3.3731,-3.2973,-3.1312,0.0,0.0,-2.8592,-2.8681,-2.8891,-2.9032,-2.9068,-2.8791,-2.7647,-2.678,-2.6332,-2.6332,-2.6393,-2.6993,-2.8497,-3.0316,-3.1985,-2.3093,0.0,0.0,0.0,0.0,-2.1005,-2.0673,-1.9998,-2.0091,-1.9698,-1.8935,-1.8065,0.0,0.0,0.0,0.0,0.0,0.0,-1.9812,-2.1183,-2.2778,-2.4052,-2.5051,-2.5193,-2.5221,-2.5151,-2.473,-2.4112,-2.329,-2.2271,-2.0558,-1.8208,0.0,0.0,0.0,0.0,-2.063,-2.0996,-2.126,-2.1215,-2.0983,-2.0673,-1.992,-1.8801,-1.7677,-1.6475,-1.5248,-1.5082,-1.46,-1.3671,-1.3763,0.0,0.0,0.0,0.0,0.0,0.0,0.0,0.0,0.0,0.0,0.0,0.0,0.0,0.0,0.0,0.0,0.0,0.0,0.0,-1.9293,-2.0632,-2.1463,0.0,0.0,0.0,0.0,0.0,0.0,0.0,0.0,0.0,-2.7502,-2.7008,-2.6836,0.0,0.0,-3.2023,-3.2379,-3.3549,-3.4561,-3.5021,-3.5399,0.0,-3.5906,-3.6745,-3.5932,-3.1774,-2.9186,-2.7677,-2.7708,-2.7904,-2.8071,-2.8165,-2.826,-2.8057,-2.7221,-2.6823,-2.6734,-2.6994,-2.7675,-2.8419,-2.9162,-3.0834,-3.2227,-2.6778,-2.3997,-2.3955,-2.4,-2.4045,-2.4251,-2.3768,-2.2881,-2.2864,-2.2096,-2.0844,-2.0274,-1.9777,-1.9306,-1.8537,0.0,0.0,0.0,-2.1633,-2.2883,-2.4372,-2.548,-2.6195,-2.6354,-2.6396,-2.6277,-2.6081,-2.5622,-2.4978,-2.4947,-2.3839,-2.1697,0.0,0.0,-2.2062,-2.2193,-2.2263,-2.2429,-2.2193,-2.1908,-2.1589,-2.0588,-1.9651,-1.8812,-1.764,-1.6604,-1.5724,-1.5351,-1.4826,-1.4197,-1.3986,-1.3815,0.0,0.0,0.0,0.0,0.0,0.0,0.0,0.0,0.0,0.0,0.0,-1.4669,-1.5225,0.0,0.0,0.0,-1.7135,-1.8564,-2.091,-2.1835,0.0,0.0,0.0,0.0,0.0,0.0,0.0,-2.605,-2.7575,-2.891,-3.004,-3.0469,-3.0893,-3.1492,-3.3805,-3.5434,-3.5458,0.0,-3.629,-3.645,-3.6687,-3.6663,-3.6251,-3.6419,-3.4954,-3.0219,-2.7929,-2.6754,-2.6916,-2.7115,-2.7259,-2.7319,-2.7431,-2.734,-2.6888,-2.6553,-2.6526,-2.7029,-2.7795,-2.8559,-2.9257,-3.104,-3.2337,-2.9891,-2.8183,-2.7486,-2.7164,-2.7047,-2.7192,-2.649,-2.5331,-2.5298,-2.3794,-2.1284,-2.1695,-2.1508,-2.0898,-2.0557,0.0,-2.1079,-2.25,-2.3575,-2.4486,-2.5844,-2.6601,-2.6859,-2.7029,-2.7143,-2.7145,-2.6946,-2.6612,-2.6151,-2.6434,-2.6252,-2.5544,-2.4204,-2.3685,-2.4025,-2.4024,-2.3903,-2.3618,-2.3172,-2.2696,-2.23,-2.0439,-1.936,-1.9237,-1.8034,-1.7122,-1.6506,-1.5802,-1.5402,-1.5261,-1.4551,-1.4287,-1.4686,0.0,0.0,0.0,0.0,0.0,0.0,0.0,0.0,0.0,0.0,0.0,0.0,0.0,0.0,-1.7268,-1.901,0.0,-2.2202,-2.2539,0.0,0.0,0.0,-2.3756,-2.3817,-2.4965,-2.5767,-2.5749,0.0,0.0,-2.9132,-3.1746,-3.3949,-3.5007,-3.6473,-3.7503,-3.7624,-3.6986,-3.6688,-3.6339,-3.6703,-3.647,-3.5156,-3.3759,-3.1445,-2.7675,-2.6527,-2.6285,-2.6237,-2.6305,-2.6422,-2.6463,-2.6554,-2.6581,-2.6688,-2.6055,-2.5823,-2.6641,-2.7125,-2.7761,-2.8969,-3.0724,-3.1958,-3.255,-3.1348,-3.1416,-3.0224,-2.8296,-2.8279,-2.8136,-2.7777,-2.7412,-2.6357,-2.4989,-2.4498,-2.3408,-2.1896,-2.1517,-2.1584,-2.2057,-2.3465,-2.4441,-2.5095,-2.6403,-2.7114,-2.7341,-2.7482,-2.7542,-2.7553,-2.7525,-2.7417,-2.7302,-2.7344,-2.7251,-2.7078,-2.6548,-2.6015,-2.5427,-2.5271,-2.5073,-2.48,-2.4179,-2.339,-2.2423,-2.1293,-2.0602,-2.0402,-1.9649,-1.8897,-1.8148,-1.7779,-1.7057,-1.6061,-1.6013,-1.5686,-1.4902,-1.5193,0.0,0.0,0.0,0.0,0.0,0.0,0.0,0.0,0.0,-1.7283,-1.8158,0.0,-1.9236,0.0,-2.2017,-2.303,-2.3525,-2.4144,0.0,0.0,-2.4768,-2.4736,-2.4968,-2.4169,-2.4318,-2.6108,-2.6773,-2.783,-2.9643,-3.096,-3.2206,-3.3458,-3.5103,-3.5819,-3.4736,-3.495,-3.4725,-3.3649,-3.4183,-3.4399,-3.3064,-3.1313,-2.9233,-2.6322,-2.5744,-2.563,-2.564,-2.5591,-2.56,-2.561,-2.562,-2.5649,-2.5757,-2.5587,-2.5615,-2.5902,-2.6525,-2.7173,-2.7566,-2.9026,-3.0201,-3.4148,-3.3373,-3.3624,-3.2683,-3.0974,-3.0426,-2.9963,-2.9593,-2.9127,-2.8423,-2.7571,-2.6365,-2.5144,-2.3849,-2.3354,-2.3359,-2.3861,-2.4801,-2.5545,-2.6131,-2.7007,-2.7555,-2.7757,-2.784,-2.7911,-2.7929,-2.7858,-2.7864,-2.794,-2.7824,-2.7748,-2.7783,-2.763,-2.7241,-2.669,-2.6317,-2.5999,-2.5766,-2.498,-2.4112,-2.3157,-2.2149,-2.1539,-2.1229,-2.0522,-1.9889,-1.9343,-1.8771,-1.8089,-1.7286,-1.7021,-1.6696,-1.6296,-1.6186,-1.6253,0.0,0.0,0.0,0.0,0.0,0.0,0.0,0.0,0.0,0.0,0.0,-2.0777,-2.202,-2.2986,-2.3877,-2.4569,-2.4974,-2.5262,-2.5294,-2.493,-2.4611,-2.4531,-2.3815,-2.3775,-2.5071,-2.582,-2.668,-2.7931,-2.9147,-3.0158,-3.0813,-3.1981,-3.279,-3.2752,-3.2616,-3.201,-3.1132,-3.1313,-3.1629,-3.1412,-3.032,-2.8657,-2.6683,-2.6398,-2.6369,-2.5572,-2.573,-2.5848,-2.5437,-2.5331,-2.535,-2.5404,-2.5461,-2.5518,-2.5621,-2.5985,-2.6525,-2.7092,-2.8418,-2.9554,-3.524,-3.4796,-3.496,-3.4636,-3.3924,-3.2809,-3.1825,-3.1003,-3.0619,-2.9973,-2.9135,-2.7542,-2.6438,-2.5797,-2.529,-2.5291,-2.5811,-2.6158,-2.664,-2.723,-2.758,-2.7857,-2.8096,-2.8101,-2.8128,-2.82,-2.8053,-2.8071,-2.8154,-2.8053,-2.8014,-2.7996,-2.7946,-2.783,-2.76,-2.7117,-2.6757,-2.6505,-2.5603,-2.4776,-2.4074,-2.3095,-2.2418,-2.2033,-2.1241,-2.0655,-2.0438,-1.9592,-1.9019,-1.8782,-1.7972,-1.7692,-1.8122,-1.7308,-1.7286,0.0,-1.8371,0.0,0.0,0.0,0.0,0.0,0.0,0.0,0.0,-2.1692,-2.1944,-2.2537,-2.3153,-2.4032,-2.5232,-2.5427,-2.5384,-2.5249,-2.4644,-2.4023,-2.356,-2.362,-2.3696,-2.3653,-2.4774,-2.5521,-2.5758,-2.7176,-2.8174,-2.8364,-2.884,-2.9773,-3.0984,-3.0443,-2.9656,-2.9258,-2.8686,-2.9113,-2.9955,-2.9829,-2.8939,-2.7547,-2.7556,-2.7554,-2.6101,-2.6456,-2.6675,-2.5843,-2.5633,-2.5556,-2.5434,-2.5437,-2.5488,-2.5498,-2.5596,-2.5998,-2.7145,-2.8333,-2.9528,-3.6496,-3.6149,-3.6305,-3.563,-3.446,-3.4194,-3.3394,-3.2228,-3.183,-3.0593,-2.8839,-2.7578,-2.6651,-2.5987,-2.584,-2.5957,-2.6297,-2.6708,-2.7085,-2.7355,-2.7742,-2.7986,-2.811,-2.8148,-2.8165,-2.8177,-2.8088,-2.8007,-2.8042,-2.8071,-2.8071,-2.7996,-2.7986,-2.7882,-2.7672,0.0,0.0,0.0,-2.6019,-2.5491,-2.4989,-2.4331,-2.3808,-2.3415,-2.3038,0.0,-2.22,-2.1752,-2.1107,-2.0275,-1.9819,0.0,0.0,0.0,0.0,0.0,0.0,0.0,0.0,0.0,0.0,0.0,-2.2335,-2.2564,-2.1739,-2.2531,-2.3236,-2.3521,-2.4229,-2.4791,-2.5073,-2.5504,-2.5562,-2.5026,-2.4668,-2.424,-2.3783,-2.3421,-2.3397,-2.3856,-2.4121,-2.4708,-2.5744,-2.6553,-2.7257,-2.7918,-2.8197,-2.8402,-2.8817,-2.9238,-2.894,-2.773,-2.7796,-2.8106,-2.8061,-2.8938,-2.9195,-2.8303,-2.808,-2.806,-2.7698,-2.7644,-2.7542,-2.6669,-2.649,-2.618,-2.5537,-2.5376,-2.5376,-2.547,-2.5432,-2.5778,-2.7103,-2.7912,-2.8589,-3.754,0.0,-3.7635,-3.7119,0.0,-3.5572,-3.472,-3.3561,-3.2787,-3.1423,-2.9678,-2.8694,-2.7765,-2.6918,-2.6516,-2.6469,-2.6708,-2.6973,-2.7261,-2.7569,-2.7848,-2.8067,-2.8191,-2.8228,-2.8228,-2.8184,-2.8088,-2.8053,-2.8014,-2.8042,-2.8014,-2.7946,-2.7975,-2.7853,-2.7701,-2.7612,-2.7307,-2.6792,-2.6573,-2.6177,-2.5689,-2.5182,-2.4768,-2.4338,-2.3879,0.0,0.0,0.0,0.0,0.0,0.0,0.0,0.0,-2.0124,0.0,-2.0737,-2.0364,-2.0436,-2.1173,-2.1445,-2.1651,-2.1909,-2.2362,-2.2508,-2.2197,-2.2883,-2.3224,-2.3084,-2.3777,-2.426,-2.4362,-2.4797,-2.4928,-2.448,-2.4033,-2.3671,-2.3501,-2.3076,-2.299,-2.3407,-2.381,-2.441,-2.5286,-2.57,-2.6294,-2.7232,-2.7392,-2.752,-2.786,-2.8055,-2.7653,-2.651,-2.6982,-2.7965,-2.8883,-2.9207,-2.965,-2.9528,-2.9539,-2.9148,-2.834,-2.8168,-2.7866,-2.7034,-2.6476,-2.5982,-2.5561,-2.5337,-2.5303,-2.5341,-2.554,-2.602,-2.7007,-2.7604,-2.8327,-3.8267,-3.8496,-3.8743,-3.8372,-3.7571,-3.6656,-3.5605,-3.4457,0.0,0.0,0.0,-2.9896,-2.8938,-2.7861,-2.7163,-2.6923,-2.7087,-2.7135,-2.7369,-2.7701,-2.79,-2.8081,-2.8289,-2.8291,-2.8264,-2.8195,-2.8134,-2.8053,-2.8014,-2.8014,-2.8057,-2.8111,-2.8082,-2.8006,-2.7882,-2.7742,-2.7509,-2.7137,-2.7087,-2.6825,-2.628,-2.5855,-2.5486,-2.5059,-2.4486,-2.409,-2.3952,-2.3421,-2.3024,-2.283,-2.2526,-2.231,-2.2128,-2.1191,-2.0969,-2.1614,-2.1024,-2.1001,-2.1896,-2.189,-2.1969,-2.2281,-2.2098,-2.2195,-2.2673,-2.2892,-2.2807,-2.2406,-2.3073,-2.3566,-2.3723,-2.4154,-2.4284,-2.3961,-2.3441,-2.3164,-2.3144,-2.2877,-2.2795,-2.3048,-2.378,-2.44,-2.4804,-2.5091,-2.5561,-2.6448,-2.6853,-2.7063,-2.7668,-2.7508,-2.6898,-2.6246,-2.6948,-2.8093,-2.945,-2.9838,-2.9918,-3.0579,-3.0664,-3.0176,-2.9096,-2.8543,-2.8098,-2.7366,-2.6432,-2.5835,-2.5515,-2.5502,-2.5457,-2.5348,-2.5857,-2.6541,-2.7172,-2.7586,-2.8274,-3.8528,-3.8762,-3.8921,-3.8526,-3.7765,-3.6914,-3.5533,-3.3907,-3.3266,-3.2054,-3.051,-3.0297,-2.9324,-2.7883,-2.76,-2.7509,-2.7526,-2.7448,-2.7522,-2.7701,-2.79,-2.8067,-2.8213,-2.8235,-2.8209,-2.82,-2.8091,-2.8035,-2.8014,-2.8071,-2.8362,-2.8841,-2.887,-2.8767,-2.8516,-2.7919,-2.7587,-2.7526,-2.7404,-2.7198,-2.6891,-2.6539,-2.6158,-2.5705,-2.5368,-2.4981,-2.4502,-2.4131,-2.3724,-2.3319,-2.3143,-2.2965,-2.277,-2.2207,-2.21,-2.2369,-2.159,-2.1322,-2.1862,-2.1632,-2.1735,-2.2245,-2.2316,-2.2327,-2.2372,-2.2446,-2.2535,-2.264,-2.3357,-2.3815,-2.3902,-2.4402,-2.4487,-2.3881,-2.3676,-2.3408,-2.2995,-2.3115,-2.327,-2.3386,-2.4081,-2.4636,-2.4845,-2.5061,-2.5518,-2.6376,-2.7098,-2.7784,-2.8207,-2.7975,-2.7347,-2.7091,-2.7942,-2.8433,-2.8495,-2.8836,-2.9679,-3.0678,-3.0273,-3.0035,-3.0078,-2.9563,-2.8862,-2.8135,-2.7123,-2.6357,-2.5672,-2.5909,-2.6129,-2.6199,-2.6559,-2.7174,-2.8166,-2.8128,-2.826,-3.8803,-3.9017,-3.9192,-3.91,-3.8714,-3.7314,-3.5943,-3.4639,-3.3876,-3.2592,-3.0998,-3.0767,-2.9818,-2.8344,-2.8102,-2.7964,-2.7886,-2.7818,-2.7847,-2.7979,-2.8081,-2.8191,-2.8314,-2.83,-2.83,-2.8237,-2.8183,-2.8128,-2.8126,-2.8564,-2.8938,-2.9283,-2.9586,-2.9695,-2.9537,-2.8798,-2.8604,-2.9057,-2.808,-2.7478,-2.7324,-2.7036,-2.6724,-2.6386,-2.6016,-2.5631,-2.5275,-2.4902,-2.4542,-2.4188,-2.3948,-2.3613,-2.3029,-2.2469,-2.2079,-2.1872,-2.127,-2.1098,-2.1502,-2.1658,-2.1915,-2.2316,-2.2422,-2.2675,-2.3123,-2.2791,-2.2777,-2.3273,-2.3441,-2.3476,-2.3562,-2.42,-2.446,-2.4058,-2.4388,-2.44,-2.3849,-2.3927,-2.3983,-2.3775,-2.419,-2.4654,-2.4983,-2.5057,-2.5418,-2.6301,-2.7333,-2.819,-2.847,-2.8495,-2.8145,-2.7527,-2.7867,-2.8506,-2.882,-2.9097,-2.9492,-2.9796,-3.0089,-2.9979,-2.9743,-2.9072,-2.8555,-2.7696,-2.6805,-2.6096,-2.555,-2.6024,-2.6508,-2.6992,-2.7296,-2.7846,-2.8252,-2.8256,-2.8503,-3.9073,-3.9264,-3.9452,-3.9481,-3.918,-3.7617,-3.6366,-3.5454,-3.4591,-3.3302,-3.1864,-3.1427,-3.0467,-2.9101,-2.8718,-2.8569,-2.854,-2.8282,-2.8201,-2.8309,-2.833,-2.8355,-2.847,-2.8486,-2.8456,-2.8402,-2.8404,-2.8362,-2.8398,-2.9115,-2.9689,-2.9991,-3.0505,-3.0718,-3.0597,-2.9834,-2.9745,-3.0272,-2.9054,-2.8317,-2.8185,-2.7826,-2.7503,-2.7259,-2.6657,-2.621,-2.5944,-2.5577,-2.5253,-2.4997,-2.4626,-2.406,-2.3326,-2.2524,-2.1867,-2.1455,-2.1054,-2.0974,-2.1356,-2.199,-2.2428,-2.27,-2.2931,-2.3464,-2.4195,-2.3715,-2.3482,-2.3944,-2.3911,-2.3781,-2.3908,-2.4417,-2.4746,-2.4731,-2.5234,-2.5374,-2.4924,-2.5039,-2.4853,-2.4169,-2.4429,-2.5014,-2.5389,-2.5385,-2.5717,-2.6811,-2.7905,-2.8613,-2.8652,-2.8981,-2.878,-2.8214,-2.793,-2.8592,-2.9982,-2.9678,-2.9363,-2.9304,-2.9733,-2.9559,-2.8784,-2.8335,-2.7808,-2.7089,-2.6264,-2.5712,-2.5602,-2.6246,-2.6871,-2.7357,-2.7845,-2.8318,-2.8158,-2.8268,-2.854,-3.9298,-3.9401,-3.9575,-3.9232,-3.8507,-3.7622,-3.6713,-3.5754,-3.491,-3.4089,-3.3203,-3.2275,-3.1321,-3.0373,-2.9539,-2.9484,-2.9926,-2.9077,-2.8688,-2.8718,-2.8658,-2.8658,-2.8747,-2.8761,-2.8722,-2.8704,-2.8742,-2.8743,-2.8778,-2.9541,-3.0505,-3.1546,-3.1804,-3.1751,-3.151,-3.0832,-3.0523,-3.0653,-3.051,-3.0273,-2.9929,-2.9215,-2.8693,-2.836,-2.7478,-2.6841,-2.6454,-2.6158,-2.5888,-2.5598,-2.4895,-2.4324,-2.384,-2.2679,-2.1919,-2.1893,-2.1455,-2.1371,-2.1932,-2.2827,-2.3386,-2.363,-2.4293,-2.4993,-2.5742,-2.5305,-2.4843,-2.4812,-2.5147,-2.5237,-2.5343,-2.5649,-2.5853,-2.5804,-2.6063,-2.6051,-2.6056,-2.6253,-2.5839,-2.4317,-2.5188,-2.6062,-2.6663,-2.6443,-2.6685,-2.8029,-2.8852,-2.9364,-2.9269,-2.9221,-2.9188,-2.894,-2.9063,-2.9374,-2.9846,-2.9461,-2.9458,-3.0106,-2.9299,-2.8773,-2.8539,-2.7866,-2.7036,-2.6786,-2.6225,-2.5615,-2.5822,-2.6554,-2.7407,-2.7498,-2.811,-2.8891,-2.8485,-2.8317,-2.8432,-3.9477,-3.9599,-3.9758,-3.9637,-3.9202,-3.7988,-3.7167,-3.6647,-3.5342,-3.4358,-3.3676,-3.3204,-3.2524,-3.1638,-3.1205,-3.1184,-3.1329,-3.0863,-3.0627,-3.0602,-3.057,-3.0277,-2.9783,-2.9773,-2.9574,-2.907,-2.9092,-2.9337,-2.9913,-3.0962,-3.2017,-3.2827,-3.2925,-3.2828,-3.2595,-3.1894,-3.1685,-3.2086,-3.1732,-3.1685,-3.1816,-3.0707,-2.9686,-2.9004,-2.8439,-2.7754,-2.7053,-2.6741,-2.6521,-2.6264,-2.5423,-2.4622,-2.4025,-2.2913,-2.2167,-2.1858,-2.1735,-2.184,-2.2215,-2.3107,-2.3704,-2.3877,-2.4653,-2.5472,-2.6248,-2.608,-2.6061,-2.6342,-2.5756,-2.5362,-2.5792,-2.6417,-2.6736,-2.6682,-2.7212,-2.7652,-2.7638,-2.7442,-2.6964,-2.6293,-2.6339,-2.6766,-2.7378,-2.7537,-2.8001,-2.8983,-2.9494,-2.957,-2.9453,-2.9307,-2.9141,-2.9045,-2.9129,-2.9357,-2.9676,-2.9726,-2.9679,-2.965,-2.9663,-2.9484,-2.7951,-2.7904,-2.7395,-2.6446,-2.5955,-2.5646,-2.5524,-2.6409,-2.7278,-2.7479,-2.8109,-2.8879,-2.8601,-2.8466,-2.8492,-3.9675,-3.9785,-3.9933,-4.0015,-3.9884,-3.8241,-3.7518,-3.7255,-3.5664,-3.4668,-3.4213,-3.4192,-3.3865,-3.3236,-3.2714,-3.253,-3.2648,-3.2353,-3.2166,-3.209,-3.2032,-3.1637,-3.1021,-3.1013,-3.0715,-3.017,-3.0132,-3.0534,-3.1306,-3.2247,-3.3128,-3.3643,-3.3698,-3.3605,-3.3368,-3.2795,-3.2737,-3.31,-3.2708,-3.2755,-3.3099,-3.2126,-3.1009,-3.0101,-2.9573,-2.8838,-2.784,-2.7621,-2.7293,-2.6873,-2.5779,-2.4859,-2.4193,-2.3119,-2.2311,-2.1953,-2.2056,-2.2372,-2.2826,-2.3622,-2.4296,-2.4711,-2.5446,-2.6149,-2.6667,-2.6807,-2.7122,-2.7518,-2.656,-2.6116,-2.6631,-2.7283,-2.7574,-2.7532,-2.83,-2.8785,-2.8709,-2.8393,-2.8113,-2.7922,-2.7449,-2.7381,-2.7886,-2.8407,-2.9075,-2.9548,-2.97,-2.9626,-2.9492,-2.9332,-2.9203,-2.9123,-2.9097,-2.9225,-2.9588,-2.975,-2.965,-2.9564,-2.9789,-2.9274,-2.7699,-2.8024,-2.7724,-2.6618,-2.612,-2.5751,-2.5596,-2.6237,-2.6991,-2.7392,-2.7885,-2.8378,-2.8393,-2.8342,-2.8464,-3.9975,-3.9996,-4.0118,-4.0138,-3.9963,-3.8385,-3.7662,-3.749,-3.5818,-3.5094,-3.509,-3.5166,-3.5264,-3.5149,-3.3678,-3.324,-3.3782,-3.3197,-3.2851,-3.2797,-3.2656,-3.2426,-3.2238,-3.2275,-3.2205,-3.1887,-3.1899,-3.2334,-3.3037,-3.3131,-3.3398,-3.3943,-3.3921,-3.3815,-3.3671,-3.3514,-3.3494,-3.3426,-3.3372,-3.3444,-3.3499,-3.339,-3.2795,-3.1905,-3.0898,-2.9923,-2.9087,-2.8811,-2.8258,-2.7324,-2.5915,-2.4935,-2.4582,-2.3198,-2.2326,-2.2303,-2.2463,-2.2986,-2.3821,-2.4614,-2.5439,-2.6304,-2.6911,-2.7508,-2.7385,-2.735,-2.7461,-2.7915,-2.767,-2.7736,-2.8128,-2.8334,-2.8555,-2.8657,-2.8906,-2.9044,-2.8998,-2.902,-2.9049,-2.883,-2.8336,-2.8142,-2.8316,-2.9137,-2.9583,-2.9787,-2.9842,-2.9825,-2.9699,-2.9551,-2.9454,-2.9373,-2.9295,-2.9277,-2.9488,-2.9645,-2.9799,-2.9817,-2.9564,-2.9171,-2.8854,-2.8435,-2.7604,-2.6981,-2.6768,-2.6395,-2.585,-2.5946,-2.6581,-2.6942,-2.704,-2.7378,-2.7864,-2.7874,-2.811,-4.0077,-4.0137,-4.0176,-4.0196,-4.0043,-3.8461,-3.7775,-3.76,-3.5962,-3.5287,-3.5342,-3.5387,-3.5502,-3.5615,-3.5591,-3.5667,-3.589,-3.5488,-3.5309,-3.5271,-3.5234,-3.4585,-3.3517,-3.3421,-3.3101,-3.2657,-3.2578,-3.2897,-3.3582,-3.3972,-3.4195,-3.4195,-3.4179,-3.403,-3.3842,-3.3726,-3.3605,-3.3509,-3.3509,-3.3746,-3.4182,-3.3822,-3.3611,-3.3706,-3.23,-3.104,-3.0101,-2.9467,-2.8906,-2.8469,-2.6946,-2.581,-2.5105,-2.3623,-2.2764,-2.2833,-2.2927,-2.3395,-2.4251,-2.5015,-2.5843,-2.6629,-2.6947,-2.7159,-2.7017,-2.67,-2.6604,-2.7101,-2.7317,-2.7629,-2.8334,-2.871,-2.8925,-2.897,-2.9067,-2.9156,-2.9152,-2.9197,-2.9181,-2.9089,-2.8931,-2.8925,-2.9101,-2.9513,-2.9823,-2.9926,-2.9959,-2.9924,-2.9872,-2.9753,-2.9626,-2.9551,-2.942,-2.9363,-2.9662,-2.9606,-2.9638,-2.9861,-2.9785,-2.9421,-2.9085,-2.8893,-2.8219,-2.7569,-2.7371,-2.6833,-2.6175,-2.5524,-2.6135,-2.6489,-2.6583,-2.6691,-2.727,-2.7416,-2.7899,-4.0196,-4.0215,-4.0234,-4.0272,-4.0135,-3.8839,-3.8076,-3.7761,-3.6377,-3.5631,-3.5488,-3.5535,-3.5762,-3.6174,-3.6825,-3.7491,-3.7801,-3.7511,-3.7318,-3.7327,-3.7246,-3.6433,-3.5196,-3.4969,-3.4501,-3.3767,-3.3578,-3.377,-3.4147,-3.4624,-3.473,-3.4517,-3.4386,-3.4197,-3.3972,-3.3815,-3.3762,-3.3858,-3.3891,-3.4291,-3.4909,-3.4604,-3.448,-3.4561,-3.3619,-3.2412,-3.1166,-3.0498,-2.9822,-2.9165,-2.7956,-2.6632,-2.5303,-2.3936,-2.3212,-2.3277,-2.3301,-2.3851,-2.4806,-2.5251,-2.5928,-2.7184,-2.6846,-2.6685,-2.7112,-2.6437,-2.6313,-2.673,-2.7254,-2.7761,-2.8381,-2.8864,-2.9044,-2.904,-2.9152,-2.924,-2.924,-2.924,-2.924,-2.9222,-2.9251,-2.9355,-2.9569,-2.9737,-2.9876,-3.0007,-3.0034,-3.0068,-3.0034,-2.994,-2.9822,-2.9784,-2.9677,-2.9674,-2.9869,-2.9867,-2.9815,-2.9981,-2.9918,-2.9601,-2.9402,-2.9189,-2.886,-2.8259,-2.7688,-2.7115,-2.6402,-2.5571,-2.5576,-2.601,-2.5952,-2.5944,-2.6497,-2.7044,-2.7605,-4.0291,-4.0307,-4.0307,-4.0344,-4.0264,-3.9387,-3.8601,-3.7939,-3.7005,-3.6219,-3.5734,-3.5716,-3.6241,-3.6889,-3.7311,-3.8189,-3.9208,-3.8812,-3.8468,-3.8396,-3.8344,-3.7789,-3.682,-3.6765,-3.6265,-3.5411,-3.5315,-3.5187,-3.5028,-3.5018,-3.4889,-3.4708,-3.4498,-3.4316,-3.4099,-3.4013,-3.4193,-3.4582,-3.4695,-3.5109,-3.5799,-3.5854,-3.5501,-3.4973,-3.4757,-3.3894,-3.2288,-3.1989,-3.1092,-2.9697,-2.8829,-2.7317,-2.5422,-2.4289,-2.3678,-2.3728,-2.3678,-2.4496,-2.5708,-2.5445,-2.6213,-2.7684,-2.6993,-2.6756,-2.7618,-2.7082,-2.6601,-2.701,-2.7659,-2.837,-2.8766,-2.9067,-2.9175,-2.9112,-2.9222,-2.9323,-2.9323,-2.9302,-2.9302,-2.9304,-2.933,-2.9394,-2.9589,-2.9755,-2.9926,-3.0053,-3.0142,-3.0261,-3.0376,-3.0371,-3.016,-3.0198,-3.0129,-3.0034,-3.0098,-3.0166,-3.0117,-3.0087,-2.9924,-2.9723,-2.9628,-2.9458,-2.9233,-2.8739,-2.8677,-2.8094,-2.6753,-2.595,-2.5266,-2.5422,-2.5277,-2.5351,-2.5834,-2.6465,-2.7271,-4.0308,-4.0307,-4.0362,-4.0415,-4.0353,-3.9519,-3.9018,-3.8693,-3.7411,-3.6674,-3.6561,-3.6571,-3.6793,-3.7393,-3.8377,-3.9279,-3.9803,-4.0053,-3.9936,-3.9427,-3.9349,-3.8844,-3.8065,-3.7868,-3.7366,-3.6569,-3.6334,-3.5916,-3.5419,-3.5212,-3.5054,-3.4908,-3.4768,-3.4539,-3.4367,-3.4636,-3.4916,-3.4971,-3.5407,-3.6024,-3.6656,-3.6316,-3.5956,-3.5681,-3.5198,-3.4337,-3.3294,-3.2545,-3.1663,-3.0494,-2.9809,-2.8601,-2.6934,-2.5901,-2.5212,-2.4795,-2.5238,-2.5637,-2.6136,-2.6535,-2.7091,-2.808,-2.7549,-2.7224,-2.7513,-2.6935,-2.676,-2.7212,-2.7694,-2.8164,-2.8856,-2.9181,-2.9267,-2.9249,-2.9351,-2.9431,-2.9431,-2.939,-2.939,-2.9431,-2.9433,-2.9512,-2.9645,-2.9787,-2.9956,-3.0147,-3.0251,-3.0458,-3.1028,-3.1117,-3.1462,-3.182,-3.1218,-3.0592,-3.0778,-3.0721,-3.0425,-3.0247,-3.0007,-2.9808,-2.9735,-2.9607,-2.9401,-2.9306,-2.9278,-2.8698,-2.7371,-2.6189,-2.5397,-2.5099,-2.5182,-2.53,-2.5395,-2.6099,-2.7141,-4.0342,-4.0379,-4.0411,-4.0463,-4.0441,-3.9893,-3.9525,-3.92,-3.8234,-3.7652,-3.7491,-3.7492,-3.7734,-3.826,-3.9252,-3.9903,-4.0253,-4.0847,-4.0764,-4.034,-4.0281,-3.977,-3.8917,-3.8466,-3.8026,-3.7486,-3.7282,-3.6925,-3.6387,-3.5967,-3.5668,-3.553,-3.5362,-3.52,-3.4997,-3.551,-3.5787,-3.5892,-3.6376,-3.6985,-3.7503,-3.7314,-3.6747,-3.6208,-3.5659,-3.4842,-3.378,-3.3113,-3.2237,-3.1021,-2.9831,-2.8603,-2.7624,-2.6826,-2.6315,-2.6242,-2.6337,-2.6666,-2.7169,-2.7169,-2.7638,-2.83,-2.77,-2.7427,-2.7651,-2.7219,-2.7137,-2.8017,-2.8323,-2.8581,-2.9153,-2.9373,-2.9455,-2.9493,-2.9531,-2.9551,-2.9569,-2.9531,-2.9511,-2.9549,-2.9569,-2.9626,-2.9699,-2.9803,-2.9969,-3.0176,-3.0554,-3.0899,-3.1614,-3.1954,-3.2466,-3.2728,-3.2196,-3.1796,-3.1658,-3.1298,-3.0806,-3.0452,-3.0113,-2.9891,-2.9717,-2.9551,-2.936,-2.9401,-2.9401,-2.9093,-2.7913,-2.6166,-2.5092,-2.5111,-2.5423,-2.5665,-2.6025,-2.6601,-2.7569,-4.0449,-4.0502,-4.0492,-4.0489,-4.0489,-4.0431,-4.0069,-3.9488,-3.9276,-3.8851,-3.8384,-3.8332,-3.8762,-3.9423,-3.9701,-4.0213,-4.0859,-4.0954,-4.1017,-4.0972,-4.0941,-4.0531,-3.9817,-3.9096,-3.8631,-3.8317,-3.8222,-3.8053,-3.7709,-3.7074,-3.6677,-3.6474,-3.6293,-3.6077,-3.6051,-3.6491,-3.6883,-3.7045,-3.7411,-3.7978,-3.856,-3.8469,-3.7801,-3.6303,-3.6064,-3.5302,-3.3964,-3.3497,-3.2757,-3.1183,-2.9284,-2.8265,-2.7875,-2.72,-2.7343,-2.7857,-2.7255,-2.7728,-2.8352,-2.7926,-2.7629,-2.8631,-2.783,-2.7248,-2.8494,-2.8172,-2.8132,-2.9225,-2.9344,-2.9427,-2.9682,-2.9682,-2.9773,-2.9789,-2.9754,-2.9738,-2.9701,-2.9682,-2.9701,-2.9664,-2.9683,-2.9701,-2.9735,-2.9839,-2.9984,-3.0285,-3.0925,-3.1494,-3.2016,-3.2513,-3.3029,-3.3156,-3.3205,-3.2928,-3.2764,-3.1777,-3.1234,-3.0556,-3.024,-2.9984,-2.9717,-2.9532,-2.9392,-2.9434,-2.9438,-2.9119,-2.8531,-2.6962,-2.6008,-2.6109,-2.6328,-2.6451,-2.6816,-2.7426,-2.826,-4.0432,-4.0502,-4.0543,-4.0558,-4.0523,-4.0546,-4.0469,-4.0181,-3.9576,-3.9301,-3.9141,-3.9178,-3.9331,-3.9665,-4.0277,-4.0704,-4.0887,-4.0968,-4.1013,-4.1011,-4.1037,-4.095,-4.0691,-4.0371,-3.9832,-3.9277,-3.9097,-3.8724,-3.8157,-3.7858,-3.7602,-3.7491,-3.7317,-3.7088,-3.703,-3.7526,-3.7648,-3.7598,-3.8313,-3.8672,-3.8696,-3.828,-3.7487,-3.6519,-3.5828,-3.5,-3.388,-3.322,-3.2423,-3.1338,-3.0204,-2.9496,-2.9494,-2.9274,-2.9255,-2.9512,-2.9861,-2.9659,-2.92,-2.9187,-2.9228,-2.9007,-2.8776,-2.8732,-2.9104,-2.9042,-2.9368,-3.0068,-2.9961,-2.9964,-3.045,-3.0253,-3.007,-3.0068,-2.9991,-2.991,-2.9857,-2.9841,-2.9841,-2.9823,-2.9808,-2.9823,-2.9891,-2.9956,-3.0034,-3.0314,-3.1066,-3.1934,-3.2482,-3.3437,-3.4088,-3.4515,-3.4574,-3.4178,-3.3586,-3.2511,-3.1584,-3.0781,-3.0348,-3.0061,-2.9799,-2.9551,-2.9415,-2.9353,-2.9436,-2.9251,-2.9136,-2.8341,-2.7881,-2.7225,-2.7464,-2.7684,-2.7801,-2.826,-2.9204,-4.0479,-4.0546,-4.0588,-4.0583,-4.0549,-4.0596,-4.06,-4.0489,-4.0085,-3.9884,-3.9951,-3.9966,-3.9966,-4.0072,-4.0537,-4.0784,-4.0828,-4.0888,-4.0924,-4.096,-4.0981,-4.0972,-4.0941,-4.0906,-4.0599,-4.0172,-4.0011,-3.9728,-3.9258,-3.8819,-3.8575,-3.8485,-3.8336,-3.8118,-3.7997,-3.852,-3.8726,-3.8551,-3.8958,-3.8924,-3.8127,-3.7933,-3.7146,-3.6268,-3.5494,-3.4815,-3.3944,-3.3419,-3.2739,-3.1891,-3.1096,-3.0662,-3.0705,-3.0687,-3.0834,-3.1164,-3.1384,-3.1017,-3.0723,-3.0759,-3.0562,-3.0236,-3.0216,-3.0305,-3.0426,-3.0497,-3.0861,-3.1261,-3.1034,-3.1216,-3.1433,-3.1077,-3.0557,-3.0284,-3.0213,-3.0142,-3.0015,-3.0049,-3.0015,-2.9984,-2.9953,-2.9975,-3.0053,-3.0068,-3.0142,-3.0469,-3.1507,-3.2235,-3.2949,-3.4116,-3.499,-3.5243,-3.534,-3.4884,-3.4214,-3.3206,-3.1805,-3.0946,-3.0583,-3.0289,-2.9959,-2.9664,-2.9474,-2.9414,-2.9436,-2.9438,-2.9344,-2.9226,-2.8841,-2.8474,-2.8714,-2.8878,-2.8973,-2.9485,-3.0392,-4.0539,-4.0588,-4.0612,-4.0621,-4.0588,-4.0588,-4.0596,-4.06,-4.0527,-4.0523,-4.0519,-4.0559,-4.0486,-4.0588,-4.059,-4.0642,-4.0694,-4.0781,-4.0828,-4.0887,-4.0945,-4.0968,-4.0883,-4.0878,-4.0812,-4.0687,-4.0771,-4.0662,-4.0308,-3.9792,-3.9527,-3.9407,-3.9295,-3.9122,-3.9013,-3.9435,-3.9632,-3.9445,-3.9357,-3.8618,-3.7564,-3.7418,-3.6954,-3.5806,-3.524,-3.4703,-3.4107,-3.3795,-3.3482,-3.2787,-3.1953,-3.1568,-3.1513,-3.1513,-3.1898,-3.2394,-3.2173,-3.2045,-3.2265,-3.1826,-3.1544,-3.1389,-3.1529,-3.1849,-3.1731,-3.1783,-3.2034,-3.2448,-3.2534,-3.2371,-3.239,-3.1953,-3.1353,-3.081,-3.0578,-3.0465,-3.0253,-3.0202,-3.0207,-3.0271,-3.0276,-3.0257,-3.0271,-3.0285,-3.036,-3.0388,-3.1448,-3.2297,-3.3076,-3.4097,-3.4961,-3.5553,-3.5534,-3.5445,-3.4697,-3.3891,-3.2365,-3.111,-3.0898,-3.0605,-3.0208,-2.9907,-2.9645,-2.9512,-2.9532,-2.9589,-2.9607,-2.9471,-2.9406,-2.9307,-2.9263,-2.9655,-3.0124,-3.0956,-3.1846,-4.0539,-4.0607,-4.066,-4.0654,-4.0602,-4.059,-4.0588,-4.0581,-4.0527,-4.0546,-4.0581,-4.0588,-4.0598,-4.0588,-4.0588,-4.0635,-4.0675,-4.0713,-4.0773,-4.0809,-4.0888,-4.0878,-4.084,-4.0823,-4.0815,-4.079,-4.079,-4.079,-4.0662,-4.052,-4.0384,-4.027,-4.0088,-4.0015,-3.991,-3.9808,-3.9804,-3.9642,-3.9521,-3.8627,-3.7324,-3.7063,-3.6646,-3.5553,-3.4816,-3.4308,-3.4065,-3.3991,-3.3899,-3.3541,-3.2893,-3.2357,-3.2339,-3.2357,-3.2706,-3.3201,-3.333,-3.3054,-3.2713,-3.2551,-3.2281,-3.189,-3.205,-3.2019,-3.2143,-3.2373,-3.2769,-3.3159,-3.3013,-3.2894,-3.2867,-3.273,-3.2199,-3.1628,-3.1383,-3.1153,-3.0566,-3.0381,-3.0657,-3.1027,-3.1197,-3.1202,-3.1249,-3.1158,-3.1021,-3.0701,-3.1241,-3.2193,-3.3106,-3.4,-3.4728,-3.5378,-3.564,-3.5505,-3.5087,-3.4117,-3.2551,-3.1458,-3.1212,-3.1207,-3.081,-3.0486,-3.0339,-3.0002,-2.9664,-2.9813,-3.0245,-3.0092,-3.0103,-2.9931,-2.9926,-3.0468,-3.1181,-3.2186,-3.3018,-4.0588,-4.0646,-4.0687,-4.07,-4.0694,-4.0623,-4.0604,-4.0603,-4.0523,-4.0508,-4.0562,-4.0558,-4.0554,-4.0564,-4.0564,-4.0598,-4.066,-4.0681,-4.072,-4.0718,-4.0768,-4.0779,-4.0773,-4.0796,-4.079,-4.079,-4.079,-4.079,-4.079,-4.0778,-4.0694,-4.0654,-4.0554,-4.0367,-4.0288,-4.0138,-3.9933,-3.9754,-3.9599,-3.8689,-3.705,-3.6857,-3.6216,-3.523,-3.4463,-3.4148,-3.4049,-3.4049,-3.4023,-3.3906,-3.3515,-3.3243,-3.3217,-3.3191,-3.3421,-3.3697,-3.3807,-3.366,-3.3301,-3.3283,-3.3259,-3.2887,-3.3097,-3.3308,-3.343,-3.3544,-3.3862,-3.4234,-3.4143,-3.3863,-3.3544,-3.3448,-3.3071,-3.2519,-3.2275,-3.2045,-3.1621,-3.1249,-3.1121,-3.1642,-3.1937,-3.2141,-3.2199,-3.2052,-3.1604,-3.1222,-3.1226,-3.2119,-3.2482,-3.3376,-3.426,-3.4919,-3.5414,-3.5512,-3.5282,-3.4265,-3.2628,-3.186,-3.1558,-3.1733,-3.1778,-3.1455,-3.1162,-3.0901,-3.0715,-3.1015,-3.1334,-3.1085,-3.1006,-3.1208,-3.1393,-3.1637,-3.2072,-3.2959,-3.3715,-4.0646,-4.072,-4.07,-4.0746,-4.0771,-4.0655,-4.0617,-4.0588,-4.0554,-4.0508,-4.0489,-4.0489,-4.0504,-4.0504,-4.0504,-4.0539,-4.0603,-4.066,-4.0668,-4.0629,-4.0687,-4.0711,-4.0725,-4.0764,-4.079,-4.079,-4.079,-4.079,-4.079,-4.079,-4.0778,-4.07,-4.0631,-4.0523,-4.0394,-4.0196,-4.0017,-3.9845,-3.9689,-3.878,-3.7071,-3.6897,-3.6119,-3.4755,-3.4349,-3.4264,-3.4148,-3.4124,-3.408,-3.4023,-3.4005,-3.3972,-3.3921,-3.386,-3.3834,-3.3834,-3.3834,-3.3752,-3.3732,-3.388,-3.4012,-3.4203,-3.4442,-3.4634,-3.4718,-3.4774,-3.4901,-3.5043,-3.5005,-3.4885,-3.4455,-3.4345,-3.3922,-3.3359,-3.3089,-3.2999,-3.2775,-3.2295,-3.2173,-3.2275,-3.2776,-3.3096,-3.3017,-3.2825,-3.2259,-3.1807,-3.183,-3.1907,-3.227,-3.2837,-3.3778,-3.46,-3.514,-3.5531,-3.5364,-3.4737,-3.3059,-3.2517,-3.2154,-3.2436,-3.2775,-3.2923,-3.2688,-3.218,-3.2087,-3.2274,-3.2253,-3.2079,-3.215,-3.2523,-3.2599,-3.2561,-3.3032,-3.3713,-3.4339,-4.0687,-4.072,-4.0778,-4.081,-4.079,-4.0713,-4.0636,-4.0588,-4.0592,-4.0546,-4.0489,-4.0489,-4.0489,-4.0489,-4.0489,-4.0539,-4.0588,-4.0612,-4.0607,-4.0607,-4.0648,-4.07,-4.07,-4.0752,-4.079,-4.079,-4.079,-4.0803,-4.0803,-4.079,-4.0945,-4.0804,-4.0808,-4.0723,-4.0633,-4.0307,-4.0269,-4.006,-3.9868,-3.8997,-3.785,-3.7113,-3.6396,-3.4862,-3.4661,-3.4535,-3.4418,-3.4296,-3.4173,-3.4173,-3.4142,-3.4092,-3.4049,-3.3947,-3.3895,-3.3868,-3.3815,-3.3834,-3.3895,-3.3972,-3.4148,-3.434,-3.4583,-3.479,-3.4946,-3.5092,-3.5198,-3.528,-3.5339,-3.5302,-3.522,-3.5048,-3.4697,-3.4146,-3.3795,-3.3589,-3.3096,-3.3106,-3.3341,-3.3517,-3.3814,-3.3993,-3.387,-3.3635,-3.3087,-3.2516,-3.2188,-3.21,-3.2193,-3.2767,-3.3506,-3.4257,-3.4937,-3.5284,-3.5463,-3.4781,-3.3762,-3.3397,-3.3168,-3.3379,-3.3802,-3.4385,-3.4295,-3.35,-3.3063,-3.3004,-3.2963,-3.2999,-3.313,-3.3391,-3.3391,-3.3372,-3.3827,-3.432,-3.4658,-4.0713,-4.0746,-4.0771,-4.079,-4.079,-4.0732,-4.0662,-4.0604,-4.0593,-4.0554,-4.0504,-4.0489,-4.0489,-4.0489,-4.0489,-4.0504,-4.0519,-4.0534,-4.0549,-4.0549,-4.0622,-4.0631,-4.0675,-4.0759,-4.0796,-4.0808,-4.0808,-4.0796,-4.0873,-4.1299,-4.1396,-4.1583,-4.1743,-4.1889,-4.178,-4.1665,-4.111,-4.071,-4.0348,-3.9604,-3.8188,-3.7474,-3.6531,-3.6031,-3.5684,-3.5669,-3.5597,-3.5553,-3.5324,-3.4977,-3.4841,-3.4556,-3.429,-3.4092,-3.3998,-3.3983,-3.3913,-3.3887,-3.3947,-3.4049,-3.4221,-3.4409,-3.4628,-3.4831,-3.5001,-3.5147,-3.525,-3.5308,-3.5369,-3.5412,-3.5422,-3.5379,-3.5105,-3.481,-3.4595,-3.4318,-3.4091,-3.4225,-3.4385,-3.4576,-3.471,-3.479,-3.4839,-3.4477,-3.3931,-3.3351,-3.2722,-3.2458,-3.2328,-3.2916,-3.3647,-3.4183,-3.488,-3.5182,-3.5359,-3.4853,-3.4372,-3.4079,-3.3963,-3.419,-3.4429,-3.4857,-3.4857,-3.4399,-3.4094,-3.3811,-3.4077,-3.423,-3.4247,-3.4225,-3.4263,-3.4339,-3.4566,-3.4887,-3.5114,-4.0243,-4.0268,-4.0268,-4.0268,-4.0268,-4.021,-4.0249,-4.0301,-4.0105,-4.0048,-4.0177,-4.02,-4.0162,-4.0219,-4.0373,-4.0489,-4.0489,-4.0504,-4.0504,-4.0523,-4.0562,-4.0592,-4.064,-4.0726,-4.0808,-4.0815,-4.0804,-4.0812,-4.0967,-4.1587,-4.2001,-4.2157,-4.2767,-4.3127,-4.2859,-4.2489,-4.2062,-4.1472,-4.1005,-4.0075,-3.8568,-3.7699,-3.7188,-3.7028,-3.7028,-3.6844,-3.6659,-3.6609,-3.6298,-3.5938,-3.5708,-3.5442,-3.4829,-3.4501,-3.4377,-3.4289,-3.4083,-3.3991,-3.4023,-3.4099,-3.4245,-3.4473,-3.467,-3.487,-3.5038,-3.5162,-3.5261,-3.53,-3.5379,-3.5427,-3.5446,-3.5364,-3.5281,-3.5216,-3.51,-3.5035,-3.492,-3.4899,-3.484,-3.507,-3.5374,-3.538,-3.5265,-3.5168,-3.4582,-3.4292,-3.3682,-3.3164,-3.3099,-3.3455,-3.4035,-3.4389,-3.4837,-3.512,-3.5189,-3.497,-3.4664,-3.4523,-3.4473,-3.4595,-3.4846,-3.5136,-3.4983,-3.4849,-3.489,-3.4702,-3.51,-3.5196,-3.489,-3.4811,-3.5059,-3.5152,-3.5021,-3.5037,-3.5203,-3.8496,-3.8528,-3.8535,-3.8516,-3.8566,-3.8593,-3.896,-3.9419,-3.8821,-3.8646,-3.9114,-3.9296,-3.9281,-3.9411,-4.0162,-4.0469,-4.0489,-4.0489,-4.0504,-4.0523,-4.0562,-4.0592,-4.0621,-4.0726,-4.0788,-4.0796,-4.0807,-4.0807,-4.102,-4.1679,-4.211,-4.2273,-4.2897,-4.3235,-4.3325,-4.3139,-4.2115,-4.1393,-4.1014,-4.0064,-3.8638,-3.8225,-3.7812,-3.7376,-3.7202,-3.721,-3.7255,-3.72,-3.6901,-3.6708,-3.6563,-3.6526,-3.6315,-3.5702,-3.5404,-3.5057,-3.4592,-3.4042,-3.4074,-3.4124,-3.4245,-3.4473,-3.4626,-3.4791,-3.5001,-3.5193,-3.5304,-3.5383,-3.5441,-3.5474,-3.5441,-3.5364,-3.5285,-3.5223,-3.516,-3.5073,-3.5038,-3.5037,-3.5035,-3.5105,-3.527,-3.5407,-3.5399,-3.5357,-3.5252,-3.499,-3.467,-3.4133,-3.387,-3.4211,-3.4342,-3.4652,-3.4868,-3.5117,-3.5226,-3.499,-3.491,-3.4863,-3.4901,-3.4939,-3.5073,-3.5209,-3.5209,-3.5133,-3.5193,-3.5209,-3.5226,-3.5226,-3.519,-3.519,-3.519,-3.519,-3.5171,-3.5226,-3.5312,-3.7305,-3.8218,-3.8206,-3.8206,-3.8206,-3.8214,-3.8368,-3.853,-3.8271,-3.8195,-3.8358,-3.8479,-3.8715,-3.92,-4.0104,-4.0489,-4.0489,-4.0489,-4.0523,-4.0558,-4.0577,-4.0626,-4.0679,-4.0746,-4.0808,-4.0815,-4.0807,-4.0828,-4.111,-4.1682,-4.2299,-4.277,-4.3477,-4.4183,-4.4057,-4.4113,-4.32,-4.201,-4.0801,-3.9852,-3.922,-3.8995,-3.8845,-3.8488,-3.8445,-3.8383,-3.8334,-3.8378,-3.7984,-3.7671,-3.7452,-3.7166,-3.6656,-3.5962,-3.546,-3.5404,-3.4612,-3.4161,-3.4148,-3.4148,-3.4293,-3.445,-3.4645,-3.481,-3.502,-3.5193,-3.53,-3.534,-3.5449,-3.5482,-3.5468,-3.5441,-3.5345,-3.5254,-3.5176,-3.5127,-3.5056,-3.5001,-3.5,-3.5089,-3.5157,-3.5304,-3.5422,-3.5463,-3.543,-3.5347,-3.5212,-3.4966,-3.4757,-3.4889,-3.4906,-3.4874,-3.5009,-3.5162,-3.5215,-3.5152,-3.5124,-3.5105,-3.5105,-3.5162,-3.5184,-3.5242,-3.5242,-3.5261,-3.5261,-3.5277,-3.5273,-3.5223,-3.5207,-3.5207,-3.5226,-3.5242,-3.5258,-3.5377,-3.5556,-3.633,-3.7494,-3.7525,-3.7544,-3.7556,-3.7552,-3.7629,-3.7757,-3.7482,-3.7506,-3.766,-3.7723,-3.8267,-3.9215,-3.9873,-4.0239,-4.0489,-4.0523,-4.0558,-4.0592,-4.0626,-4.0656,-4.0698,-4.0771,-4.0803,-4.0804,-4.0792,-4.0826,-4.1033,-4.1498,-4.2114,-4.2983,-4.3496,-4.427,-4.4806,-4.4567,-4.3662,-4.2152,-4.0741,-3.9958,-3.9602,-3.9564,-3.9564,-3.9545,-3.9596,-3.9571,-3.952,-3.9439,-3.8932,-3.8555,-3.8316,-3.7955,-3.7158,-3.6389,-3.5757,-3.5442,-3.4655,-3.4191,-3.4197,-3.4197,-3.4293,-3.4431,-3.4645,-3.483,-3.5057,-3.5231,-3.5339,-3.5355,-3.5443,-3.5502,-3.5522,-3.5515,-3.5441,-3.5335,-3.5242,-3.5176,-3.5127,-3.5073,-3.5019,-3.5091,-3.516,-3.5209,-3.5335,-3.5476,-3.5546,-3.5585,-3.5615,-3.5615,-3.5526,-3.5411,-3.5254,-3.5089,-3.5133,-3.5229,-3.5248,-3.5283,-3.5277,-3.5308,-3.5324,-3.5324,-3.5304,-3.5289,-3.5289,-3.5308,-3.5324,-3.5324,-3.532,-3.5254,-3.5223,-3.5273,-3.5304,-3.5304,-3.5354,-3.5528,-3.5905,-3.5541,-3.5592,-3.5746,-3.5881,-3.5874,-3.5777,-3.6253,-3.6786,-3.6086,-3.6228,-3.6766,-3.6906,-3.7777,-3.8911,-3.9358,-3.9854,-4.045,-4.0573,-4.0592,-4.0622,-4.0665,-4.0679,-4.0712,-4.0745,-4.0791,-4.079,-4.0784,-4.0781,-4.0815,-4.0931,-4.1497,-4.2106,-4.2869,-4.3547,-4.3848,-4.3735,-4.3104,-4.1883,-4.0797,-4.0121,-3.9789,-3.962,-3.962,-3.962,-3.962,-3.9596,-3.9577,-3.9546,-3.9413,-3.913,-3.904,-3.855,-3.7642,-3.6853,-3.6203,-3.546,-3.468,-3.4271,-3.4216,-3.4216,-3.4245,-3.4363,-3.4583,-3.483,-3.5039,-3.5215,-3.5324,-3.5427,-3.5476,-3.5515,-3.5534,-3.5541,-3.5501,-3.5427,-3.5335,-3.5242,-3.5196,-3.5145,-3.5127,-3.5127,-3.5162,-3.5193,-3.5242,-3.5393,-3.5496,-3.555,-3.5629,-3.5639,-3.5596,-3.5502,-3.5386,-3.5283,-3.5258,-3.5285,-3.5308,-3.5339,-3.5364,-3.5393,-3.5407,-3.5393,-3.5412,-3.5379,-3.5345,-3.536,-3.536,-3.5379,-3.5379,-3.5374,-3.5355,-3.5379,-3.5417,-3.5518,-3.579,-3.6106,-3.6535,-3.536,-3.535,-3.5354,-3.5427,-3.5489,-3.5463,-3.5656,-3.5861,-3.5592,-3.5565,-3.595,-3.6435,-3.6991,-3.7775,-3.885,-3.933,-3.9765,-4.0338,-4.0466,-4.0607,-4.0636,-4.0621,-4.0654,-4.066,-4.0689,-4.0723,-4.0725,-4.072,-4.073,-4.0694,-4.0777,-4.1335,-4.1967,-4.2595,-4.2851,-4.2595,-4.1882,-4.1343,-4.0553,-3.9858,-3.9771,-3.962,-3.962,-3.962,-3.962,-3.962,-3.9596,-3.9571,-3.952,-3.9469,-3.9373,-3.8771,-3.8021,-3.7195,-3.637,-3.5553,-3.4717,-3.4327,-3.4216,-3.4197,-3.4245,-3.4363,-3.4561,-3.4769,-3.4946,-3.5073,-3.5264,-3.5373,-3.5463,-3.5496,-3.5502,-3.5553,-3.5547,-3.5495,-3.5407,-3.532,-3.5258,-3.5212,-3.5126,-3.5108,-3.5143,-3.5193,-3.5242,-3.5289,-3.5397,-3.5514,-3.5588,-3.564,-3.5629,-3.5615,-3.5507,-3.5425,-3.5405,-3.5411,-3.5435,-3.5449,-3.5476,-3.547,-3.5483,-3.5489,-3.5489,-3.5463,-3.5443,-3.5424,-3.5451,-3.5477,-3.5489,-3.5502,-3.547,-3.5451,-3.5599,-3.5791,-3.6168,-3.6671,-3.7364,-3.4875,-3.4885,-3.5028,-3.5187,-3.534,-3.535,-3.5355,-3.538,-3.5397,-3.5383,-3.54,-3.599,-3.6374,-3.6872,-3.7674,-3.8534,-3.8815,-3.9346,-3.9854,-4.0072,-4.0154,-4.037,-4.0519,-4.0593,-4.0581,-4.0608,-4.0596,-4.0574,-4.0549,-4.0526,-4.0558,-4.0723,-4.1001,-4.1589,-4.1987,-4.1699,-4.1117,-4.071,-4.0328,-3.9771,-3.9714,-3.962,-3.962,-3.962,-3.962,-3.962,-3.962,-3.9596,-3.9571,-3.9495,-3.9324,-3.888,-3.813,-3.7352,-3.6563,-3.5683,-3.4977,-3.4494,-3.4271,-3.4221,-3.4269,-3.4386,-3.4495,-3.4647,-3.4811,-3.4983,-3.5179,-3.5358,-3.5435,-3.5509,-3.5534,-3.5565,-3.5584,-3.5534,-3.5407,-3.532,-3.5289,-3.5242,-3.5157,-3.5088,-3.5122,-3.5193,-3.5223,-3.5266,-3.5424,-3.5538,-3.5658,-3.5708,-3.5708,-3.5698,-3.5667,-3.5604,-3.557,-3.555,-3.5538,-3.5558,-3.5577,-3.557,-3.5581,-3.557,-3.5558,-3.5546,-3.5534,-3.5526,-3.555,-3.5596,-3.5607,-3.5588,-3.5535,-3.55,-3.5863,-3.6413,-3.6842,-3.7434,-3.8354,-3.3906,-3.3932,-3.4584,-3.4981,-3.5174,-3.519,-3.5239,-3.5296,-3.5296,-3.5308,-3.5302,-3.5446,-3.5806,-3.6345,-3.6802,-3.7316,-3.783,-3.8143,-3.8685,-3.9354,-3.9595,-3.9937,-4.0328,-4.0519,-4.0432,-4.0403,-4.0362,-4.0353,-4.0315,-4.0317,-4.0321,-4.0251,-4.0368,-4.0594,-4.1311,-4.1798,-4.1569,-4.0898,-4.0628,-4.014,-3.9752,-3.962,-3.962,-3.962,-3.962,-3.962,-3.962,-3.962,-3.9571,-3.952,-3.9444,-3.8943,-3.81,-3.7873,-3.701,-3.5634,-3.5485,-3.5021,-3.4333,-3.4234,-3.4325,-3.4573,-3.4795,-3.4905,-3.4942,-3.5135,-3.5354,-3.5691,-3.5652,-3.5644,-3.5623,-3.5577,-3.5584,-3.5534,-3.5422,-3.535,-3.5304,-3.5273,-3.519,-3.5122,-3.5157,-3.519,-3.5203,-3.5262,-3.5432,-3.5574,-3.5708,-3.5766,-3.5775,-3.5766,-3.5728,-3.5708,-3.5678,-3.5667,-3.5667,-3.5667,-3.5678,-3.5688,-3.5669,-3.5648,-3.5667,-3.5667,-3.5637,-3.5618,-3.5649,-3.5718,-3.5698,-3.5708,-3.5795,-3.5999,-3.6677,-3.7217,-3.763,-3.8179,-3.9089,-3.3218,-3.3695,-3.3885,-3.4339,-3.4889,-3.5019,-3.5089,-3.5176,-3.5209,-3.5248,-3.5238,-3.525,-3.5308,-3.5675,-3.615,-3.6568,-3.6941,-3.7668,-3.8274,-3.9065,-3.9138,-3.9723,-4.0165,-4.0336,-4.0272,-4.0214,-4.0177,-4.0139,-4.0101,-4.0081,-4.01,-4.0059,-3.9956,-3.9958,-4.0174,-4.0427,-4.0203,-4.0027,-3.9952,-3.9846,-3.9639,-3.962,-3.962,-3.962,-3.962,-3.962,-3.962,-3.962,-3.9596,-3.9546,-3.9451,-3.9025,-3.8345,-3.81,-3.7254,-3.6031,-3.5602,-3.5254,-3.4619,-3.4396,-3.4657,-3.5025,-3.53,-3.5578,-3.6236,-3.6498,-3.6444,-3.62,-3.6243,-3.6117,-3.5708,-3.5611,-3.5579,-3.5528,-3.5446,-3.5383,-3.5339,-3.5308,-3.5242,-3.519,-3.5174,-3.5395,-3.5465,-3.5618,-3.5791,-3.596,-3.6154,-3.59,-3.5821,-3.5801,-3.5773,-3.5784,-3.5766,-3.5757,-3.5757,-3.5757,-3.5757,-3.5757,-3.5728,-3.5689,-3.5718,-3.5747,-3.5747,-3.5727,-3.5782,-3.5834,-3.5959,-3.6091,-3.6294,-3.6638,-3.7397,-3.8052,-3.8514,-3.9052,-3.9721,-3.2239,-3.2732,-3.2958,-3.3523,-3.4337,-3.4775,-3.4945,-3.5019,-3.5107,-3.5126,-3.5148,-3.5166,-3.5148,-3.5264,-3.5587,-3.5873,-3.6056,-3.6493,-3.7562,-3.8414,-3.8569,-3.9233,-3.9846,-4.0138,-4.0077,-4.0008,-3.9973,-3.996,-3.9878,-3.9895,-3.9889,-3.9845,-3.9739,-3.9764,-3.9768,-3.9758,-3.9733,-3.9714,-3.9714,-3.9695,-3.962,-3.962,-3.962,-3.962,-3.962,-3.962,-3.962,-3.962,-3.962,-3.9571,-3.9408,-3.9189,-3.8677,-3.8109,-3.7417,-3.6496,-3.5413,-3.5058,-3.4577,-3.4473,-3.4997,-3.6091,-3.6021,-3.631,-3.7027,-3.7179,-3.6958,-3.6818,-3.6929,-3.6334,-3.5713,-3.5618,-3.5586,-3.5551,-3.5552,-3.5507,-3.5802,-3.5809,-3.5873,-3.5763,-3.5954,-3.6023,-3.5994,-3.6022,-3.6215,-3.6424,-3.6609,-3.6309,-3.6012,-3.5943,-3.5885,-3.5807,-3.5826,-3.5818,-3.5818,-3.5799,-3.581,-3.5821,-3.5793,-3.5736,-3.5754,-3.5799,-3.5807,-3.5842,-3.5838,-3.5956,-3.63,-3.6532,-3.6991,-3.7547,-3.8234,-3.8858,-3.9385,-3.9886,-4.0398,-3.1034,-3.1185,-3.1787,-3.2617,-3.3505,-3.426,-3.466,-3.4813,-3.4944,-3.4999,-3.5018,-3.5056,-3.5057,-3.5001,-3.5114,-3.5152,-3.5153,-3.5281,-3.6252,-3.7262,-3.77,-3.867,-3.9471,-3.9906,-3.9778,-3.9724,-3.9611,-3.9388,-3.9542,-3.9222,-3.9255,-3.9421,-3.919,-3.9236,-3.9263,-3.9357,-3.9432,-3.9545,-3.962,-3.962,-3.962,-3.962,-3.9508,-3.947,-3.9489,-3.947,-3.9513,-3.9532,-3.9607,-3.9558,-3.9433,-3.9408,-3.9076,-3.852,-3.771,-3.6664,-3.5268,-3.4753,-3.4532,-3.4539,-3.5465,-3.6543,-3.6415,-3.6666,-3.7279,-3.7879,-3.7737,-3.726,-3.7037,-3.6297,-3.5667,-3.5676,-3.5671,-3.5671,-3.5703,-3.5978,-3.6441,-3.6619,-3.6738,-3.691,-3.7273,-3.7364,-3.7185,-3.7126,-3.6881,-3.7179,-3.7332,-3.7143,-3.6781,-3.625,-3.6141,-3.5845,-3.5845,-3.5872,-3.5872,-3.5857,-3.585,-3.5862,-3.5842,-3.5815,-3.583,-3.5845,-3.5845,-3.5872,-3.5879,-3.6033,-3.627,-3.7011,-3.7944,-3.8534,-3.9119,-3.9614,-4.0118,-4.0457,-4.0886,-3.0541,-3.1053,-3.1242,-3.1827,-3.2618,-3.2912,-3.3705,-3.4791,-3.4964,-3.5002,-3.5021,-3.4945,-3.4775,-3.4927,-3.4888,-3.4832,-3.4832,-3.5022,-3.5628,-3.6387,-3.7089,-3.8017,-3.8793,-3.9353,-3.9282,-3.8991,-3.8742,-3.8554,-3.8037,-3.7939,-3.7957,-3.7821,-3.8122,-3.8286,-3.8549,-3.8676,-3.9014,-3.9314,-3.9432,-3.9489,-3.9489,-3.9432,-3.9164,-3.8882,-3.9212,-3.9161,-3.8917,-3.9279,-3.9435,-3.9524,-3.8963,-3.867,-3.8649,-3.7839,-3.6962,-3.6204,-3.5195,-3.4561,-3.4561,-3.4623,-3.5402,-3.6801,-3.6955,-3.7907,-3.8593,-3.8923,-3.8667,-3.8118,-3.7505,-3.6924,-3.6438,-3.6281,-3.6259,-3.6265,-3.6405,-3.6845,-3.7269,-3.7405,-3.7559,-3.8018,-3.8418,-3.8226,-3.8087,-3.7881,-3.77,-3.8003,-3.8121,-3.7987,-3.7519,-3.695,-3.63,-3.5983,-3.5872,-3.5898,-3.5911,-3.5898,-3.5898,-3.5878,-3.5878,-3.5878,-3.5878,-3.5866,-3.5892,-3.5885,-3.5903,-3.5987,-3.6142,-3.7191,-3.8639,-3.9325,-3.9894,-4.0388,-4.0804,-4.0991,-4.1124,-2.9616,-3.0035,-3.0375,-3.0979,-3.1751,-3.22,-3.3011,-3.3845,-3.3941,-3.3961,-3.396,-3.3884,-3.3923,-3.3847,-3.3791,-3.3791,-3.379,-3.415,-3.4794,-3.5607,-3.6436,-3.7241,-3.7985,-3.8418,-3.8263,-3.8014,-3.7845,-3.7694,-3.7122,-3.7084,-3.7178,-3.7216,-3.7122,-3.7361,-3.7699,-3.785,-3.8075,-3.8469,-3.8807,-3.9032,-3.9014,-3.885,-3.8244,-3.8099,-3.8559,-3.8334,-3.807,-3.8625,-3.8769,-3.8788,-3.8056,-3.7943,-3.7819,-3.7088,-3.6216,-3.5509,-3.5039,-3.4663,-3.4645,-3.4687,-3.5727,-3.675,-3.7362,-3.8215,-3.9091,-3.9608,-3.9368,-3.9012,-3.8423,-3.785,-3.741,-3.7043,-3.7024,-3.7041,-3.7426,-3.7827,-3.8018,-3.819,-3.8572,-3.9067,-3.9106,-3.8915,-3.8738,-3.8534,-3.865,-3.9133,-3.9328,-3.9208,-3.8499,-3.7541,-3.6676,-3.5996,-3.593,-3.5922,-3.593,-3.593,-3.5917,-3.5897,-3.5885,-3.5885,-3.5885,-3.5905,-3.5911,-3.5908,-3.5909,-3.62,-3.668,-3.8053,-3.9367,-3.9995,-4.0464,-4.0743,-4.0965,-4.1066,-4.1142,-2.86,-2.8644,-2.9303,-2.9999,-3.0772,-3.145,-3.1827,-3.2034,-3.2012,-3.2255,-3.2443,-3.2482,-3.2597,-3.2787,-3.2751,-3.2713,-3.2902,-3.3299,-3.3771,-3.4679,-3.5545,-3.6308,-3.6723,-3.7089,-3.7351,-3.7159,-3.693,-3.6775,-3.6817,-3.6592,-3.6502,-3.6915,-3.6746,-3.6761,-3.6948,-3.7005,-3.7211,-3.7568,-3.7831,-3.7981,-3.8,-3.7606,-3.7084,-3.7065,-3.722,-3.7243,-3.7201,-3.7246,-3.73,-3.7319,-3.7203,-3.7203,-3.671,-3.6333,-3.5482,-3.5103,-3.4802,-3.4745,-3.4727,-3.4768,-3.5639,-3.6608,-3.7408,-3.8161,-3.8956,-3.9754,-3.965,-3.948,-3.8895,-3.8345,-3.7851,-3.7814,-3.7833,-3.7946,-3.8251,-3.8651,-3.8974,-3.9088,-3.9317,-3.9661,-3.9623,-3.9488,-3.9563,-3.9385,-3.9333,-4.0072,-4.0275,-4.0106,-3.9568,-3.8447,-3.741,-3.6442,-3.6381,-3.6353,-3.5948,-3.5948,-3.5929,-3.5909,-3.5899,-3.5914,-3.5933,-3.5928,-3.5922,-3.5924,-3.6001,-3.6871,-3.7643,-3.8743,-3.9702,-4.0561,-4.0935,-4.1052,-4.1152,-4.1172,-4.1172,-2.8644,-2.8596,-2.8766,-2.8685,-2.8395,-2.8579,-2.8772,-2.8808,-2.9412,-3.0671,-3.2134,-3.233,-3.2315,-3.2182,-3.2127,-3.2109,-3.2279,-3.2411,-3.2694,-3.3412,-3.4317,-3.499,-3.5615,-3.6258,-3.6506,-3.6333,-3.6062,-3.5848,-3.5533,-3.5368,-3.5259,-3.5259,-3.5371,-3.5653,-3.616,-3.6179,-3.6366,-3.6723,-3.6629,-3.6892,-3.7141,-3.7136,-3.6892,-3.6675,-3.6603,-3.6669,-3.6729,-3.6925,-3.7177,-3.733,-3.6665,-3.6134,-3.5411,-3.5222,-3.5034,-3.4806,-3.4768,-3.4788,-3.4788,-3.4865,-3.5491,-3.6268,-3.7026,-3.7835,-3.8628,-3.941,-3.975,-3.9618,-3.9315,-3.8788,-3.8487,-3.8527,-3.8626,-3.8781,-3.8974,-3.9395,-3.9795,-3.9929,-4.0043,-4.0043,-4.0043,-4.01,-4.0195,-4.025,-4.0243,-4.0323,-4.0482,-4.0449,-4.0322,-3.9539,-3.8481,-3.7617,-3.724,-3.7015,-3.6458,-3.599,-3.597,-3.5966,-3.5958,-3.5977,-3.5977,-3.5973,-3.5968,-3.5962,-3.6173,-3.696,-3.7803,-3.8765,-3.9722,-4.0782,-4.1155,-4.116,-4.1172,-4.1191,-4.1191,-2.7509,-2.7506,-2.7881,-2.8023,-2.7938,-2.7657,-2.7544,-2.7687,-2.8084,-2.8984,-3.0308,-3.094,-3.1328,-3.1311,-3.1258,-3.1316,-3.1391,-3.1637,-3.1787,-3.2278,-3.2959,-3.3486,-3.4293,-3.5026,-3.4924,-3.4846,-3.5162,-3.5008,-3.4558,-3.4617,-3.4695,-3.4602,-3.4639,-3.4827,-3.5353,-3.5371,-3.5559,-3.5878,-3.554,-3.5713,-3.6107,-3.5995,-3.5841,-3.5641,-3.5703,-3.5824,-3.5867,-3.6042,-3.6158,-3.6234,-3.5799,-3.5552,-3.5116,-3.5021,-3.4926,-3.4868,-3.4848,-3.4848,-3.4868,-3.4982,-3.5285,-3.6004,-3.6795,-3.764,-3.8342,-3.9081,-3.9623,-3.9524,-3.9453,-3.9006,-3.9029,-3.9067,-3.9135,-3.9277,-3.944,-3.9711,-3.9965,-4.012,-4.0177,-4.0215,-4.0196,-4.0215,-4.0291,-4.0289,-4.0302,-4.0351,-4.05,-4.0629,-4.0537,-4.0315,-3.9354,-3.8461,-3.7888,-3.7457,-3.6941,-3.6391,-3.5997,-3.6017,-3.6013,-3.6009,-3.6005,-3.6009,-3.6013,-3.6075,-3.6332,-3.6866,-3.7728,-3.9041,-3.9971,-4.0972,-4.1167,-4.1188,-4.1191,-4.1191,-4.1191,-2.617,-2.611,-2.6836,-2.7487,-2.7985,-2.7462,-2.7162,-2.726,-2.7414,-2.7458,-2.7841,-2.9136,-2.9642,-2.982,-2.9959,-2.9943,-3.0189,-3.0795,-3.1004,-3.1269,-3.1935,-3.2372,-3.2694,-3.3053,-3.3351,-3.374,-3.4111,-3.4317,-3.428,-3.4451,-3.4623,-3.4623,-3.4623,-3.4623,-3.4604,-3.4642,-3.4889,-3.4964,-3.4854,-3.476,-3.4722,-3.4645,-3.4757,-3.4739,-3.4706,-3.4749,-3.4829,-3.4868,-3.4926,-3.5003,-3.5154,-3.5116,-3.5059,-3.5002,-3.4983,-3.4946,-3.4946,-3.4946,-3.4946,-3.4965,-3.5343,-3.5911,-3.6661,-3.7329,-3.7991,-3.8589,-3.9146,-3.9626,-3.9577,-3.9677,-3.9696,-3.9777,-3.9852,-3.9684,-3.9834,-3.9911,-4.0077,-4.0234,-4.0253,-4.0291,-4.031,-4.031,-4.0329,-4.0309,-4.0344,-4.0411,-4.0489,-4.0602,-4.0595,-4.0277,-3.9684,-3.8708,-3.7908,-3.7535,-3.722,-3.6615,-3.6004,-3.6004,-3.602,-3.6017,-3.6013,-3.6017,-3.6098,-3.6293,-3.6609,-3.7045,-3.8361,-3.9869,-4.0679,-4.1172,-4.1191,-4.1191,-4.1191,-4.1191,-4.1191,-2.6136,-2.601,-2.6261,-2.6128,-2.5782,-2.5665,-2.5653,-2.5779,-2.6431,-2.6673,-2.6885,-2.7548,-2.8351,-2.9064,-2.9806,-3.0019,-3.0045,-3.0364,-3.0285,-3.0418,-3.1146,-3.1414,-3.1686,-3.2146,-3.2392,-3.2805,-3.3252,-3.355,-3.3642,-3.4191,-3.4588,-3.4454,-3.4553,-3.4572,-3.4612,-3.4574,-3.4463,-3.4406,-3.4425,-3.4446,-3.4578,-3.4615,-3.4708,-3.4768,-3.4809,-3.4849,-3.4888,-3.487,-3.4908,-3.4927,-3.4964,-3.502,-3.5057,-3.5075,-3.5076,-3.5039,-3.5039,-3.5039,-3.502,-3.5039,-3.5362,-3.5344,-3.6022,-3.6669,-3.7343,-3.8072,-3.8854,-3.9984,-4.0161,-4.0524,-4.0663,-4.0896,-4.0979,-4.0296,-4.0102,-4.0015,-4.0017,-4.0138,-4.0215,-4.0253,-4.031,-4.031,-4.031,-4.031,-4.0346,-4.0396,-4.0441,-4.0535,-4.0423,-4.016,-3.9859,-3.8916,-3.7922,-3.7578,-3.724,-3.6537,-3.601,-3.601,-3.601,-3.601,-3.601,-3.6007,-3.6147,-3.6554,-3.683,-3.7184,-3.8715,-4.0391,-4.082,-4.1191,-4.1191,-4.1191,-4.1191,-4.1191,-4.1191]}]]